Date StartTime U_cm/s V_cm/s W_cm/s Ustd_cm/s Vstd_cm/s Wstd_cm/s Uvar_(cm/s)^2 Vvar_(cm/s)^2 Wvar_(cm/s)^2 KE_(m/s)^2 TurbulentKE_(m/s)^2 HorizWindSpeed_cm/s FrictionSpeec_cm/s DragCoef SpeedOfSound_m/s SonicTemperature_C Pressure_mb 
06/13/2013  00:00:00     -241.263     -111.189       -5.294      111.776       97.875       53.187    12493.903     9579.519     2828.897        4.775        1.245      265.652       55.736        0.044      341.486       16.228      860.820
06/13/2013  00:01:00     -200.464     -109.501      -10.657      149.534       97.501       60.147    22360.293     9506.491     3617.684        4.388        1.774      228.422       72.389        0.100      341.447       16.164      860.823
06/13/2013  00:02:00     -243.693     -152.116        2.770      148.427       94.949       55.535    22030.572     9015.275     3084.101        5.832        1.706      287.273       70.992        0.061      341.417       16.112      860.824
06/13/2013  00:03:00     -315.334     -212.520      -20.515      171.895      144.028       73.903    29547.833    20744.207     5461.615       10.038        2.788      380.264       81.596        0.046      341.433       16.139      860.823
06/13/2013  00:04:00     -248.075     -162.402       -3.165      147.552      104.976       73.108    21771.706    11020.016     5344.751        6.302        1.907      296.506       69.127        0.054      341.425       16.125      860.824
06/13/2013  00:05:00     -200.423     -110.072        4.388      106.448      100.053       55.983    11331.163    10010.516     3134.113        3.839        1.224      228.660       51.935        0.052      341.393       16.071      860.824
06/13/2013  00:06:00     -255.824     -170.945       -0.316      113.120       73.082       51.161    12796.130     5341.023     2617.412        5.771        1.038      307.682       51.971        0.029      341.407       16.093      860.809
06/13/2013  00:07:00     -248.806     -189.806       -5.010      139.377      108.357       59.357    19426.086    11741.316     3523.285        6.632        1.735      312.939       55.308        0.031      341.412       16.102      860.815
06/13/2013  00:08:00     -228.764     -156.233       -4.117      106.153       68.070       52.076    11268.360     4633.487     2711.911        4.768        0.931      277.023       52.804        0.036      341.370       16.031      860.823
06/13/2013  00:09:00     -243.040     -189.375        6.215      106.958       84.908       68.622    11440.077     7209.299     4708.959        5.916        1.168      308.109       58.811        0.036      341.347       15.993      860.816
06/13/2013  00:10:00     -209.571     -136.951       12.248      128.032      111.051       64.799    16392.227    12332.384     4198.928        4.787        1.646      250.351       71.310        0.081      341.307       15.926      860.825
06/13/2013  00:11:00     -317.137     -130.872       -0.667       95.361       92.994       51.119     9093.807     8647.821     2613.107        6.903        1.018      343.079       51.029        0.022      341.298       15.910      860.835
06/13/2013  00:12:00     -238.830     -151.308       -5.969      111.201      104.585       58.307    12365.621    10937.974     3399.682        5.333        1.335      282.726       56.805        0.040      341.318       15.944      860.830
06/13/2013  00:13:00     -360.248     -196.135      -16.638      118.304       95.574       61.980    13995.849     9134.401     3841.503        9.774        1.349      410.179       65.087        0.025      341.345       15.990      860.813
06/13/2013  00:14:00     -273.725     -170.797       -5.523      109.714       87.069       55.939    12037.177     7581.003     3129.176        6.343        1.137      322.641       54.351        0.028      341.297       15.909      860.816
06/13/2013  00:15:00     -266.861     -130.693       -9.116      103.551       98.931       48.266    10722.744     9787.294     2329.589        5.560        1.142      297.146       49.680        0.028      341.285       15.888      860.829
06/13/2013  00:16:00     -297.589     -167.895      -13.709      133.401       82.385       56.466    17795.865     6787.300     3188.400        7.235        1.389      341.684       64.550        0.036      341.290       15.898      860.824
06/13/2013  00:17:00     -275.483     -246.820       -5.045      137.182      107.207       77.196    18819.038    11493.273     5959.249        8.655        1.814      369.880       78.010        0.044      341.275       15.872      860.815
06/13/2013  00:18:00     -238.724     -145.720        2.484      161.388      112.625       67.271    26046.203    12684.349     4525.350        6.073        2.163      279.685       78.199        0.078      341.279       15.878      860.805
06/13/2013  00:19:00     -219.182     -162.512        4.854      151.072      157.006       66.070    22822.796    24650.748     4365.289        6.315        2.592      272.857       77.487        0.081      341.274       15.871      860.807
06/13/2013  00:20:00     -350.588     -274.399       -9.213      141.291       99.953       74.454    19963.175     9990.507     5543.350       11.689        1.775      445.204       64.879        0.021      341.296       15.908      860.801
06/13/2013  00:21:00     -351.192     -258.321        3.507      163.655       99.085       81.559    26783.035     9817.911     6651.907       11.666        2.163      435.965       91.728        0.044      341.302       15.916      860.785
06/13/2013  00:22:00     -350.632     -252.152       -0.310      150.064      100.356       65.782    22519.267    10071.255     4327.235       11.171        1.846      431.883       73.292        0.029      341.249       15.828      860.778
06/13/2013  00:23:00     -314.842     -239.740      -13.941      129.128      114.265       76.537    16673.979    13056.396     5857.985        9.618        1.779      395.728       73.201        0.034      341.243       15.819      860.786
06/13/2013  00:24:00     -338.186     -225.027      -10.157      197.208      135.466       89.035    38890.841    18351.024     7927.146       11.513        3.258      406.210       98.374        0.059      341.313       15.936      860.778
06/13/2013  00:25:00     -352.075     -226.992        0.370      206.656      153.726       79.100    42706.654    23631.652     6256.731       12.402        3.630      418.905       90.542        0.047      341.318       15.944      860.744
06/13/2013  00:26:00     -279.252     -250.021        2.016      158.292      140.859       90.809    25056.205    19841.318     8246.360        9.681        2.657      374.823       96.283        0.066      341.270       15.864      860.762
06/13/2013  00:27:00     -319.731     -253.101       -6.131      167.557      148.623       87.930    28075.362    22088.935     7731.645       11.210        2.895      407.784      104.362        0.065      341.266       15.857      860.749
06/13/2013  00:28:00     -333.577     -229.697       -2.545      161.262      147.828       83.481    26005.512    21853.086     6969.127       10.942        2.741      405.012       90.626        0.050      341.259       15.843      860.729
06/13/2013  00:29:00     -275.113     -246.649        7.735      188.196      146.549       89.251    35417.790    21476.535     7965.758       10.071        3.243      369.490      102.213        0.077      341.230       15.795      860.720
06/13/2013  00:30:00     -337.267     -279.578      -10.077      160.393      155.212       91.478    25726.026    24090.662     8368.225       12.509        2.909      438.078       93.060        0.045      341.212       15.765      860.704
06/13/2013  00:31:00     -311.421     -255.216       -6.077      179.679      143.750       87.060    32284.694    20664.094     7579.388       11.133        3.026      402.639      102.003        0.064      341.208       15.759      860.692
06/13/2013  00:32:00     -318.027     -242.911        3.202      182.799      182.413       91.953    33415.466    33274.612     8455.273       11.764        3.757      400.184      101.976        0.065      341.185       15.720      860.690
06/13/2013  00:33:00     -309.229     -253.880        3.589      173.670      169.969       84.940    30161.340    28889.579     7214.722       11.316        3.313      400.098       95.658        0.057      341.227       15.790      860.682
06/13/2013  00:34:00     -271.064     -184.173        3.584      209.737      131.467       89.459    43989.710    17283.658     8002.961        8.833        3.464      327.712      102.091        0.097      341.224       15.786      860.684
06/13/2013  00:35:00     -367.544     -292.798      -25.678      135.910      131.363       80.807    18471.524    17256.146     6529.796       13.186        2.113      469.914       70.888        0.023      341.197       15.738      860.697
06/13/2013  00:36:00     -400.467     -343.365      -11.300      191.681      146.679      104.577    36741.549    21514.851    10936.263       17.378        3.460      527.516      113.397        0.046      341.245       15.822      860.669
06/13/2013  00:37:00     -311.286     -216.566       -4.761      147.835      102.928       72.327    21855.069    10594.125     5231.266        9.074        1.884      379.210       78.617        0.043      341.176       15.704      860.676
06/13/2013  00:38:00     -388.491     -195.902      -13.568      159.292      105.565       63.838    25373.859    11144.068     4075.350       11.503        2.030      435.090       62.723        0.021      341.203       15.749      860.664
06/13/2013  00:39:00     -374.592     -244.209      -13.002      184.252      141.389       70.807    33948.839    19990.828     5013.652       12.953        2.948      447.166       87.543        0.038      341.169       15.692      860.637
06/13/2013  00:40:00     -370.482     -239.780      -17.906      180.001      158.877       81.183    32400.371    25241.815     6590.655       12.964        3.212      441.306       96.933        0.048      341.153       15.665      860.624
06/13/2013  00:41:00     -370.471     -210.948       -4.481      202.955      125.825       78.147    41190.853    15832.014     6107.012       12.244        3.156      426.319       92.837        0.047      341.090       15.558      860.599
06/13/2013  00:42:00     -294.872     -187.474        6.783      182.404      141.993       90.157    33271.163    20161.986     8128.276        9.184        3.078      349.423       96.313        0.076      341.064       15.514      860.595
06/13/2013  00:43:00     -388.316     -232.940      -21.576      164.597      113.168       73.286    27092.067    12806.950     5370.864       12.538        2.263      452.825       73.686        0.026      341.049       15.491      860.565
06/13/2013  00:44:00     -343.329     -158.761      -11.818      172.114      109.246       69.742    29623.223    11934.722     4863.966        9.481        2.321      378.259       72.929        0.037      340.992       15.393      860.565
06/13/2013  00:45:00     -311.029     -134.491       -3.049      180.883      161.088       81.811    32718.717    25949.446     6693.073        9.009        3.268      338.861      102.666        0.092      340.981       15.374      860.549
06/13/2013  00:46:00     -358.115     -157.492       -9.110      155.973      138.973       80.251    24327.698    19313.371     6440.271       10.160        2.504      391.216       82.395        0.044      340.978       15.367      860.543
06/13/2013  00:47:00     -454.895     -203.145      -18.752      140.288      150.082       81.577    19680.800    22524.703     6654.769       14.869        2.443      498.194       83.890        0.028      341.023       15.443      860.541
06/13/2013  00:48:00     -356.401     -193.240      -10.858      190.732      160.879       84.631    36378.872    25882.157     7162.480       11.694        3.471      405.417       88.745        0.048      341.031       15.459      860.535
06/13/2013  00:49:00     -324.314     -212.614       -2.336      164.639      118.821       66.194    27105.945    14118.549     4381.621        9.799        2.280      387.794       68.350        0.031      340.989       15.386      860.555
06/13/2013  00:50:00     -309.440     -143.951      -12.312      169.484      122.641       85.726    28724.913    15040.727     7348.938        8.386        2.556      341.285       90.782        0.071      340.960       15.338      860.565
06/13/2013  00:51:00     -356.336     -157.640      -20.758      149.513      132.250       70.803    22354.040    17489.976     5013.064        9.855        2.243      389.648       67.369        0.030      340.983       15.375      860.565
06/13/2013  00:52:00     -323.857     -207.718      -19.509      155.155      146.915       81.707    24073.067    21584.026     6675.967       10.036        2.617      384.747       84.920        0.049      340.977       15.367      860.572
06/13/2013  00:53:00     -357.763     -202.567      -17.460      142.560      128.280       70.999    20323.341    16455.773     5040.913       10.557        2.091      411.130       70.181        0.029      340.962       15.341      860.573
06/13/2013  00:54:00     -320.571     -150.342      -17.061      174.432      159.058       79.657    30426.376    25299.499     6345.303        9.385        3.104      354.074       83.211        0.055      340.937       15.300      860.583
06/13/2013  00:55:00     -333.365     -158.057       -8.396      137.591      132.881       75.905    18931.227    17657.237     5761.636        8.926        2.118      368.936       78.763        0.046      340.910       15.254      860.592
06/13/2013  00:56:00     -359.211     -215.965      -13.688      155.063      138.658       84.702    24044.458    19226.026     7174.420       11.314        2.522      419.134       92.828        0.049      340.919       15.268      860.590
06/13/2013  00:57:00     -256.657     -111.632       -4.987      131.112      136.033       67.709    17190.279    18504.868     4584.531        5.931        2.014      279.883       66.325        0.056      340.898       15.234      860.604
06/13/2013  00:58:00     -310.215     -199.467      -10.727      112.395      131.251       71.928    12632.545    17226.781     5173.599        8.558        1.752      368.809       62.111        0.028      340.915       15.262      860.600
06/13/2013  00:59:00     -198.776     -112.051       -0.516      145.569      118.914       62.142    21190.452    14140.563     3861.579        4.562        1.960      228.183       62.329        0.075      340.870       15.185      860.612
06/13/2013  01:00:00     -243.807      -99.875      -10.871      143.979      111.104       63.838    20729.879    12344.076     4075.237        5.333        1.857      263.470       67.438        0.066      340.877       15.198      860.617
06/13/2013  01:01:00     -213.614      -81.186      -17.867      124.967      110.120       63.791    15616.734    12126.337     4069.278        4.217        1.591      228.522       55.295        0.059      340.838       15.133      860.624
06/13/2013  01:02:00     -197.153     -122.091        6.528      149.982      112.692       66.016    22494.637    12699.475     4358.173        4.668        1.978      231.896       72.360        0.097      340.807       15.080      860.633
06/13/2013  01:03:00     -223.357      -83.700       -1.930      155.602       76.346       59.018    24211.854     5828.654     3483.112        4.520        1.676      238.525       66.329        0.077      340.802       15.073      860.628
06/13/2013  01:04:00     -230.012     -135.983       -5.408      134.248       78.474       56.017    18022.476     6158.160     3137.922        4.937        1.366      267.202       65.244        0.060      340.790       15.052      860.633
06/13/2013  01:05:00     -178.089      -54.422        4.710      129.058       79.621       56.065    16655.955     6339.532     3143.247        3.041        1.307      186.219       63.306        0.116      340.743       14.973      860.632
06/13/2013  01:06:00     -232.499     -103.076       -2.678      149.255       75.915       54.134    22276.916     5763.014     2930.456        4.782        1.549      254.324       53.127        0.044      340.760       15.000      860.625
06/13/2013  01:07:00     -193.866      -97.685        4.583      150.233       87.474       60.884    22569.862     7651.703     3706.835        4.053        1.696      217.086       72.339        0.111      340.743       14.972      860.638
06/13/2013  01:08:00     -235.072      -93.112       -7.959      120.037       95.022       48.379    14408.770     9029.214     2340.526        4.488        1.289      252.841       38.758        0.023      340.737       14.960      860.639
06/13/2013  01:09:00     -234.228     -109.130       -3.437      118.862       77.603       53.842    14128.144     6022.174     2898.949        4.491        1.152      258.403       21.254        0.007      340.727       14.943      860.637
06/13/2013  01:10:00     -194.679      -97.829       -0.245      114.689       88.119       54.909    13153.475     7764.881     3014.994        3.570        1.197      217.877       57.366        0.069      340.675       14.856      860.650
06/13/2013  01:11:00     -187.077      -94.233       -9.826      116.813       74.604       60.132    13645.290     5565.824     3615.887        3.340        1.141      209.470       49.866        0.057      340.664       14.838      860.646
06/13/2013  01:12:00     -222.821     -118.424       -7.425      113.251       98.449       60.243    12825.710     9692.304     3629.249        4.493        1.307      252.336       55.226        0.048      340.641       14.799      860.653
06/13/2013  01:13:00     -272.529      -66.948       -4.513      152.852       99.495       58.117    23363.761     9899.343     3377.552        5.770        1.832      280.632       70.480        0.063      340.641       14.798      860.664
06/13/2013  01:14:00     -214.008      -99.382      -11.163      102.160       88.100       43.400    10436.636     7761.581     1883.552        3.794        1.004      235.959       45.744        0.038      340.643       14.801      860.671
06/13/2013  01:15:00     -219.569      -64.216        2.838      120.166       85.537       63.315    14439.922     7316.635     4008.829        3.905        1.288      228.767       67.926        0.088      340.615       14.754      860.684
06/13/2013  01:16:00     -254.499      -52.803       -6.134      108.994       72.247       50.900    11879.649     5219.679     2590.811        4.364        0.985      259.919       58.273        0.050      340.558       14.656      860.688
06/13/2013  01:17:00     -251.031      -69.530       -1.555      138.368       83.695       51.980    19145.757     7004.881     2701.901        4.835        1.443      260.482       57.684        0.049      340.569       14.677      860.694
06/13/2013  01:18:00     -287.863      -90.891      -17.387      103.698       90.663       54.429    10753.213     8219.809     2962.566        5.668        1.097      301.871       51.144        0.029      340.583       14.701      860.698
06/13/2013  01:19:00     -262.914      -68.529        2.348      124.392      108.707       61.812    15473.308    11817.178     3820.670        5.246        1.556      271.699       65.141        0.057      340.602       14.733      860.707
06/13/2013  01:20:00     -261.741      -53.542        1.170      129.351       91.598       59.337    16731.650     8390.215     3520.935        5.000        1.432      267.161       64.304        0.058      340.638       14.792      860.709
06/13/2013  01:21:00     -283.624      -38.290      -10.353       94.763       85.259       55.578     8980.048     7269.110     3088.967        5.067        0.967      286.197       53.898        0.035      340.606       14.739      860.711
06/13/2013  01:22:00     -233.150      -45.304      -10.225      101.359       65.620       44.210    10273.638     4305.923     1954.548        3.652        0.827      237.511       41.254        0.030      340.560       14.661      860.719
06/13/2013  01:23:00     -284.494      -59.086      -13.929      107.403       87.677       51.764    11535.326     7687.194     2679.467        5.326        1.095      290.565       53.487        0.034      340.551       14.646      860.717
06/13/2013  01:24:00     -343.938      -67.237      -14.299       98.220       79.182       54.115     9647.176     6269.768     2928.457        7.093        0.942      350.448       59.459        0.029      340.541       14.630      860.726
06/13/2013  01:25:00     -271.099      -67.201      -12.964      100.507       67.612       43.515    10101.703     4571.444     1893.548        4.737        0.828      279.304       39.922        0.020      340.498       14.558      860.733
06/13/2013  01:26:00     -220.694      -88.986       -4.590      101.504       87.355       49.629    10303.092     7630.859     2463.072        3.852        1.020      237.958       51.414        0.047      340.476       14.520      860.739
06/13/2013  01:27:00     -227.432      -46.534        0.295      105.870       95.810       54.881    11208.553     9179.594     3011.904        3.864        1.170      232.144       54.006        0.054      340.449       14.475      860.749
06/13/2013  01:28:00     -147.107      -40.043        6.953      105.065       71.992       51.543    11038.620     5182.869     2656.702        2.108        0.944      152.459       59.490        0.152      340.435       14.450      860.759
06/13/2013  01:29:00     -255.889      -66.965       -1.064       76.274       71.489       44.257     5817.739     5110.708     1958.657        4.142        0.644      264.506       42.206        0.025      340.429       14.440      860.762
06/13/2013  01:30:00     -181.576      -39.379        2.535      105.663       72.772       49.129    11164.742     5295.731     2413.638        2.670        0.944      185.797       52.101        0.079      340.383       14.362      860.773
06/13/2013  01:31:00     -227.985      -60.291       -4.821      127.142       70.756       48.986    16164.968     5006.438     2399.666        3.960        1.179      235.822       58.252        0.061      340.364       14.332      860.776
06/13/2013  01:32:00     -204.727      -70.633       -3.927       88.979       56.160       34.717     7917.342     3153.910     1205.251        2.959        0.614      216.569       44.545        0.042      340.329       14.272      860.788
06/13/2013  01:33:00     -254.267      -73.952       -8.537      108.846       81.710       42.195    11847.509     6676.588     1780.459        4.524        1.015      264.803       48.924        0.034      340.287       14.198      860.793
06/13/2013  01:34:00     -238.866      -24.230        2.293      108.186       78.307       48.447    11704.122     6132.049     2347.160        3.891        1.009      240.091       50.494        0.044      340.244       14.126      860.795
06/13/2013  01:35:00     -249.342      -79.612       -1.240       93.369       68.310       45.019     8717.730     4666.268     2026.716        4.196        0.771      261.743       50.075        0.037      340.214       14.076      860.791
06/13/2013  01:36:00     -217.473      -82.936       -1.801       96.278       77.295       46.043     9269.442     5974.541     2119.977        3.577        0.868      232.750       55.197        0.056      340.133       13.940      860.795
06/13/2013  01:37:00     -215.941      -53.110       -0.287       87.047       78.413       45.847     7577.144     6148.537     2101.971        3.264        0.791      222.376       41.783        0.035      340.088       13.865      860.799
06/13/2013  01:38:00     -231.673      -94.726       -4.273       98.934       77.219       47.980     9787.969     5962.762     2302.096        4.035        0.903      250.291       51.832        0.043      340.063       13.822      860.793
06/13/2013  01:39:00     -231.137      -63.876       -5.239       90.987       71.984       40.226     8278.624     5181.689     1618.099        3.630        0.754      239.801       42.816        0.032      340.044       13.790      860.781
06/13/2013  01:40:00     -250.067      -90.319       -4.946       97.918       68.078       45.887     9587.981     4634.654     2105.610        4.352        0.816      265.878       47.720        0.032      340.021       13.751      860.779
06/13/2013  01:41:00     -198.906      -65.181       -6.368       99.490       74.333       40.400     9898.297     5525.402     1632.177        3.045        0.853      209.313       50.713        0.059      339.972       13.669      860.779
06/13/2013  01:42:00     -209.218     -103.338      -10.329       82.440       76.708       41.583     6796.414     5884.091     1729.184        3.448        0.720      233.347       42.622        0.033      339.962       13.652      860.768
06/13/2013  01:43:00     -250.613      -72.097       -1.352      107.864       80.700       54.287    11634.646     6512.475     2947.080        4.455        1.055      260.777       57.790        0.049      339.937       13.608      860.770
06/13/2013  01:44:00     -263.761     -102.279      -12.638       70.997       75.653       46.529     5040.531     5723.303     2164.977        4.656        0.646      282.897       42.916        0.023      339.914       13.570      860.775
06/13/2013  01:45:00     -213.988      -79.413       -6.487       91.728       92.396       47.692     8413.993     8537.102     2274.537        3.568        0.961      228.249       48.757        0.046      339.897       13.542      860.767
06/13/2013  01:46:00     -215.110      -57.021        5.613       98.678       74.935       42.939     9737.308     5615.196     1843.800        3.337        0.860      222.540       43.869        0.039      339.869       13.494      860.761
06/13/2013  01:47:00     -224.997      -68.330       -5.825       88.869       88.414       47.057     7897.677     7816.965     2214.400        3.662        0.896      235.144       48.897        0.043      339.864       13.487      860.752
06/13/2013  01:48:00     -248.811      -56.072      -11.569      108.389       66.643       43.723    11748.214     4441.238     1911.740        4.164        0.905      255.051       50.091        0.039      339.868       13.493      860.737
06/13/2013  01:49:00     -220.269      -40.522        3.869       85.585       75.663       45.689     7324.815     5724.833     2087.501        3.265        0.757      223.965       43.822        0.038      339.883       13.519      860.731
06/13/2013  01:50:00     -229.529      -40.569       -1.900      114.348       68.378       45.839    13075.508     4675.591     2101.230        3.709        0.993      233.087       49.958        0.046      339.942       13.619      860.723
06/13/2013  01:51:00     -216.533      -40.581        3.437       96.502       79.997       48.457     9312.667     6399.592     2348.076        3.330        0.903      220.303       46.540        0.045      339.916       13.574      860.722
06/13/2013  01:52:00     -249.727      -49.969       -4.010       89.444       64.484       51.212     8000.306     4158.229     2622.715        3.983        0.739      254.678       52.536        0.043      339.898       13.543      860.718
06/13/2013  01:53:00     -203.971      -23.491        0.068      111.939       61.103       48.305    12530.370     3733.626     2333.385        3.037        0.930      205.320       56.983        0.077      339.848       13.461      860.715
06/13/2013  01:54:00     -263.904      -52.478       -6.599       97.517       63.099       44.719     9509.530     3981.499     1999.773        4.396        0.775      269.071       49.421        0.034      339.870       13.497      860.730
06/13/2013  01:55:00     -300.131      -92.408      -10.909       70.246       65.857       38.920     4934.503     4337.132     1514.761        5.476        0.539      314.035       26.369        0.007      339.906       13.554      860.744
06/13/2013  01:56:00     -350.109      -65.707       -9.979       93.239       73.471       50.709     8693.537     5398.049     2571.446        7.182        0.833      356.221       42.443        0.014      339.916       13.573      860.749
06/13/2013  01:57:00     -328.458      -52.238        2.732      120.549       87.259       60.230    14532.013     7614.149     3627.667        6.819        1.289      332.586       68.201        0.042      339.915       13.571      860.756
06/13/2013  01:58:00     -256.933      -43.822        1.235      110.388       83.673       58.391    12185.421     7001.181     3409.547        4.526        1.130      260.644       61.783        0.056      339.876       13.506      860.766
06/13/2013  01:59:00     -278.677       -8.841       -5.072      111.440       88.078       57.883    12418.922     7757.719     3350.450        5.064        1.176      278.817       58.508        0.044      339.871       13.496      860.775
06/13/2013  02:00:00     -263.828      -41.096      -14.479      109.585       79.739       55.127    12008.816     6358.337     3038.934        4.645        1.070      267.009       61.167        0.052      339.856       13.472      860.783
06/13/2013  02:01:00     -275.992      -26.920       -1.291      111.350       87.579       49.483    12398.867     7670.091     2448.560        4.970        1.126      277.302       48.385        0.030      339.843       13.449      860.778
06/13/2013  02:02:00     -183.260      -42.397        2.839      120.147       76.455       58.346    14435.337     5845.366     3404.224        2.953        1.184      188.100       68.244        0.132      339.831       13.431      860.773
06/13/2013  02:03:00     -210.403      -78.199       -2.233       99.706      104.311       55.888     9941.224    10880.842     3123.487        3.716        1.197      224.465       56.178        0.063      339.869       13.495      860.769
06/13/2013  02:04:00     -168.980      -41.640       -8.262       97.310       66.077       46.794     9469.333     4366.195     2189.716        2.319        0.801      174.035       58.157        0.112      339.881       13.517      860.774
06/13/2013  02:05:00     -162.641      -25.323       13.583       89.871       68.266       47.040     8076.841     4660.257     2212.768        2.111        0.747      164.601       48.340        0.086      339.865       13.491      860.761
06/13/2013  02:06:00     -196.016      -67.967      -15.250       67.536       47.009       38.118     4561.144     2209.855     1453.007        2.575        0.411      207.465       40.234        0.038      339.917       13.576      860.752
06/13/2013  02:07:00     -252.534      -70.719      -10.710       73.454       77.261       38.513     5395.432     5969.228     1483.252        4.087        0.642      262.249       30.612        0.014      339.897       13.540      860.763
06/13/2013  02:08:00     -209.586      -30.267       -7.861       90.305       65.401       43.201     8155.081     4277.273     1866.303        2.960        0.715      211.760       45.473        0.046      339.857       13.475      860.762
06/13/2013  02:09:00     -206.129      -14.812       -0.811      108.193       74.040       46.304    11705.791     5481.935     2144.021        3.102        0.967      206.660       53.721        0.068      339.820       13.412      860.762
06/13/2013  02:10:00     -269.429      -52.592      -10.925       95.189       76.967       54.753     9060.872     5923.932     2997.891        4.673        0.899      274.514       53.337        0.038      339.818       13.408      860.764
06/13/2013  02:11:00     -178.845      -59.964        2.597       99.049       79.884       53.088     9810.608     6381.491     2818.333        2.730        0.951      188.630       54.802        0.084      339.794       13.368      860.771
06/13/2013  02:12:00     -204.137      -18.137       -4.646       85.803       77.548       47.419     7362.077     6013.684     2248.571        2.882        0.781      204.941       42.086        0.042      339.777       13.341      860.777
06/13/2013  02:13:00     -292.163     -105.695       -5.736       84.631       62.952       45.938     7162.461     3962.993     2110.341        5.490        0.662      310.694       44.457        0.020      339.789       13.358      860.775
06/13/2013  02:14:00     -253.561      -72.761      -13.872       72.567       89.521       43.013     5266.000     8013.929     1850.156        4.245        0.757      263.794       44.613        0.029      339.779       13.344      860.780
06/13/2013  02:15:00     -233.042      -50.290       -4.190      119.528       84.590       53.621    14287.019     7155.479     2875.175        4.058        1.216      238.407       63.321        0.071      339.724       13.253      860.779
06/13/2013  02:16:00     -192.266      -70.978        6.170      101.733       82.191       52.173    10349.555     6755.326     2722.071        3.093        0.991      204.949       60.297        0.087      339.695       13.204      860.794
06/13/2013  02:17:00     -245.508      -53.141       -6.987      107.143      101.295       51.251    11479.664    10260.671     2626.668        4.375        1.218      251.193       55.267        0.048      339.684       13.181      860.809
06/13/2013  02:18:00     -273.990      -40.543      -12.501      122.898       70.314       56.107    15103.971     4944.024     3147.982        5.003        1.160      276.973       64.790        0.055      339.674       13.166      860.793
06/13/2013  02:19:00     -236.432      -53.988        8.429      126.964      106.848       53.490    16119.774    11416.584     2861.193        4.464        1.520      242.518       60.632        0.063      339.670       13.159      860.778
06/13/2013  02:20:00     -285.593      -54.775        4.817      130.995       99.221       63.458    17159.642     9844.804     4026.939        5.780        1.552      290.798       68.402        0.055      339.725       13.253      860.778
06/13/2013  02:21:00     -326.215      -62.938       -5.322      132.445      107.906       67.615    17541.787    11643.735     4571.784        7.207        1.688      332.231       70.147        0.045      339.762       13.314      860.774
06/13/2013  02:22:00     -395.114      -90.275      -21.017      113.872       84.984       55.200    12966.794     7222.244     3047.086        9.397        1.162      405.296       56.893        0.020      339.797       13.375      860.761
06/13/2013  02:23:00     -325.173     -103.413      -11.684      115.017       89.129       51.405    13228.926     7943.924     2642.451        7.019        1.191      341.221       49.421        0.021      339.782       13.348      860.769
06/13/2013  02:24:00     -402.406     -126.932       -8.553      121.735       93.678       59.341    14819.393     8775.516     3521.395       10.261        1.356      421.950       57.602        0.019      339.759       13.311      860.772
06/13/2013  02:25:00     -402.285      -82.460       -1.115      114.492       91.936       59.548    13108.401     8452.169     3545.942        9.687        1.255      410.649       63.270        0.024      339.761       13.314      860.769
06/13/2013  02:26:00     -312.437      -59.127      -14.597      117.628       87.302       56.584    13836.257     7621.647     3201.789        6.299        1.233      317.983       58.632        0.034      339.705       13.217      860.782
06/13/2013  02:27:00     -309.786      -57.737      -15.048       97.139       89.628       49.550     9436.024     8033.197     2455.223        5.972        0.996      315.121       44.253        0.020      339.708       13.223      860.780
06/13/2013  02:28:00     -283.855      -86.007      -13.446       92.296       98.334       54.184     8518.642     9669.598     2935.936        5.463        1.056      296.599       50.400        0.029      339.649       13.125      860.790
06/13/2013  02:29:00     -365.335     -102.752      -17.439      128.574       91.460       57.746    16531.222     8364.886     3334.568        8.628        1.412      379.510       57.608        0.023      339.692       13.197      860.798
06/13/2013  02:30:00     -312.904      -72.328      -10.580      111.573       94.141       55.318    12448.465     8862.480     3060.060        6.381        1.219      321.155       54.074        0.028      339.734       13.268      860.805
06/13/2013  02:31:00     -254.452      -63.497        3.985      134.482      100.348       53.729    18085.426    10069.810     2886.846        4.991        1.552      262.255       58.954        0.051      339.742       13.282      860.806
06/13/2013  02:32:00     -256.761      -97.373       -5.153       97.255       90.246       60.578     9458.568     8144.429     3669.712        4.835        1.064      274.604       49.542        0.033      339.719       13.242      860.803
06/13/2013  02:33:00     -219.748      -44.672        4.984      104.346       85.525       51.847    10888.139     7314.561     2688.124        3.560        1.045      224.243       44.887        0.040      339.672       13.163      860.811
06/13/2013  02:34:00     -304.457      -56.080       -2.062      122.347       97.727       62.990    14968.859     9550.644     3967.727        6.216        1.424      309.579       64.468        0.043      339.693       13.199      860.814
06/13/2013  02:35:00     -275.507      -55.905       -2.305      154.277      115.046       60.419    23801.376    13235.500     3650.429        5.985        2.034      281.121       67.883        0.058      339.715       13.236      860.806
06/13/2013  02:36:00     -305.384      -76.285        0.574      129.416       87.185       55.716    16748.601     7601.267     3104.244        6.326        1.373      314.768       62.588        0.040      339.702       13.213      860.814
06/13/2013  02:37:00     -291.238      -87.198       -3.516      148.601      102.579       64.087    22082.134    10522.395     4107.120        6.457        1.836      304.011       68.433        0.051      339.672       13.162      860.819
06/13/2013  02:38:00     -305.903      -89.316       -7.861       98.052       95.813       52.050     9614.153     9180.190     2709.192        6.156        1.075      318.675       54.645        0.029      339.653       13.130      860.826
06/13/2013  02:39:00     -300.953      -65.136       -9.130      119.193       99.860       57.804    14207.059     9972.098     3341.272        6.120        1.376      307.922       62.915        0.042      339.627       13.086      860.835
06/13/2013  02:40:00     -325.989      -79.449        4.202      142.082       96.940       58.790    20187.167     9397.273     3456.224        7.281        1.652      335.531       68.131        0.041      339.581       13.009      860.831
06/13/2013  02:41:00     -339.922      -55.902       -7.947      139.496       98.005       61.790    19459.025     9604.906     3818.044        7.580        1.644      344.488       71.928        0.044      339.562       12.977      860.831
06/13/2013  02:42:00     -278.546      -75.299       -8.799      107.911      102.378       53.975    11644.739    10481.222     2913.351        5.418        1.252      288.545       56.520        0.038      339.577       13.002      860.835
06/13/2013  02:43:00     -204.682      -51.465       10.298      111.270       79.177       48.730    12380.995     6268.965     2374.652        3.283        1.051      211.052       54.456        0.067      339.506       12.883      860.856
06/13/2013  02:44:00     -263.195      -95.350      -10.468      108.666       99.857       53.665    11808.215     9971.513     2879.962        5.156        1.233      279.934       54.929        0.039      339.518       12.902      860.856
06/13/2013  02:45:00     -230.624      -42.848        8.287      113.167       77.991       50.837    12806.673     6082.665     2584.387        3.828        1.074      234.571       54.419        0.054      339.460       12.805      860.863
06/13/2013  02:46:00     -336.316      -28.032      -17.402      138.174       80.692       57.420    19091.921     6511.227     3297.049        7.154        1.445      337.482       64.065        0.036      339.470       12.821      860.880
06/13/2013  02:47:00     -266.845      -57.562       -1.380      106.634       79.057       50.370    11370.719     6250.045     2537.184        4.734        1.008      272.983       56.459        0.043      339.417       12.733      860.879
06/13/2013  02:48:00     -295.972      -52.139       -7.851      108.974       93.639       42.701    11875.377     8768.184     1823.412        5.642        1.123      300.529       45.642        0.023      339.450       12.788      860.869
06/13/2013  02:49:00     -316.413      -54.616      -14.581      124.038      104.232       53.783    15385.346    10864.327     2892.597        6.622        1.457      321.092       56.162        0.031      339.406       12.714      860.880
06/13/2013  02:50:00     -361.203     -116.649       -4.725      117.926       98.385       55.910    13906.470     9679.670     3125.965        8.540        1.336      379.571       55.314        0.021      339.410       12.722      860.866
06/13/2013  02:51:00     -324.223      -53.276      -16.673      127.077       83.138       61.240    16148.551     6911.926     3750.345        6.752        1.341      328.571       68.148        0.043      339.365       12.644      860.848
06/13/2013  02:52:00     -290.026      -65.424        0.324      139.077       99.235       64.766    19342.503     9847.570     4194.689        6.088        1.669      297.314       80.896        0.074      339.376       12.664      860.837
06/13/2013  02:53:00     -247.663      -23.521        9.397      121.220       93.470       60.948    14694.309     8736.642     3714.634        4.456        1.357      248.778       66.721        0.072      339.351       12.622      860.823
06/13/2013  02:54:00     -263.876      -55.472       -9.256      105.649       60.159       47.667    11161.805     3619.089     2272.174        4.492        0.853      269.644       57.250        0.045      339.347       12.615      860.812
06/13/2013  02:55:00     -266.469      -23.524       -0.152      104.082       77.836       58.853    10833.015     6058.425     3463.639        4.595        1.018      267.506       62.376        0.054      339.268       12.482      860.816
06/13/2013  02:56:00     -353.184      -63.172      -18.467       96.624       69.946       57.050     9336.140     4892.473     3254.733        7.327        0.874      358.790       57.243        0.025      339.244       12.442      860.811
06/13/2013  02:57:00     -264.786      -49.663       -9.794      102.711       83.790       53.815    10549.453     7020.760     2896.097        4.657        1.023      269.403       41.971        0.024      339.242       12.439      860.792
06/13/2013  02:58:00     -336.728      -84.279      -15.216      110.347       79.666       50.398    12176.416     6346.670     2539.910        7.089        1.053      347.115       50.815        0.021      339.299       12.534      860.780
06/13/2013  02:59:00     -282.245      -56.726       -4.252      125.689       93.699       56.025    15797.793     8779.420     3138.770        5.530        1.386      287.889       61.712        0.046      339.265       12.477      860.767
06/13/2013  03:00:00     -293.443      -55.934       -3.583      121.815       86.370       58.182    14838.997     7459.737     3385.136        5.746        1.284      298.726       65.247        0.048      339.299       12.532      860.762
06/13/2013  03:01:00     -271.020      -60.329       -2.361      113.341       82.507       52.868    12846.164     6807.357     2795.028        4.977        1.122      277.653       57.966        0.044      339.296       12.527      860.761
06/13/2013  03:02:00     -268.868      -77.978      -24.500       76.179       84.651       43.541     5803.314     7165.708     1895.861        4.691        0.743      279.947       38.290        0.019      339.271       12.486      860.766
06/13/2013  03:03:00     -279.794      -67.047       -8.026      128.022       83.438       57.123    16389.704     6961.936     3263.002        5.472        1.331      287.715       64.967        0.051      339.334       12.592      860.765
06/13/2013  03:04:00     -248.562      -63.380       -3.878      118.811       84.904       51.206    14116.068     7208.717     2622.029        4.488        1.197      256.515       55.261        0.046      339.304       12.543      860.754
06/13/2013  03:05:00     -322.457      -44.817      -15.906      133.608       82.411       60.553    17851.129     6791.527     3666.704        6.727        1.415      325.556       65.796        0.041      339.344       12.609      860.748
06/13/2013  03:06:00     -340.143      -69.504      -23.340      101.371       79.195       52.661    10276.051     6271.841     2773.207        7.019        0.966      347.172       50.497        0.021      339.336       12.595      860.749
06/13/2013  03:07:00     -272.803     -102.433      -16.877       72.075       69.441       41.783     5194.874     4822.036     1745.802        4.848        0.588      291.400       22.401        0.006      339.296       12.528      860.746
06/13/2013  03:08:00     -300.782      -90.120      -18.261       73.525       87.560       47.038     5405.894     7666.807     2212.587        5.710        0.764      313.993       30.344        0.009      339.277       12.495      860.740
06/13/2013  03:09:00     -284.360      -59.471      -26.220       90.353      109.751       59.300     8163.599    12045.306     3516.442        5.440        1.186      290.513       38.801        0.018      339.276       12.495      860.735
06/13/2013  03:10:00     -293.603     -102.021        1.290       94.982       95.445       50.870     9021.628     9109.743     2587.723        5.866        1.036      310.823       52.274        0.028      339.269       12.483      860.746
06/13/2013  03:11:00     -332.550      -63.622       -8.892      110.735       87.986       56.123    12262.235     7741.607     3149.753        6.893        1.158      338.581       52.138        0.024      339.298       12.532      860.743
06/13/2013  03:12:00     -282.609     -130.968      -12.364      119.194       85.984       62.402    14207.215     7393.325     3894.053        6.133        1.275      311.481       57.220        0.034      339.300       12.535      860.736
06/13/2013  03:13:00     -318.521      -62.750      -16.795      109.467       97.111       51.077    11983.066     9430.636     2608.817        6.484        1.201      324.643       49.046        0.023      339.339       12.599      860.739
06/13/2013  03:14:00     -325.160      -21.351      -19.350      111.715       69.886       54.836    12480.233     4883.991     3007.000        6.346        1.019      325.860       54.645        0.028      339.288       12.514      860.746
06/13/2013  03:15:00     -323.831     -101.220       -4.804       98.698       78.188       59.214     9741.241     6113.409     3506.296        6.724        0.968      339.281       57.532        0.029      339.296       12.529      860.750
06/13/2013  03:16:00     -337.621      -74.210       -8.824      104.361       72.911       48.951    10891.130     5316.045     2396.201        6.908        0.930      345.680       53.091        0.024      339.339       12.601      860.770
06/13/2013  03:17:00     -268.320      -65.213       -3.134      110.398       78.471       51.394    12187.821     6157.659     2641.390        4.862        1.049      276.131       52.020        0.035      339.304       12.543      860.774
06/13/2013  03:18:00     -253.246      -58.131       -4.069      101.323       67.991       45.404    10266.376     4622.835     2061.507        4.224        0.848      259.833       46.156        0.032      339.328       12.583      860.784
06/13/2013  03:19:00     -264.598      -17.774       -0.937      102.893       76.131       49.568    10586.988     5795.941     2456.968        4.458        0.942      265.194       51.925        0.038      339.343       12.609      860.790
06/13/2013  03:20:00     -225.695      -53.468       -1.649      126.187       74.667       48.058    15923.128     5575.203     2309.578        3.880        1.190      231.942       55.623        0.058      339.337       12.599      860.795
06/13/2013  03:21:00     -213.703      -49.678        2.281       92.600       81.889       46.271     8574.706     6705.873     2141.010        3.278        0.871      219.401       46.907        0.046      339.344       12.610      860.789
06/13/2013  03:22:00     -269.862      -55.483       -5.642       79.621       69.055       44.926     6339.470     4768.547     2018.310        4.453        0.656      275.506       44.124        0.026      339.337       12.597      860.785
06/13/2013  03:23:00     -279.682      -77.209      -12.422       86.239       74.983       48.232     7437.175     5622.451     2326.312        4.986        0.769      290.144       49.359        0.029      339.375       12.662      860.787
06/13/2013  03:24:00     -241.330      -66.369        6.409      105.352       73.454       45.485    11099.070     5395.536     2068.905        4.062        0.928      250.290       51.221        0.042      339.357       12.631      860.788
06/13/2013  03:25:00     -206.990      -87.502        0.805      101.199       81.438       52.297    10241.165     6632.190     2734.972        3.505        0.980      224.725       53.855        0.057      339.353       12.626      860.795
06/13/2013  03:26:00     -272.629      -69.813      -13.554       97.519       90.651       51.791     9509.933     8217.614     2682.345        4.989        1.020      281.425       57.329        0.041      339.432       12.758      860.799
06/13/2013  03:27:00     -233.713      -59.994       -3.553       80.717       75.675       45.304     6515.266     5726.731     2052.463        3.626        0.715      241.290       40.720        0.028      339.428       12.751      860.792
06/13/2013  03:28:00     -297.585      -35.667      -12.835       97.940       73.162       50.975     9592.159     5352.620     2598.430        5.376        0.877      299.715       47.161        0.025      339.489       12.855      860.784
06/13/2013  03:29:00     -246.519      -65.146       -6.166      111.231       67.059       41.216    12372.328     4496.924     1698.778        4.181        0.928      254.982       48.604        0.036      339.552       12.961      860.783
06/13/2013  03:30:00     -300.912      -48.473      -30.834       81.251       75.184       44.264     6601.779     5652.642     1959.259        5.403        0.711      304.791       40.821        0.018      339.558       12.972      860.787
06/13/2013  03:31:00     -295.539      -88.690      -13.066       94.273       67.885       48.147     8887.449     4608.381     2318.112        5.559        0.791      308.559       47.659        0.024      339.545       12.949      860.781
06/13/2013  03:32:00     -309.483      -74.064       -8.785      109.397       96.908       56.598    11967.693     9391.160     3203.344        6.295        1.228      318.222       60.390        0.036      339.583       13.014      860.780
06/13/2013  03:33:00     -264.092      -53.161        1.045      105.395       72.002       54.378    11108.092     5184.234     2956.929        4.591        0.962      269.389       60.484        0.050      339.624       13.081      860.771
06/13/2013  03:34:00     -302.986      -75.403       -8.657       92.905       75.557       43.820     8631.319     5708.917     1920.229        5.691        0.813      312.227       45.207        0.021      339.649       13.122      860.769
06/13/2013  03:35:00     -315.883      -72.110      -10.951      111.891       78.773       45.082    12519.500     6205.191     2032.364        6.293        1.038      324.009       49.869        0.024      339.658       13.138      860.782
06/13/2013  03:36:00     -282.556      -96.251       -4.859       84.534       82.701       43.435     7146.059     6839.398     1886.570        5.250        0.794      298.500       37.867        0.016      339.626       13.085      860.770
06/13/2013  03:37:00     -313.071      -47.746      -23.125      100.409      103.756       51.747    10081.956    10765.370     2677.777        6.217        1.176      316.691       51.098        0.026      339.617       13.071      860.770
06/13/2013  03:38:00     -271.862      -37.004       -3.365      135.724       81.384       52.738    18420.999     6623.341     2781.280        5.155        1.391      274.369       63.201        0.053      339.620       13.075      860.760
06/13/2013  03:39:00     -264.298      -75.554      -10.467       91.237       74.778       44.246     8324.269     5591.728     1957.684        4.577        0.794      274.885       47.064        0.029      339.602       13.045      860.756
06/13/2013  03:40:00     -196.203      -58.969        1.263      109.364      104.908       55.725    11960.444    11005.700     3105.239        3.402        1.304      204.873       69.380        0.115      339.611       13.060      860.751
06/13/2013  03:41:00     -303.348      -65.574      -15.037      119.878      100.677       56.802    14370.784    10135.788     3226.484        6.213        1.387      310.355       64.016        0.043      339.671       13.162      860.751
06/13/2013  03:42:00     -295.474      -44.648      -23.098       83.199       65.326       42.972     6922.001     4267.441     1846.556        5.143        0.652      298.828       34.097        0.013      339.576       13.001      860.762
06/13/2013  03:43:00     -266.758      -58.371       -9.002       93.081       80.052       48.023     8663.991     6408.268     2306.222        4.601        0.869      273.070       49.799        0.033      339.533       12.928      860.760
06/13/2013  03:44:00     -269.144      -56.584      -17.745       82.446       73.728       45.975     6797.287     5435.820     2113.738        4.515        0.717      275.028       35.628        0.017      339.547       12.952      860.751
06/13/2013  03:45:00     -273.874      -63.643      -15.794       93.594       76.250       44.506     8759.818     5814.124     1980.783        4.793        0.828      281.172       40.600        0.021      339.522       12.908      860.753
06/13/2013  03:46:00     -284.647      -67.571       -6.094      105.870       71.706       50.818    11208.532     5141.697     2582.474        5.228        0.947      292.557       51.762        0.031      339.543       12.944      860.752
06/13/2013  03:47:00     -268.300      -59.110      -20.173       97.334       80.026       52.124     9473.832     6404.197     2716.878        4.724        0.930      274.734       54.091        0.039      339.517       12.901      860.759
06/13/2013  03:48:00     -237.616      -22.191      -12.145      105.683       83.182       42.716    11168.849     6919.208     1824.626        3.850        0.996      238.650       47.603        0.040      339.392       12.689      860.774
06/13/2013  03:49:00     -314.796       13.795      -33.322       72.251       66.491       44.710     5220.278     4421.084     1999.021        5.602        0.582      315.098       38.684        0.015      339.331       12.586      860.783
06/13/2013  03:50:00     -360.716      -22.929      -36.375       63.809       51.642       37.939     4071.597     2666.890     1439.383        7.007        0.409      361.444       27.535        0.006      339.288       12.514      860.793
06/13/2013  03:51:00     -294.232        1.524      -20.531       81.355       61.044       48.561     6618.652     3726.352     2358.147        4.985        0.635      294.236       43.808        0.022      339.273       12.491      860.801
06/13/2013  03:52:00     -226.707      -80.480      -15.826       88.487       78.155       42.675     7829.932     6108.185     1821.154        3.694        0.788      240.568       34.145        0.020      339.286       12.512      860.818
06/13/2013  03:53:00     -182.156      -75.919        6.033       87.986       98.258       45.857     7741.554     9654.577     2102.876        2.924        0.975      197.344       40.028        0.041      339.275       12.494      860.835
06/13/2013  03:54:00     -251.967      -39.659      -17.126       99.894       72.944       47.597     9978.755     5320.803     2265.506        4.146        0.878      255.069       52.345        0.042      339.342       12.606      860.854
06/13/2013  03:55:00     -216.184      -26.994      -13.084       73.779       80.867       46.506     5443.275     6539.415     2162.802        3.089        0.707      217.863       41.198        0.036      339.352       12.623      860.864
06/13/2013  03:56:00     -221.161      -87.123      -17.468       73.237       70.727       44.986     5363.701     5002.307     2023.752        3.460        0.619      237.703       41.501        0.030      339.395       12.694      860.881
06/13/2013  03:57:00     -248.584      -45.031      -20.324       78.209       58.288       33.608     6116.575     3397.501     1129.487        3.744        0.532      252.630       34.051        0.018      339.412       12.724      860.904
06/13/2013  03:58:00     -207.039      -44.161      -14.016       80.170       71.015       38.788     6427.254     5043.186     1504.545        2.899        0.649      211.696       18.213        0.007      339.392       12.691      860.931
06/13/2013  03:59:00      -94.019       77.325       -3.040       48.189      103.609       43.440     2322.202    10734.928     1887.016        1.488        0.747      121.732       35.504        0.085      339.320       12.571      860.941
06/13/2013  04:00:00     -133.467      151.140      -32.662       49.698       52.999       40.919     2469.938     2808.909     1674.350        2.434        0.348      201.635       30.067        0.022      339.441       12.774      860.958
06/13/2013  04:01:00     -118.971       90.266      -15.283       48.281       70.404       43.676     2331.041     4956.663     1907.595        1.586        0.460      149.339       32.088        0.046      339.424       12.747      860.973
06/13/2013  04:02:00     -259.817       73.832      -34.055       86.866       70.600       36.725     7545.747     4984.378     1348.742        4.399        0.694      270.104       39.761        0.022      339.520       12.906      860.982
06/13/2013  04:03:00     -177.703      122.970      -26.854       86.876       59.848       35.587     7547.370     3581.794     1266.449        2.991        0.620      216.102       37.002        0.029      339.100       12.199      860.996
06/13/2013  04:04:00      -98.363       96.286       -3.454       84.567      105.051       43.822     7151.574    11035.771     1920.390        1.953        1.005      137.645       45.794        0.111      339.060       12.134      860.984
06/13/2013  04:05:00     -183.996      234.152      -32.538       80.444      119.693       59.860     6471.194    14326.507     3583.234        5.706        1.219      297.794       62.908        0.045      339.012       12.052      860.989
06/13/2013  04:06:00     -213.551      198.350      -43.279       74.301       86.549       48.099     5520.646     7490.725     2313.516        5.107        0.766      291.456       41.898        0.021      339.019       12.062      861.005
06/13/2013  04:07:00     -226.220      157.647      -55.868       66.580       83.550       37.852     4432.833     6980.563     1432.805        4.600        0.642      275.731       39.322        0.020      339.094       12.189      861.011
06/13/2013  04:08:00     -148.761       67.854      -16.192       66.409      119.937       45.805     4410.122    14384.834     2098.095        2.394        1.045      163.505       43.730        0.072      339.085       12.175      860.999
06/13/2013  04:09:00     -220.578        6.972      -26.044       85.001       66.845       40.228     7225.176     4468.231     1618.275        3.134        0.666      220.688       33.223        0.023      339.068       12.144      860.993
06/13/2013  04:10:00     -164.758       34.942      -20.890       69.201       84.452       42.321     4788.770     7132.123     1791.040        2.125        0.686      168.423       38.690        0.053      338.979       11.999      861.000
06/13/2013  04:11:00     -243.759       84.100      -34.747       79.929       56.033       41.081     6388.653     3139.701     1687.655        3.946        0.561      257.859       36.578        0.020      338.956       11.957      861.015
06/13/2013  04:12:00     -194.171      123.165      -29.795       75.841       64.049       45.113     5751.813     4102.334     2035.191        3.282        0.594      229.939       41.369        0.032      338.972       11.984      861.004
06/13/2013  04:13:00     -163.048        8.758      -30.405       67.016       87.068       34.477     4491.161     7580.758     1188.674        2.042        0.663      163.284       29.552        0.033      339.014       12.055      860.992
06/13/2013  04:14:00     -173.619       30.204      -19.507       87.916       82.965       38.245     7729.136     6883.123     1462.676        2.375        0.804      176.226       40.554        0.053      338.907       11.875      860.992
06/13/2013  04:15:00     -131.876       19.311      -12.338       79.789       53.800       30.101     6366.253     2894.455      906.058        1.404        0.508      133.283       26.510        0.040      338.851       11.783      860.994
06/13/2013  04:16:00     -128.041      -36.060       -9.859       58.804       70.143       36.529     3457.869     4919.987     1334.334        1.375        0.486      133.022       37.848        0.081      338.794       11.687      860.989
06/13/2013  04:17:00     -149.931      -25.700      -10.217       65.153       62.115       33.058     4244.923     3858.214     1092.810        1.622        0.460      152.118       34.679        0.052      338.858       11.795      860.990
06/13/2013  04:18:00     -137.174      -25.358       -6.780       51.391       60.342       40.604     2641.014     3641.213     1648.678        1.372        0.397      139.498       29.784        0.046      338.921       11.902      860.972
06/13/2013  04:19:00     -160.123        3.812      -16.277       68.885       59.087       34.666     4745.124     3491.264     1201.753        1.768        0.472      160.168       33.392        0.043      338.908       11.877      860.968
06/13/2013  04:20:00     -157.114       33.968      -21.607       89.654       98.951       53.799     8037.918     9791.309     2894.292        2.351        1.036      160.744       61.875        0.148      338.893       11.852      860.958
06/13/2013  04:21:00     -124.914      -11.041      -17.070       48.137       56.677       36.509     2317.142     3212.237     1332.932        1.144        0.343      125.401       32.151        0.066      338.877       11.827      860.957
06/13/2013  04:22:00     -196.563      -54.028      -27.192       65.223       47.266       36.601     4254.047     2234.105     1339.641        2.506        0.391      203.853       21.967        0.012      338.873       11.819      860.961
06/13/2013  04:23:00     -193.128      -27.993      -24.870       64.241       57.371       38.893     4126.849     3291.404     1512.654        2.381        0.447      195.146       37.309        0.037      338.832       11.750      860.963
06/13/2013  04:24:00     -192.314      -26.155      -19.269       45.951       64.251       35.085     2111.483     4128.191     1230.941        2.275        0.374      194.084       32.098        0.027      338.835       11.754      860.973
06/13/2013  04:25:00     -148.540      -32.402      -13.322       64.293       67.860       36.166     4133.612     4605.046     1307.944        1.667        0.502      152.033       31.444        0.043      338.864       11.805      860.968
06/13/2013  04:26:00     -200.227      -73.861       -8.161       46.158       48.127       30.582     2130.590     2316.179      935.259        2.550        0.269      213.416       22.046        0.011      338.833       11.751      860.984
06/13/2013  04:27:00     -180.476      -58.535       -7.872       72.062       58.935       37.028     5192.899     3473.348     1371.076        2.305        0.502      189.731       36.376        0.037      338.865       11.805      860.982
06/13/2013  04:28:00     -121.758        3.217       -6.793       49.164       65.473       25.243     2417.081     4286.760      637.215        1.111        0.367      121.801       20.066        0.027      338.839       11.763      860.995
06/13/2013  04:29:00     -165.043      -23.911      -12.267       72.969       49.522       26.013     5324.533     2452.451      676.661        1.821        0.423      166.766       34.232        0.042      338.858       11.795      860.997
06/13/2013  04:30:00     -178.607      -11.003      -18.263       44.543       55.903       31.409     1984.038     3125.116      986.521        1.922        0.305      178.946       23.610        0.017      338.880       11.832      861.005
06/13/2013  04:31:00     -159.524       -5.749      -20.795       51.631       43.913       27.421     2665.720     1928.366      751.926        1.563        0.267      159.628       22.509        0.020      338.882       11.835      861.021
06/13/2013  04:32:00     -209.439      -53.139      -26.750       54.715       35.492       25.177     2993.729     1259.648      633.862        2.614        0.244      216.075       13.521        0.004      338.890       11.847      861.028
06/13/2013  04:33:00     -203.070      -45.046      -25.161       43.503       45.288       27.953     1892.517     2050.965      781.397        2.431        0.236      208.006       20.885        0.010      338.960       11.965      861.030
06/13/2013  04:34:00     -189.793      -73.319      -12.463       60.003       69.415       37.662     3600.408     4818.445     1418.416        2.569        0.492      203.463       21.185        0.011      338.927       11.910      861.041
06/13/2013  04:35:00     -211.283      -21.640      -22.051       61.035       62.230       33.265     3725.308     3872.609     1106.529        2.715        0.435      212.389       22.759        0.011      338.945       11.939      861.054
06/13/2013  04:36:00     -160.917      -16.465      -22.486       59.512       52.974       39.740     3541.730     2806.208     1579.254        1.730        0.396      161.757       32.924        0.041      338.932       11.919      861.055
06/13/2013  04:37:00     -160.384       73.276      -36.279       48.021       87.668       31.001     2306.049     7685.607      961.038        2.168        0.548      176.330       29.910        0.029      339.109       12.215      861.047
06/13/2013  04:38:00     -143.601       62.758      -10.838       62.245       75.553       39.075     3874.498     5708.263     1526.882        1.789        0.555      156.716       39.060        0.062      339.102       12.205      861.061
06/13/2013  04:39:00     -105.793       36.667        6.631       66.478       64.826       37.392     4419.320     4202.412     1398.164        1.130        0.501      111.967       35.096        0.098      339.069       12.149      861.078
06/13/2013  04:40:00     -163.888       71.371      -19.263       73.823       59.508       33.653     5449.891     3541.233     1132.537        2.122        0.506      178.755       36.307        0.041      339.163       12.306      861.089
06/13/2013  04:41:00     -127.018       32.479      -18.275       66.665      111.497       35.401     4444.267    12431.478     1253.203        1.782        0.906      131.104       33.756        0.066      339.162       12.305      861.092
06/13/2013  04:42:00     -186.270       67.089      -24.297       91.790       70.051       43.981     8425.337     4907.197     1934.359        2.752        0.763      197.984       54.493        0.076      339.211       12.385      861.093
06/13/2013  04:43:00     -207.471      112.099      -38.703       79.551       79.388       43.897     6328.408     6302.392     1926.947        3.583        0.728      235.819       40.395        0.029      339.265       12.477      861.097
06/13/2013  04:44:00     -168.092       72.878      -25.237       83.739       78.314       60.386     7012.162     6133.135     3646.472        2.549        0.840      183.210       50.206        0.075      339.246       12.446      861.103
06/13/2013  04:45:00     -148.047       37.740      -18.493       57.005       59.609       44.308     3249.539     3553.213     1963.176        1.622        0.438      152.782       38.251        0.063      339.246       12.447      861.104
06/13/2013  04:46:00     -160.248      -21.311      -32.702       44.741       44.028       25.666     2001.794     1938.507      658.761        1.590        0.230      161.659       16.909        0.011      339.223       12.407      861.110
06/13/2013  04:47:00     -137.367       -1.244      -18.064       66.957       38.126       38.657     4483.191     1453.558     1494.344        1.331        0.372      137.372       30.164        0.048      339.189       12.351      861.118
06/13/2013  04:48:00     -121.711       25.123      -16.548       55.357       62.035       29.630     3064.351     3848.294      877.910        1.175        0.390      124.276       14.178        0.013      339.155       12.294      861.114
06/13/2013  04:49:00     -124.501       23.886      -21.054       55.858       79.874       38.608     3120.072     6379.900     1490.541        1.375        0.550      126.771       34.830        0.075      339.135       12.260      861.115
06/13/2013  04:50:00     -118.008        4.651      -16.206       50.653       30.033       25.700     2565.720      901.981      660.470        0.917        0.206      118.100       26.980        0.052      339.155       12.293      861.119
06/13/2013  04:51:00     -135.807      -18.017      -14.545       49.110       62.805       32.967     2411.779     3944.413     1086.806        1.321        0.372      136.997       18.283        0.018      339.126       12.246      861.122
06/13/2013  04:52:00     -120.483      -59.780       -2.544       62.581       55.821       33.405     3916.374     3115.958     1115.919        1.312        0.407      134.499       20.436        0.023      339.096       12.195      861.120
06/13/2013  04:53:00      -93.605       57.309      -19.163       39.300       57.363       29.078     1544.480     3290.540      845.553        0.905        0.284      109.755       24.964        0.052      339.024       12.075      861.133
06/13/2013  04:54:00     -139.315       96.768      -16.214       75.898       77.318       56.438     5760.546     5978.067     3185.259        2.198        0.746      169.625       53.975        0.101      339.165       12.311      861.136
06/13/2013  04:55:00     -136.111      158.880      -36.169       63.650       90.944       42.676     4051.356     8270.893     1821.216        2.961        0.707      209.210       35.921        0.029      339.120       12.233      861.127
06/13/2013  04:56:00     -106.311      135.828      -22.832       57.092       92.064       46.520     3259.540     8475.855     2164.127        2.208        0.695      172.485       36.240        0.044      339.068       12.147      861.133
06/13/2013  04:57:00      -73.128       51.914       -7.417       55.409       75.476       42.734     3070.171     5696.593     1826.195        0.934        0.530       89.681       43.753        0.238      339.096       12.195      861.132
06/13/2013  04:58:00     -119.399      138.250      -13.776       66.709       75.133       44.753     4450.044     5644.932     2002.817        2.283        0.605      182.672       43.315        0.056      339.106       12.209      861.138
06/13/2013  04:59:00     -168.434       74.939      -17.470       78.046      110.608       39.705     6091.155    12234.226     1576.474        2.709        0.995      184.353       38.877        0.044      339.135       12.258      861.136
06/13/2013  05:00:00     -122.401      143.760      -17.042       98.830       77.197       56.602     9767.349     5959.404     3203.773        2.743        0.947      188.810       45.174        0.057      339.119       12.233      861.138
06/13/2013  05:01:00     -141.713      110.284       -2.016       61.183       85.317       54.673     3743.402     7279.035     2989.165        2.313        0.701      179.569       39.581        0.049      339.143       12.274      861.135
06/13/2013  05:02:00     -142.808       70.183      -31.978       36.244       55.389       28.330     1313.650     3067.947      802.611        1.576        0.259      159.122       15.816        0.010      339.158       12.299      861.133
06/13/2013  05:03:00      -77.211       69.471      -10.964       60.002       48.408       34.620     3600.232     2343.382     1198.554        0.902        0.357      103.864       34.233        0.109      339.113       12.224      861.135
06/13/2013  05:04:00      -60.899       71.881       -6.367       43.601       57.404       31.790     1901.047     3295.214     1010.606        0.756        0.310       94.211       29.268        0.097      339.044       12.108      861.141
06/13/2013  05:05:00      -90.185       64.655       -9.282       67.093       73.749       35.471     4501.471     5438.867     1258.170        1.180        0.560      110.966       34.178        0.095      339.090       12.185      861.147
06/13/2013  05:06:00      -59.505       71.809       -2.207       60.269       67.570       28.307     3632.306     4565.685      801.275        0.885        0.450       93.259       21.295        0.052      338.974       11.988      861.145
06/13/2013  05:07:00      -58.257        6.508       -8.666       37.621       21.488       13.280     1415.371      461.739      176.358        0.278        0.103       58.619        9.143        0.024      339.010       12.051      861.147
06/13/2013  05:08:00      -23.467       -6.875      -11.211       36.898       31.842       18.744     1361.450     1013.921      351.331        0.172        0.136       24.453       19.612        0.643      339.056       12.128      861.139
06/13/2013  05:09:00      -43.400       85.263        5.655       42.841       77.931       32.626     1835.386     6073.178     1064.455        0.908        0.449       95.673       28.989        0.092      339.002       12.037      861.132
06/13/2013  05:10:00       -8.409        1.629       12.164       28.906       30.702       16.651      835.536      942.629      277.262        0.114        0.103        8.566       11.160        1.697      338.934       11.922      861.139
06/13/2013  05:11:00      -54.110      -56.575       -3.847       55.068       40.561       24.712     3032.496     1645.159      610.661        0.571        0.264       78.286       19.025        0.059      338.782       11.666      861.147
06/13/2013  05:12:00      -71.268      -74.091       -9.094       39.133       32.458       18.503     1531.415     1053.520      342.353        0.679        0.146      102.803       12.067        0.014      338.617       11.390      861.167
06/13/2013  05:13:00        2.248      -28.564        9.822       32.790       31.110       22.425     1075.180      967.845      502.892        0.173        0.127       28.652       22.477        0.615      338.586       11.338      861.181
06/13/2013  05:14:00      -20.367      -28.192        4.327       40.360       29.962       17.076     1628.897      897.719      291.606        0.202        0.141       34.780       12.448        0.128      338.434       11.083      861.185
06/13/2013  05:15:00      -36.732      -19.920       -3.294       33.768       19.965       17.057     1140.275      398.594      290.958        0.179        0.091       41.785        9.352        0.050      338.365       10.967      861.200
06/13/2013  05:16:00      -39.185      -34.380       -5.455       24.075       16.601       11.203      579.608      275.609      125.511        0.186        0.049       52.129        4.216        0.007      338.395       11.018      861.203
06/13/2013  05:17:00      -30.343      -16.573        6.170       22.605       16.575       11.041      510.964      274.740      121.905        0.107        0.045       34.574       10.107        0.085      338.339       10.924      861.206
06/13/2013  05:18:00      -36.667      -18.447       -3.606       19.646       13.075        9.633      385.977      170.957       92.791        0.117        0.032       41.046        6.296        0.024      338.273       10.813      861.202
06/13/2013  05:19:00        5.232      -16.564       -2.477        7.063       15.304        6.615       49.885      234.204       43.755        0.032        0.016       17.370        6.960        0.161      338.275       10.815      861.210
06/13/2013  05:20:00       -1.448        9.478       30.475        9.886       15.317        9.124       97.742      234.595       83.255        0.072        0.021        9.588        6.273        0.428      338.093       10.511      861.211
06/13/2013  05:21:00        4.848        8.868       34.826       15.350       19.844       15.626      235.624      393.797      244.159        0.109        0.044       10.107       12.041        1.419      337.977       10.316      861.211
06/13/2013  05:22:00       59.112      -85.465      -18.569       27.049       26.847       18.433      731.672      720.782      339.779        0.647        0.090      103.915       18.801        0.033      338.119       10.555      861.220
06/13/2013  05:23:00       68.891     -119.331      -20.303       44.111       27.372       18.308     1945.815      749.221      335.175        1.121        0.152      137.789       19.525        0.020      338.331       10.910      861.226
06/13/2013  05:24:00       28.398     -104.183      -19.728       46.439       35.667       26.521     2156.605     1272.153      703.344        0.809        0.207      107.984       10.875        0.010      338.412       11.046      861.227
06/13/2013  05:25:00       -0.087      -82.535       -3.596       33.554       40.266       26.992     1125.839     1621.383      728.565        0.515        0.174       82.535       13.506        0.027      338.345       10.934      861.235
06/13/2013  05:26:00      -18.074      -25.252       -0.784       15.402       24.043       19.093      237.217      578.049      364.546        0.107        0.059       31.054       13.933        0.201      338.268       10.803      861.242
06/13/2013  05:27:00      -19.044      -22.078       11.664       19.397       24.761       11.028      376.244      613.107      121.618        0.105        0.056       29.157        7.881        0.073      338.251       10.777      861.248
06/13/2013  05:28:00       15.369        9.388       17.409       16.875       13.572       12.912      284.770      184.190      166.708        0.063        0.032       18.010       13.173        0.535      338.144       10.595      861.252
06/13/2013  05:29:00       30.996       -5.580       29.142       26.252       41.924       24.415      689.182     1757.605      596.095        0.244        0.152       31.495       28.938        0.844      338.309       10.872      861.258
06/13/2013  05:30:00       37.726      -61.368        4.314       29.818       32.811       18.516      889.131     1076.567      342.839        0.376        0.115       72.037       18.316        0.065      338.479       11.160      861.264
06/13/2013  05:31:00       22.381      -14.277       11.678       27.615       27.148       19.833      762.600      737.018      393.355        0.137        0.095       26.546       21.386        0.649      338.357       10.953      861.272
06/13/2013  05:32:00       16.545      -25.614       11.515       21.784       22.972       19.502      474.552      527.722      380.335        0.122        0.069       30.492       17.616        0.334      338.405       11.034      861.279
06/13/2013  05:33:00        1.767      -37.918        9.812       18.359       22.643       15.909      337.061      512.719      253.088        0.132        0.055       37.959       13.613        0.129      338.403       11.033      861.285
06/13/2013  05:34:00      -16.734      -34.527       -1.883       19.304       11.959        8.579      372.629      143.027       73.607        0.103        0.029       38.368        8.645        0.051      338.401       11.029      861.293
06/13/2013  05:35:00      -17.772      -38.949       -4.097       15.141       16.411       13.219      229.256      269.314      174.731        0.126        0.034       42.812        8.978        0.044      338.374       10.983      861.293
06/13/2013  05:36:00       -4.057       -7.174        4.781        9.243       17.608       11.343       85.439      310.038      128.663        0.031        0.026        8.242        5.878        0.509      338.213       10.713      861.303
06/13/2013  05:37:00       11.475       -5.673        9.087        9.987       13.492       12.023       99.736      182.029      144.559        0.034        0.021       12.801        8.343        0.425      338.233       10.745      861.307
06/13/2013  05:38:00        2.201       10.551       10.721       10.393        8.472        6.063      108.006       71.766       36.762        0.022        0.011       10.778        3.841        0.127      338.030       10.404      861.317
06/13/2013  05:39:00        7.372       22.976       -4.340       17.859       13.481        7.483      318.938      181.749       56.000        0.058        0.028       24.130        4.347        0.032      338.188       10.670      861.319
06/13/2013  05:40:00       22.872       17.522       -1.948       11.269       11.114       10.578      126.998      123.525      111.892        0.060        0.018       28.813        4.580        0.025      338.225       10.731      861.314
06/13/2013  05:41:00       -8.177      -17.873       -1.855       22.591       15.253       10.282      510.352      232.657      105.729        0.062        0.042       19.655        8.887        0.204      338.309       10.873      861.308
06/13/2013  05:42:00        4.766      -16.493        1.646       19.860       11.399       11.683      394.423      129.933      136.482        0.048        0.033       17.168        4.539        0.070      338.343       10.930      861.317
06/13/2013  05:43:00      -20.122       -7.548        3.159       21.138       30.482       15.259      446.819      929.146      232.840        0.104        0.080       21.491       15.052        0.491      338.338       10.921      861.332
06/13/2013  05:44:00      -35.657       50.357        1.436       22.880       24.498       17.582      523.504      600.160      309.134        0.262        0.072       61.703       16.352        0.070      338.151       10.607      861.349
06/13/2013  05:45:00      -28.147       -7.635        6.410       23.243       33.008       12.452      540.240     1089.499      155.060        0.134        0.089       29.164        4.041        0.019      338.196       10.682      861.359
06/13/2013  05:46:00      -66.943      -41.601        1.066       29.311       19.965       13.470      859.160      398.612      181.443        0.383        0.072       78.816       14.315        0.033      338.126       10.567      861.367
06/13/2013  05:47:00      -50.325      -35.953        7.459       40.282       24.486       22.983     1622.650      599.557      528.203        0.332        0.138       61.848       21.999        0.127      338.082       10.491      861.377
06/13/2013  05:48:00      -53.897      -52.955        5.485       47.033       25.611       21.950     2212.103      655.908      481.801        0.454        0.167       75.559       20.143        0.071      338.070       10.473      861.387
06/13/2013  05:49:00     -104.943      -66.480       -3.408       24.219       34.515       19.341      586.547     1191.274      374.072        0.880        0.108      124.228       14.090        0.013      338.083       10.494      861.403
06/13/2013  05:50:00     -108.684      -41.749       -5.906       24.408       20.740       11.174      595.758      430.132      124.853        0.737        0.058      116.427        6.444        0.003      338.066       10.468      861.418
06/13/2013  05:51:00      -58.834      -46.821       -2.747       34.046       18.358       14.259     1159.122      337.013      203.312        0.368        0.085       75.190        5.608        0.006      338.092       10.508      861.425
06/13/2013  05:52:00       -8.712      -32.549        8.799       20.712       26.790       17.719      428.978      717.679      313.980        0.134        0.073       33.695       13.049        0.150      338.159       10.620      861.423
06/13/2013  05:53:00      -17.427      -28.852        5.519       16.481       16.503        9.711      271.622      272.349       94.305        0.090        0.032       33.707       10.815        0.103      338.135       10.581      861.419
06/13/2013  05:54:00      -22.500      -33.406        4.107       23.822       13.481       15.277      567.492      181.747      233.402        0.131        0.049       40.277       15.441        0.147      338.158       10.619      861.425
06/13/2013  05:55:00      -20.957      -35.880        7.141       33.232       26.019       17.777     1104.379      676.968      316.015        0.194        0.105       41.552       15.488        0.139      338.211       10.709      861.435
06/13/2013  05:56:00      -77.842      -69.752       -4.399       52.591       47.590       26.567     2765.821     2264.815      705.830        0.834        0.287      104.521       27.606        0.070      337.958       10.284      861.435
06/13/2013  05:57:00      -28.967      -42.282        5.323       48.231       36.285       26.080     2326.187     1316.587      680.184        0.349        0.216       51.253       17.401        0.115      337.995       10.346      861.450
06/13/2013  05:58:00      -54.857      -49.013        2.972       68.226       35.416       29.823     4654.772     1254.318      889.403        0.611        0.340       73.563       23.852        0.105      337.892       10.174      861.459
06/13/2013  05:59:00      -90.236      -54.838       -0.476       58.579       38.471       28.779     3431.506     1480.035      828.226        0.844        0.287      105.592       26.626        0.064      337.859       10.117      861.466
06/13/2013  06:00:00     -137.012     -116.311      -12.314       40.193       31.718       22.243     1615.466     1006.005      494.752        1.778        0.156      179.723       12.196        0.005      337.741        9.920      861.480
06/13/2013  06:01:00     -101.631      -88.836       -2.940       45.717       26.638       18.807     2090.029      709.598      353.689        1.069        0.158      134.985       17.836        0.017      337.750        9.935      861.499
06/13/2013  06:02:00      -55.665      -73.773        0.342       43.156       40.261       30.318     1862.456     1620.971      919.191        0.647        0.220       92.418       29.959        0.105      337.788        9.999      861.507
06/13/2013  06:03:00     -107.759      -68.775       -8.847       35.790       29.193       18.478     1280.903      852.252      341.436        0.945        0.124      127.836       17.723        0.019      337.799       10.018      861.513
06/13/2013  06:04:00      -86.000      -73.573        1.477       48.058       40.309       24.247     2309.610     1624.803      587.934        0.867        0.226      113.177       30.167        0.071      337.876       10.146      861.520
06/13/2013  06:05:00      -92.655      -83.962       -4.731       45.793       32.060       24.467     2096.982     1027.837      598.654        0.969        0.186      125.038       27.235        0.047      337.868       10.133      861.512
06/13/2013  06:06:00      -81.867      -79.847        0.409       34.565       37.374       27.531     1194.744     1396.833      757.955        0.821        0.167      114.358       23.968        0.044      337.830       10.068      861.519
06/13/2013  06:07:00      -86.912      -59.527       -2.050       59.339       37.223       26.360     3521.148     1385.556      694.853        0.835        0.280      105.343       32.638        0.096      337.890       10.168      861.513
06/13/2013  06:08:00      -86.411      -68.196        4.126       45.584       56.925       22.740     2077.933     3240.500      517.088        0.898        0.292      110.080       24.719        0.050      337.850       10.102      861.510
06/13/2013  06:09:00     -138.735     -136.023      -11.903       49.233       38.294       34.405     2423.924     1466.426     1183.705        2.148        0.254      194.293       28.767        0.022      337.764        9.958      861.523
06/13/2013  06:10:00     -136.273     -117.677       -4.506       51.287       43.884       28.231     2630.361     1925.815      797.001        1.889        0.268      180.050       22.964        0.016      337.782        9.987      861.530
06/13/2013  06:11:00     -131.588      -89.709       -1.992       53.762       34.411       26.209     2890.381     1184.086      686.907        1.506        0.238      159.259       27.879        0.031      337.718        9.881      861.538
06/13/2013  06:12:00     -142.216      -83.451       -8.169       29.351       40.316       22.797      861.471     1625.397      519.705        1.513        0.150      164.892       18.112        0.012      337.724        9.891      861.546
06/13/2013  06:13:00     -130.829      -94.308       -6.211       36.185       27.936       24.571     1309.345      780.424      603.755        1.437        0.135      161.277       17.128        0.011      337.750        9.934      861.537
06/13/2013  06:14:00      -87.992      -80.603       -0.192       43.318       35.275       28.879     1876.490     1244.334      834.002        0.910        0.198      119.329       26.495        0.049      337.803       10.025      861.549
06/13/2013  06:15:00      -85.065      -72.587       -1.263       48.715       28.283       24.117     2373.132      799.915      581.645        0.813        0.188      111.825       28.620        0.066      337.785        9.994      861.558
06/13/2013  06:16:00      -82.067      -44.717       -8.509       44.915       41.901       22.452     2017.385     1755.662      504.095        0.654        0.214       93.459       17.880        0.037      337.804       10.025      861.567
06/13/2013  06:17:00      -65.851      -32.906        0.065       42.307       29.862       25.663     1789.847      891.714      658.570        0.438        0.167       73.615       24.364        0.110      337.939       10.253      861.573
06/13/2013  06:18:00     -101.326      -42.476       -8.033       16.290       17.527       11.770      265.367      307.199      138.530        0.642        0.036      109.869        7.571        0.005      337.859       10.118      861.576
06/13/2013  06:19:00      -89.809      -42.484       -9.116       18.000       15.721       12.557      324.006      247.165      157.677        0.534        0.036       99.351        2.865        0.001      337.876       10.147      861.571
06/13/2013  06:20:00      -72.187      -29.236       -8.838       20.123       17.319       12.967      404.929      299.941      168.143        0.351        0.044       77.882        8.515        0.012      337.894       10.176      861.578
06/13/2013  06:21:00      -62.808      -47.792        1.172       25.608       19.396       14.960      655.769      376.215      223.789        0.374        0.063       78.924       12.352        0.024      337.917       10.215      861.581
06/13/2013  06:22:00      -76.135      -46.733       -3.570       20.815       15.476       13.538      433.245      239.499      183.270        0.442        0.043       89.333       12.106        0.018      337.960       10.287      861.580
06/13/2013  06:23:00       -2.191      -24.671        8.754       24.580       24.519       23.733      604.182      601.161      563.277        0.123        0.088       24.768       18.162        0.538      338.059       10.453      861.590
06/13/2013  06:24:00      -52.884      -50.217        2.574       43.800       24.485       20.200     1918.409      599.528      408.047        0.412        0.146       72.928       20.606        0.080      337.911       10.205      861.597
06/13/2013  06:25:00      -24.867      -50.566        6.336       22.855       23.936       20.968      522.343      572.955      439.649        0.237        0.077       56.349       15.773        0.078      337.886       10.163      861.587
06/13/2013  06:26:00      -29.956      -39.901        5.117       27.734       23.525       16.336      769.181      553.419      266.854        0.205        0.079       49.895       16.290        0.107      337.915       10.212      861.584
06/13/2013  06:27:00      -22.640      -21.048        8.998       22.182       15.594       15.230      492.044      243.181      231.958        0.100        0.048       30.912       13.663        0.195      338.105       10.532      861.582
06/13/2013  06:28:00      -64.286      -28.389        1.674       15.841       18.081       13.000      250.936      326.928      169.011        0.284        0.037       70.275        9.430        0.018      337.938       10.250      861.586
06/13/2013  06:29:00      -63.174      -35.838       -0.680       30.123       16.563       15.936      907.371      274.329      253.961        0.336        0.072       72.631        4.655        0.004      338.090       10.506      861.586
06/13/2013  06:30:00      -45.462      -19.668       -4.607       17.997       12.121       11.229      323.896      146.922      126.086        0.154        0.030       49.534        9.409        0.036      338.004       10.360      861.588
06/13/2013  06:31:00      -42.884      -29.854       -5.294       17.332       20.866       12.781      300.390      435.404      163.345        0.183        0.045       52.253        7.801        0.022      338.088       10.502      861.592
06/13/2013  06:32:00      -53.139      -21.312       -1.514       24.340       26.061       14.045      592.440      679.172      197.276        0.237        0.073       57.253       14.356        0.063      338.093       10.510      861.596
06/13/2013  06:33:00      -43.473      -42.480        0.165       25.832       23.056       18.130      667.295      531.590      328.692        0.261        0.076       60.782       14.661        0.058      338.045       10.431      861.606
06/13/2013  06:34:00      -38.205      -70.185       -2.486       33.638       25.227       21.167     1131.515      636.382      448.041        0.430        0.111       79.910       20.293        0.064      337.995       10.348      861.609
06/13/2013  06:35:00      -68.723      -72.324        0.131       34.259       23.601       15.163     1173.696      556.992      229.921        0.596        0.098       99.768       15.129        0.023      337.956       10.280      861.610
06/13/2013  06:36:00      -43.005      -30.858        1.060       13.734       11.938       11.625      188.623      142.522      135.149        0.163        0.023       52.930        8.418        0.025      337.981       10.323      861.611
06/13/2013  06:37:00      -66.575      -36.936       -6.348       20.078       13.404       12.368      403.112      179.670      152.958        0.329        0.037       76.135        7.612        0.010      338.087       10.500      861.607
06/13/2013  06:38:00      -49.533      -48.827        4.974       42.576       33.182       22.247     1812.749     1101.020      494.941        0.413        0.170       69.553       21.402        0.095      338.102       10.526      861.618
06/13/2013  06:39:00      -73.032     -102.200       -6.610       38.027       38.554       20.835     1446.084     1486.403      434.107        0.959        0.168      125.613       24.359        0.038      337.942       10.256      861.610
06/13/2013  06:40:00      -51.337      -91.942       -5.063       39.096       34.062       18.363     1528.525     1160.196      337.189        0.707        0.151      105.303       17.459        0.027      338.001       10.357      861.611
06/13/2013  06:41:00      -55.808      -45.905        1.000       32.458       36.847       20.502     1053.514     1357.694      420.341        0.403        0.142       72.262       18.575        0.066      338.060       10.454      861.601
06/13/2013  06:42:00      -30.551      -33.124        9.796       38.181       31.428       20.610     1457.811      987.747      424.763        0.250        0.144       45.062       21.175        0.221      338.265       10.799      861.597
06/13/2013  06:43:00      -43.609      -40.328        7.923       35.527       24.855       20.935     1262.133      617.783      438.275        0.295        0.116       59.397       21.231        0.128      338.170       10.639      861.605
06/13/2013  06:44:00      -48.372      -40.977        8.457       45.845       27.702       18.842     2101.803      767.393      355.006        0.366        0.161       63.395       17.461        0.076      338.112       10.544      861.603
06/13/2013  06:45:00      -51.855      -37.738        8.391       36.415       29.496       16.791     1326.022      870.036      281.952        0.333        0.124       64.133       20.240        0.100      338.215       10.716      861.603
06/13/2013  06:46:00      -29.206      -46.830        6.554       22.291       27.574       16.673      496.907      760.320      277.993        0.231        0.077       55.191       15.109        0.075      338.161       10.624      861.607
06/13/2013  06:47:00      -19.991      -52.241        5.672       16.761       25.474       18.457      280.916      648.928      340.667        0.222        0.064       55.935       14.190        0.064      338.224       10.731      861.602
06/13/2013  06:48:00      -24.939       -8.134       10.082       22.261       20.409       14.527      495.568      416.547      211.029        0.096        0.056       26.232       14.235        0.294      338.491       11.178      861.610
06/13/2013  06:49:00      -29.339       -5.449        4.351       23.411       15.630       15.068      548.054      244.298      227.044        0.096        0.051       29.841       12.817        0.184      338.446       11.103      861.612
06/13/2013  06:50:00      -18.648      -26.791       11.365       21.756       24.691       14.824      473.302      609.643      219.744        0.125        0.065       32.642       13.245        0.165      338.644       11.436      861.616
06/13/2013  06:51:00      -24.616       -1.929        7.961       12.546       17.918       14.952      157.409      321.048      223.555        0.069        0.035       24.691       10.537        0.182      338.532       11.247      861.619
06/13/2013  06:52:00      -16.451      -18.675        5.243       23.630       18.535       15.852      558.388      343.547      251.296        0.090        0.058       24.888       18.608        0.559      338.704       11.535      861.626
06/13/2013  06:53:00      -15.404       -6.184        9.847       16.665       15.743       15.966      277.711      247.855      254.916        0.058        0.039       16.599       12.210        0.541      338.939       11.932      861.633
06/13/2013  06:54:00      -15.621      -11.167       14.308       20.655       18.665       11.202      426.626      348.381      125.496        0.074        0.045       19.202       11.892        0.384      338.818       11.728      861.647
06/13/2013  06:55:00      -20.710      -40.059        2.025       26.004       29.495       18.269      676.220      869.950      333.760        0.196        0.094       45.096       10.447        0.054      338.621       11.398      861.651
06/13/2013  06:56:00      -20.823      -15.490       10.861       36.613       21.287       20.742     1340.498      453.117      430.210        0.151        0.111       25.952       20.116        0.601      338.779       11.664      861.658
06/13/2013  06:57:00      -55.930      -38.060        3.663       38.505       25.362       22.251     1482.670      643.227      495.128        0.361        0.131       67.652       17.034        0.063      338.537       11.257      861.669
06/13/2013  06:58:00      -43.488      -21.447       12.460       39.122       28.960       18.361     1530.562      838.664      337.121        0.261        0.135       48.489       20.756        0.183      338.822       11.736      861.672
06/13/2013  06:59:00      -31.854       -7.752       13.267       24.725       22.489       17.270      611.346      505.772      298.240        0.133        0.071       32.784       15.911        0.236      338.927       11.911      861.669
06/13/2013  07:00:00      -39.658      -12.857        3.291       20.065       23.077       15.921      402.616      532.547      253.462        0.147        0.059       41.691       14.849        0.127      338.488       11.173      861.668
06/13/2013  07:01:00      -23.983      -36.924       -4.476       18.269       23.113       17.527      333.754      534.216      307.180        0.157        0.059       44.029       15.215        0.119      338.627       11.407      861.682
06/13/2013  07:02:00      -30.268      -26.740       -0.416       17.566       16.880       17.096      308.554      284.948      292.265        0.126        0.044       40.388       11.817        0.086      338.648       11.442      861.684
06/13/2013  07:03:00      -23.863      -19.713       -0.980       19.961       24.121       15.210      398.442      581.838      231.345        0.109        0.061       30.952       11.833        0.146      338.666       11.472      861.689
06/13/2013  07:04:00       22.519      -10.914       31.581       36.509       37.247       27.705     1332.929     1387.363      767.575        0.256        0.174       25.024       28.658        1.312      339.124       12.242      861.677
06/13/2013  07:05:00       -3.084      -53.758        0.413       34.966       48.373       20.339     1222.630     2339.934      413.665        0.344        0.199       53.847       11.382        0.045      338.858       11.793      861.671
06/13/2013  07:06:00      -13.950        3.087       21.358       20.786       18.592       16.576      432.039      345.651      274.758        0.086        0.053       14.287       13.647        0.912      339.421       12.743      861.669
06/13/2013  07:07:00        5.697       -5.274       25.124       24.925       21.470       15.554      621.264      460.976      241.936        0.101        0.066        7.763       14.438        3.459      339.376       12.667      861.673
06/13/2013  07:08:00       -9.386      -60.517       -0.657       38.740       37.276       28.750     1500.805     1389.494      826.551        0.373        0.186       61.241        9.813        0.026      338.892       11.851      861.681
06/13/2013  07:09:00       49.250      -76.469        3.520       45.651       39.328       32.530     2084.024     1546.690     1058.208        0.649        0.234       90.957       22.582        0.062      339.032       12.088      861.677
06/13/2013  07:10:00       24.492      -81.909       12.725       31.632       47.654       35.258     1000.606     2270.906     1243.153        0.599        0.226       85.492       24.621        0.083      339.206       12.381      861.678
06/13/2013  07:11:00        3.029      -29.908       22.157       26.724       35.524       26.523      714.160     1261.989      703.450        0.204        0.134       30.061       20.894        0.483      339.665       13.156      861.688
06/13/2013  07:12:00       -5.597      -15.652       17.632       17.499       22.801       16.394      306.207      519.901      268.770        0.084        0.055       16.623       11.441        0.474      339.483       12.848      861.688
06/13/2013  07:13:00      -11.694      -12.414       25.311       12.770       20.509       17.145      163.069      420.639      293.938        0.090        0.044       17.054       13.791        0.654      339.734       13.272      861.692
06/13/2013  07:14:00      -14.138       -7.675       26.904       19.903       46.155       31.488      396.112     2130.290      991.486        0.225        0.176       16.087       36.178        5.058      339.290       12.522      861.695
06/13/2013  07:15:00       12.308      -62.348        7.659       23.599       32.845       29.210      556.900     1078.800      853.253        0.329        0.124       63.551       24.917        0.154      339.310       12.558      861.692
06/13/2013  07:16:00       11.400      -53.726        6.967       37.353       61.246       36.924     1395.263     3751.057     1363.361        0.479        0.325       54.922       31.765        0.334      339.288       12.520      861.681
06/13/2013  07:17:00       -3.001      -18.548       28.087       19.525       36.262       32.168      381.242     1314.942     1034.757        0.194        0.137       18.789       11.957        0.405      339.613       13.067      861.687
06/13/2013  07:18:00        7.769      -38.856        0.765       23.949       36.303       27.437      573.547     1317.922      752.766        0.211        0.132       39.625       23.879        0.363      339.513       12.899      861.703
06/13/2013  07:19:00      -29.050      -13.567       14.631       39.380       20.436       18.392     1550.806      417.613      338.276        0.177        0.115       32.062       18.469        0.332      339.438       12.772      861.722
06/13/2013  07:20:00       -4.242      -17.462       14.396       33.946       31.752       23.274     1152.305     1008.213      541.695        0.162        0.135       17.970       19.308        1.154      339.561       12.979      861.737
06/13/2013  07:21:00       -3.580      -60.405       10.476       31.203       38.866       44.748      973.648     1510.593     2002.359        0.413        0.224       60.511       30.484        0.254      339.404       12.715      861.733
06/13/2013  07:22:00        3.987       -2.144       42.768       17.831       37.374       22.862      317.949     1396.792      522.674        0.204        0.112        4.526       16.046       12.566      339.835       13.441      861.730
06/13/2013  07:23:00       -8.104      -38.442       20.632       24.396       35.397       25.278      595.181     1252.955      638.971        0.223        0.124       39.287       22.741        0.335      339.625       13.087      861.739
06/13/2013  07:24:00      -11.061      -28.839        7.523       32.364       40.279       29.810     1047.451     1622.419      888.632        0.228        0.178       30.888       21.740        0.495      339.593       13.034      861.748
06/13/2013  07:25:00      -35.681        5.204        9.163       19.264       30.165       27.132      371.106      909.937      736.134        0.170        0.101       36.059       22.385        0.385      339.376       12.665      861.760
06/13/2013  07:26:00        1.129        5.950       37.138       39.404       42.417       30.058     1552.639     1799.229      903.479        0.283        0.213        6.056       21.098       12.136      339.821       13.417      861.756
06/13/2013  07:27:00       10.023       51.627       83.161       45.032       50.194       42.863     2027.897     2519.422     1837.236        0.803        0.319       52.591       41.027        0.609      339.631       13.097      861.746
06/13/2013  07:28:00       44.291       -2.306       63.169       44.029       48.851       43.960     1938.541     2386.439     1932.502        0.611        0.313       44.351       32.430        0.535      339.691       13.198      861.751
06/13/2013  07:29:00      -27.731      -17.230       27.642       28.160       41.870       24.205      792.958     1753.129      585.870        0.248        0.157       32.648       23.729        0.528      339.613       13.067      861.753
06/13/2013  07:30:00        6.847      -13.335       18.803       37.757       36.325       28.928     1425.615     1319.500      836.855        0.208        0.179       14.990       33.801        5.085      339.842       13.453      861.760
06/13/2013  07:31:00       40.328      -11.894       27.586       28.855       29.208       27.422      832.598      853.120      751.945        0.248        0.122       42.045       20.504        0.238      339.632       13.098      861.766
06/13/2013  07:32:00       -9.908        9.001       46.399       21.142       36.947       28.764      446.983     1365.077      827.359        0.249        0.132       13.386       21.250        2.520      339.923       13.590      861.759
06/13/2013  07:33:00       34.223       15.594       47.495       37.339       40.735       33.240     1394.227     1659.374     1104.903        0.391        0.208       37.608       29.233        0.604      339.564       12.983      861.767
06/13/2013  07:34:00       76.407       25.587       34.426       36.991       39.104       29.919     1368.318     1529.111      895.158        0.573        0.190       80.577       26.722        0.110      339.435       12.766      861.772
06/13/2013  07:35:00       17.330       10.487       44.200       40.827       66.979       33.339     1666.838     4486.134     1111.473        0.481        0.363       20.256       30.522        2.271      339.975       13.677      861.777
06/13/2013  07:36:00       -3.370       53.855       92.435       19.402       44.955       23.116      376.422     2020.940      534.350        0.719        0.147       53.960       27.899        0.267      339.800       13.382      861.780
06/13/2013  07:37:00       -3.650      -17.593       38.706       16.371       40.942       33.025      268.009     1676.223     1090.659        0.243        0.152       17.968       32.036        3.179      339.950       13.635      861.795
06/13/2013  07:38:00      -10.002      -14.196       19.331       31.329       26.018       22.206      981.527      676.942      493.107        0.141        0.108       17.366       17.997        1.074      339.860       13.483      861.807
06/13/2013  07:39:00       -4.481       12.756       46.057       10.348       19.058       16.241      107.071      363.202      263.757        0.152        0.037       13.520       12.899        0.910      340.327       14.271      861.817
06/13/2013  07:40:00       -4.272       29.848       64.550       38.480       45.946       30.476     1480.716     2111.015      928.761        0.480        0.226       30.153       31.418        1.086      340.256       14.152      861.811
06/13/2013  07:41:00       95.402      100.033       64.936       48.862       32.296       45.627     2387.472     1043.044     2081.851        1.442        0.276      138.232       36.396        0.069      339.413       12.729      861.822
06/13/2013  07:42:00       34.618       31.873       32.280       28.727       33.038       29.984      825.267     1091.521      899.043        0.304        0.141       47.056       23.669        0.253      339.741       13.283      861.830
06/13/2013  07:43:00        5.839      -57.512        6.776       22.876       32.260       25.161      523.322     1040.693      633.086        0.279        0.110       57.808       14.527        0.063      339.917       13.580      861.842
06/13/2013  07:44:00      -14.577      -22.780       11.261       22.544       27.758       24.217      508.252      770.484      586.445        0.136        0.093       27.045       18.822        0.484      340.204       14.063      861.854
06/13/2013  07:45:00       -2.138       10.384       34.233       23.175       16.508       16.681      537.062      272.515      278.248        0.119        0.054       10.602       14.276        1.813      340.329       14.275      861.866
06/13/2013  07:46:00        6.608       40.580       65.883       25.502       36.309       22.009      650.352     1318.335      484.400        0.424        0.123       41.115       23.922        0.339      340.235       14.117      861.864
06/13/2013  07:47:00       24.593       41.082       31.820       36.634       25.795       27.706     1342.071      665.357      767.643        0.304        0.139       47.880       18.771        0.154      340.005       13.727      861.848
06/13/2013  07:48:00       36.474       40.977       62.511       40.859       37.077       20.336     1669.459     1374.685      413.538        0.519        0.173       54.858       15.355        0.078      340.195       14.049      861.852
06/13/2013  07:49:00       57.400       70.140       65.965       32.503       32.068       21.975     1056.470     1028.365      482.889        0.757        0.128       90.633       10.230        0.013      339.798       13.378      861.842
06/13/2013  07:50:00       39.726       50.305       61.126       43.837       27.729       19.386     1921.716      768.912      375.808        0.546        0.153       64.099        9.619        0.023      340.150       13.972      861.855
06/13/2013  07:51:00       82.191       77.483       59.608       41.673       21.979       29.756     1736.669      483.095      885.438        0.971        0.155      112.955       25.454        0.051      339.761       13.316      861.859
06/13/2013  07:52:00       56.257       34.519       17.906       42.759       29.315       40.131     1828.296      859.360     1610.498        0.449        0.215       66.003       23.162        0.123      339.841       13.451      861.863
06/13/2013  07:53:00       21.072      -20.886        2.170       26.908       47.997       23.471      724.027     2303.734      550.872        0.223        0.179       29.669       22.812        0.591      340.134       13.945      861.872
06/13/2013  07:54:00       53.195      -84.256      -15.143       39.168       32.347       32.222     1534.124     1046.328     1038.281        0.689        0.181       99.643       20.612        0.043      340.058       13.817      861.871
06/13/2013  07:55:00       15.300       16.289       43.970       28.090       28.383       23.011      789.037      805.605      529.509        0.228        0.106       22.348        6.236        0.078      340.500       14.564      861.869
06/13/2013  07:56:00        3.974       28.697       49.173       29.978       28.864       30.379      898.708      833.117      922.891        0.296        0.133       28.971       19.984        0.476      340.513       14.586      861.863
06/13/2013  07:57:00       26.413        7.186       49.877       41.246       54.840       35.000     1701.226     3007.429     1225.025        0.458        0.297       27.373       35.297        1.663      340.347       14.306      861.849
06/13/2013  07:58:00       28.098       42.971       51.465       44.996       38.785       34.127     2024.661     1504.276     1164.658        0.499        0.235       51.342       23.051        0.202      340.432       14.449      861.855
06/13/2013  07:59:00       23.348       27.274       70.733       46.634       72.757       54.781     2174.738     5293.541     3000.971        0.838        0.523       35.903       57.281        2.545      340.152       13.977      861.875
06/13/2013  08:00:00       35.761       11.172       60.436       46.314       60.673       46.167     2145.029     3681.263     2131.407        0.651        0.398       37.465       46.840        1.563      340.232       14.111      861.879
06/13/2013  08:01:00        5.342       22.286       56.646       31.053       38.423       24.558      964.319     1476.313      603.120        0.339        0.152       22.917       23.244        1.029      340.787       15.049      861.890
06/13/2013  08:02:00       -5.361       15.874       65.394       13.851       39.285       16.132      191.854     1543.277      260.229        0.328        0.100       16.754       17.696        1.116      340.773       15.026      861.896
06/13/2013  08:03:00        6.211       12.609       47.853       25.158       42.341       31.119      632.905     1792.762      968.362        0.294        0.170       14.055       25.619        3.322      340.722       14.939      861.898
06/13/2013  08:04:00       46.598      -21.213       23.536       43.846       75.587       45.137     1922.444     5713.376     2037.365        0.642        0.484       51.200       44.618        0.759      340.604       14.740      861.911
06/13/2013  08:05:00       31.064       30.220       66.667       45.189       43.216       25.029     2042.006     1867.624      626.427        0.543        0.227       43.339       19.440        0.201      340.493       14.552      861.919
06/13/2013  08:06:00       18.898       39.236       61.336       29.490       36.444       20.810      869.665     1328.129      433.064        0.414        0.132       43.550       17.737        0.166      340.565       14.674      861.929
06/13/2013  08:07:00       82.655       51.374       48.128       75.942       37.333       44.930     5767.179     1393.754     2018.706        1.048        0.459       97.320       46.881        0.232      340.102       13.891      861.935
06/13/2013  08:08:00       30.337       38.759       46.343       45.049       46.312       31.906     2029.391     2144.771     1018.019        0.488        0.260       49.220       26.922        0.299      340.493       14.552      861.940
06/13/2013  08:09:00       30.650       11.517       42.581       49.233       77.747       50.067     2423.857     6044.528     2506.709        0.693        0.549       32.743       59.022        3.249      340.757       14.999      861.960
06/13/2013  08:10:00       66.091      -90.311      -11.690       37.960       62.690       44.244     1440.955     3930.033     1957.488        0.999        0.366      111.911       39.474        0.124      340.480       14.529      861.974
06/13/2013  08:11:00       32.154        0.097       35.728       39.473       48.940       31.358     1558.101     2395.145      983.332        0.362        0.247       32.154       32.270        1.007      340.589       14.714      862.000
06/13/2013  08:12:00       11.235       -0.285       20.419       22.007       44.543       28.769      484.309     1984.051      827.670        0.192        0.165       11.239       11.753        1.094      340.737       14.967      862.013
06/13/2013  08:13:00       14.894       48.586        2.905       26.449       28.422       25.509      699.537      807.782      650.684        0.237        0.108       50.817       15.085        0.088      340.478       14.527      862.013
06/13/2013  08:14:00       22.774       71.444       -9.678       19.662       20.171       18.582      386.600      406.863      345.285        0.343        0.057       74.986        9.954        0.018      340.270       14.174      862.011
06/13/2013  08:15:00       33.874       42.509        9.393       38.461       33.563       31.941     1479.242     1126.503     1020.198        0.333        0.181       54.355       19.554        0.129      340.851       15.157      862.007
06/13/2013  08:16:00       22.671       70.432       97.773       58.621       70.484       61.289     3436.457     4968.006     3756.293        1.360        0.608       73.991       51.522        0.485      340.776       15.029      862.006
06/13/2013  08:17:00       81.136      -34.604       36.394       68.846       82.738       62.475     4739.809     6845.574     3903.143        1.229        0.774       88.207       63.155        0.513      340.717       14.930      862.005
06/13/2013  08:18:00       30.680       53.910       90.908       47.463       64.881       37.274     2252.719     4209.525     1389.378        0.998        0.393       62.029       41.202        0.441      340.554       14.654      862.017
06/13/2013  08:19:00       44.618      -56.913       24.137       53.597       84.336       56.312     2872.611     7112.619     3171.017        0.948        0.658       72.318       60.992        0.711      340.693       14.890      862.012
06/13/2013  08:20:00       39.012       10.440       32.094       61.224       60.707       49.102     3748.329     3685.368     2410.985        0.625        0.492       40.385       54.360        1.812      340.721       14.937      862.029
06/13/2013  08:21:00       14.555      -48.943       14.091       25.672       44.675       26.906      659.075     1995.892      723.917        0.309        0.169       51.061       26.434        0.268      340.673       14.856      862.044
06/13/2013  08:22:00       18.605        4.091       31.416       27.100       39.420       29.701      734.391     1553.933      882.120        0.226        0.159       19.050       30.708        2.598      341.068       15.525      862.058
06/13/2013  08:23:00       62.618      -95.468        4.826       56.756       56.579       34.998     3221.210     3201.220     1224.890        1.035        0.382      114.171       22.149        0.038      340.704       14.910      862.066
06/13/2013  08:24:00       50.567       -9.593       33.022       51.070       72.800       41.332     2608.192     5299.798     1708.317        0.668        0.481       51.469       41.242        0.642      340.817       15.100      862.063
06/13/2013  08:25:00       43.450       47.803       13.912       42.302       41.386       34.600     1789.465     1712.817     1197.178        0.453        0.235       64.599       26.655        0.170      340.608       14.746      862.069
06/13/2013  08:26:00       13.278        6.075       46.352       31.810       45.223       24.589     1011.891     2045.106      604.620        0.301        0.183       14.602       18.224        1.558      341.225       15.791      862.068
06/13/2013  08:27:00       17.956       10.012       61.789       45.080       55.121       26.607     2032.210     3038.337      707.926        0.501        0.289       20.559       15.853        0.595      341.253       15.836      862.077
06/13/2013  08:28:00       93.624       73.966       53.189       47.598       38.156       42.686     2265.571     1455.914     1822.122        1.130        0.277      119.317       33.011        0.077      340.480       14.530      862.092
06/13/2013  08:29:00       30.446       54.331       69.493       45.352       36.770       30.447     2056.841     1352.033      927.012        0.652        0.217       62.280       18.033        0.084      340.725       14.945      862.096
06/13/2013  08:30:00       69.655       65.601       49.933       50.995       41.440       37.540     2600.468     1717.234     1409.259        0.869        0.286       95.683       28.132        0.086      340.489       14.545      862.098
06/13/2013  08:31:00       48.237       30.922       60.781       56.558       51.877       32.011     3198.808     2691.267     1024.696        0.694        0.346       57.297       31.871        0.309      340.748       14.982      862.108
06/13/2013  08:32:00       30.753       42.297       59.745       38.502       45.390       38.134     1482.388     2060.229     1454.215        0.565        0.250       52.295       22.895        0.192      340.766       15.013      862.106
06/13/2013  08:33:00       55.044       92.822       87.328       86.622       62.718       51.494     7503.403     3933.501     2651.660        1.668        0.704      107.915       39.866        0.136      340.764       15.009      862.100
06/13/2013  08:34:00      104.897      121.145      122.473       65.129       55.180       49.107     4241.726     3044.794     2411.532        2.519        0.485      160.248       39.159        0.060      340.465       14.504      862.103
06/13/2013  08:35:00       74.329      107.810      103.809       59.956       47.993       37.302     3594.740     2303.318     1391.458        1.761        0.364      130.950       26.538        0.041      340.469       14.510      862.114
06/13/2013  08:36:00      109.365       81.723       32.726       62.961       54.180       54.174     3964.037     2935.494     2934.834        1.477        0.492      136.526       41.596        0.093      340.680       14.867      862.103
06/13/2013  08:37:00       18.758       -6.807       44.963       38.962       88.007       37.798     1518.071     7745.296     1428.711        0.655        0.535       19.955       43.022        4.648      341.171       15.698      862.107
06/13/2013  08:38:00       92.825       81.289       79.166       70.228       46.154       51.668     4931.916     2130.234     2669.609        1.561        0.487      123.387       49.335        0.160      340.861       15.172      862.096
06/13/2013  08:39:00       71.952       57.502       63.107       63.674       43.959       52.090     4054.385     1932.371     2713.407        1.058        0.435       92.107       44.648        0.235      340.808       15.084      862.103
06/13/2013  08:40:00       40.140       41.266       74.210       59.298       69.890       41.560     3516.267     4884.623     1727.244        0.947        0.506       57.568       43.034        0.559      340.925       15.283      862.087
06/13/2013  08:41:00      144.009      107.546       53.548      108.268       68.719       61.064    11721.906     4722.237     3728.837        2.767        1.009      179.735       61.468        0.117      340.841       15.136      862.073
06/13/2013  08:42:00      160.011       67.096        4.810       74.324       76.739       45.514     5523.995     5888.798     2071.557        2.180        0.674      173.509       36.630        0.045      341.022       15.444      862.059
06/13/2013  08:43:00      215.956      131.372       33.771       69.160       49.056       55.262     4783.157     2406.476     3053.897        3.764        0.512      252.776       24.378        0.009      340.950       15.320      862.045
06/13/2013  08:44:00      155.853      105.237       48.300       75.482       53.020       51.623     5697.522     2811.104     2664.897        2.443        0.559      188.056       37.934        0.041      341.213       15.768      862.051
06/13/2013  08:45:00      135.574      119.568       30.602       66.411       49.526       50.686     4410.415     2452.863     2569.050        2.152        0.472      180.767       35.666        0.039      341.173       15.700      862.047
06/13/2013  08:46:00       71.828      -30.755       29.986       56.251       75.248       50.156     3164.158     5662.313     2515.638        0.917        0.567       78.136       53.283        0.465      341.511       16.275      862.058
06/13/2013  08:47:00      122.434      117.199       14.316       62.643       31.357       42.995     3924.161      983.234     1848.598        1.784        0.338      169.487       19.695        0.014      341.054       15.500      862.073
06/13/2013  08:48:00       48.954      -32.714       18.232       51.430       35.705       32.471     2644.996     1274.851     1054.346        0.439        0.249       58.879       23.127        0.154      341.276       15.876      862.090
06/13/2013  08:49:00       -8.449      -14.279       14.325       26.849       18.608       22.654      720.870      346.272      513.213        0.103        0.079       16.591       13.673        0.679      341.432       16.141      862.094
06/13/2013  08:50:00        4.911       25.891       45.307       24.620       31.130       25.592      606.165      969.078      654.928        0.249        0.112       26.352       19.859        0.568      341.918       16.965      862.104
06/13/2013  08:51:00      -21.068       28.678       53.285       19.831       32.201       27.385      393.270     1036.924      749.939        0.314        0.109       35.585       27.000        0.576      341.856       16.860      862.098
06/13/2013  08:52:00       53.010     -132.614      -26.913       88.715       74.992       51.641     7870.390     5623.749     2666.824        1.864        0.808      142.816       54.274        0.144      341.282       15.884      862.101
06/13/2013  08:53:00       54.676      -83.261        7.468       58.705       60.660       42.741     3446.252     3679.576     1826.820        0.946        0.448       99.608       18.499        0.034      341.472       16.208      862.106
06/13/2013  08:54:00       31.181     -138.690      -29.830       37.578       57.376       32.737     1412.075     3292.047     1071.708        1.344        0.289      142.152       31.010        0.048      341.225       15.790      862.120
06/13/2013  08:55:00      -31.327      -94.167       11.915       40.692       59.150       42.569     1655.814     3498.763     1812.093        0.848        0.348       99.241       26.063        0.069      341.649       16.509      862.115
06/13/2013  08:56:00      -43.519      -38.465       -7.095       26.834       42.170       21.414      720.038     1778.326      458.575        0.319        0.148       58.081       20.960        0.130      341.142       15.649      862.116
06/13/2013  08:57:00      -59.420      -52.892       -7.413       56.215       39.249       28.832     3160.123     1540.455      831.284        0.596        0.277       79.551       22.987        0.083      341.310       15.934      862.146
06/13/2013  08:58:00       -5.937      -28.757        9.678       29.316       22.007       26.180      859.417      484.321      685.416        0.149        0.101       29.363       13.868        0.223      341.368       16.033      862.159
06/13/2013  08:59:00      -13.071       -7.191       19.950       16.131       20.012       18.658      260.213      400.490      348.127        0.081        0.050       14.918       13.079        0.769      342.102       17.278      862.133
06/13/2013  09:00:00      -59.964       12.266       28.346       46.750       23.122       34.312     2185.592      534.615     1177.316        0.422        0.195       61.206       31.291        0.261      341.841       16.834      862.105
06/13/2013  09:01:00     -146.627      -19.009       -1.449       58.247       62.567       32.796     3392.768     3914.602     1075.586        1.512        0.419      147.854       31.490        0.045      341.381       16.054      862.153
06/13/2013  09:02:00     -148.441     -156.681       -1.056      137.244       92.800       51.165    18835.823     8611.817     2617.875        3.832        1.503      215.833       55.863        0.067      341.494       16.242      862.162
06/13/2013  09:03:00     -149.159     -202.664        8.060      112.166      128.143       56.097    12581.283    16420.510     3146.911        4.776        1.607      251.637       54.307        0.047      341.668       16.536      862.121
06/13/2013  09:04:00      -70.287       28.772        7.163       71.649      150.669       49.847     5133.597    22701.085     2484.719        1.806        1.516       75.948       52.820        0.484      342.090       17.256      862.080
06/13/2013  09:05:00     -117.033      185.463      -26.817       50.497       74.621       36.250     2549.902     5568.318     1314.046        2.912        0.472      219.302       29.196        0.018      341.619       16.454      862.144
06/13/2013  09:06:00      -48.197      141.932      -17.528       75.790       72.042       35.678     5744.070     5190.003     1272.941        1.749        0.610      149.892       27.334        0.033      341.795       16.755      862.138
06/13/2013  09:07:00     -155.325       30.677      -21.254       56.705       96.364       44.015     3215.434     9285.964     1937.324        1.998        0.722      158.325       42.758        0.073      341.737       16.656      862.153
06/13/2013  09:08:00      -68.846       78.846       -7.749       43.194       60.771       37.599     1865.692     3693.150     1413.703        0.899        0.349      104.674       34.697        0.110      341.899       16.933      862.161
06/13/2013  09:09:00     -267.250       34.693      -25.930      129.871       84.011       54.901    16866.500     7057.788     3014.102        5.011        1.347      269.492       55.043        0.042      341.753       16.681      862.171
06/13/2013  09:10:00     -319.545      -53.571      -29.574      135.583      111.531       62.392    18382.801    12439.246     3892.713        7.028        1.736      324.004       67.740        0.044      341.825       16.802      862.131
06/13/2013  09:11:00     -221.467       42.338      -23.283      159.403      100.022       57.537    25409.407    10004.426     3310.500        4.505        1.936      225.478       66.463        0.087      341.935       16.991      862.078
06/13/2013  09:12:00     -399.510     -136.978      -36.899      129.985       87.849       65.932    16896.118     7717.432     4347.024       10.434        1.448      422.340       65.080        0.024      341.941       17.001      862.081
06/13/2013  09:13:00     -110.951      -90.494       21.892      115.716       92.213       62.188    13390.297     8503.233     3867.405        2.336        1.288      143.176       70.233        0.241      342.343       17.685      862.118
06/13/2013  09:14:00      -63.645      -83.143       -0.209       57.339      104.743       32.582     3287.727    10971.036     1061.559        1.314        0.766      104.706       22.914        0.048      342.002       17.107      862.137
06/13/2013  09:15:00      -81.818     -184.773        4.352       87.993       86.897       45.199     7742.690     7551.010     2042.912        2.909        0.867      202.078       49.100        0.059      342.040       17.169      862.137
06/13/2013  09:16:00      -96.805      -98.639      -18.778       68.736       64.146       36.196     4724.679     4114.650     1310.151        1.480        0.507      138.206       28.351        0.042      342.002       17.106      862.123
06/13/2013  09:17:00     -223.896     -117.940       -6.352      116.706       54.687       42.058    13620.177     2990.652     1768.848        4.123        0.919      253.060       47.012        0.035      342.114       17.293      862.134
06/13/2013  09:18:00     -168.471     -156.721       -6.998       82.969      125.654       56.131     6883.785    15788.915     3150.642        3.940        1.291      230.095       44.580        0.038      342.079       17.236      862.141
06/13/2013  09:19:00     -149.492      -68.958       -5.193      116.476      160.091       53.155    13566.633    25629.137     2825.498        3.457        2.101      164.630       54.063        0.108      342.086       17.247      862.138
06/13/2013  09:20:00     -345.517      -53.821      -22.737      204.285      164.187       81.043    41732.564    26957.450     6567.928        9.901        3.763      349.684       99.499        0.081      342.108       17.284      862.135
06/13/2013  09:21:00     -195.671      -62.361       -9.550      179.757       97.851       68.547    32312.432     9574.763     4698.756        4.442        2.329      205.368       83.422        0.165      342.267       17.555      862.147
06/13/2013  09:22:00     -127.335      -11.038        1.675      106.972       93.192       55.486    11442.933     8684.697     3078.667        1.977        1.160      127.813       50.697        0.157      342.526       17.996      862.164
06/13/2013  09:23:00     -136.713        2.119       12.306      129.078      104.164       59.510    16661.055    10850.040     3541.493        2.494        1.553      136.729       61.484        0.202      342.611       18.140      862.158
06/13/2013  09:24:00     -194.703      -48.797       13.642      145.346      112.872       80.862    21125.323    12740.176     6538.718        4.043        2.020      200.725       85.100        0.180      342.303       17.615      862.192
06/13/2013  09:25:00     -260.941      -24.692        8.682      181.797      118.690       72.683    33050.165    14087.361     5282.784        6.059        2.621      262.107       92.910        0.126      342.154       17.361      862.203
06/13/2013  09:26:00     -134.356      -48.486      -23.893      111.233       74.540       52.654    12372.671     5556.238     2772.427        2.083        1.035      142.837       55.123        0.149      342.196       17.435      862.189
06/13/2013  09:27:00     -292.827       34.128      -15.645      142.299      105.510       53.943    20249.130    11132.416     2909.856        6.072        1.715      294.809       58.244        0.039      341.996       17.095      862.202
06/13/2013  09:28:00     -466.256     -103.363      -40.062      173.913      153.791       83.827    30245.770    23651.713     7026.965       14.529        3.046      477.575       93.484        0.038      341.948       17.011      862.172
06/13/2013  09:29:00     -173.405       63.035       -7.171      122.303      101.910       66.120    14957.941    10385.587     4371.802        3.190        1.486      184.507       64.882        0.124      342.258       17.539      862.176
06/13/2013  09:30:00     -136.776       39.790        3.790      106.819       81.153       55.196    11410.383     6585.729     3046.599        2.067        1.052      142.446       58.859        0.171      342.456       17.876      862.167
06/13/2013  09:31:00     -178.283       41.056      -38.492       82.027       81.093       47.587     6728.354     6576.005     2264.516        2.526        0.778      182.949       43.826        0.057      342.257       17.536      862.141
06/13/2013  09:32:00      -82.457     -196.747       18.519      107.168      151.143       67.121    11484.976    22844.305     4505.251        4.234        1.942      213.327       62.545        0.086      342.439       17.848      862.191
06/13/2013  09:33:00      -81.323     -226.132       15.129      103.576      152.605       71.651    10727.893    23288.279     5133.896        4.856        1.958      240.310       54.689        0.052      342.072       17.223      862.152
06/13/2013  09:34:00      -90.593     -220.686      -17.701       89.995      111.067       53.267     8099.032    12335.881     2837.405        4.024        1.164      238.557       37.393        0.025      341.991       17.085      862.130
06/13/2013  09:35:00     -153.474     -135.312       -3.325      107.376       97.332       52.175    11529.666     9473.603     2722.263        3.280        1.186      204.606       38.574        0.036      342.034       17.160      862.144
06/13/2013  09:36:00     -394.213      -35.929      -17.136      152.622      124.941       77.181    23293.586    15610.144     5956.925       10.092        2.243      395.847       89.834        0.052      342.122       17.307      862.204
06/13/2013  09:37:00     -354.427       -1.320      -17.370      114.275       85.833       55.574    13058.825     7367.327     3088.440        7.471        1.176      354.430       63.659        0.032      342.065       17.209      862.207
06/13/2013  09:38:00     -217.739      -41.909       -5.525      121.798       93.247       51.141    14834.822     8695.066     2615.406        3.767        1.307      221.735       39.380        0.032      342.149       17.354      862.199
06/13/2013  09:39:00     -223.946     -228.600      -12.480      149.313      138.166       69.587    22294.446    19089.744     4842.378        7.439        2.311      320.015       65.038        0.041      342.003       17.105      862.216
06/13/2013  09:40:00     -183.665     -254.242       -3.400      142.161       97.275       73.991    20209.845     9462.409     5474.646        6.676        1.757      313.643       63.214        0.041      342.163       17.376      862.179
06/13/2013  09:41:00     -214.016     -148.547        7.124      146.491      119.475       73.043    21459.489    14274.310     5335.238        5.449        2.053      260.517       90.430        0.120      342.326       17.654      862.178
06/13/2013  09:42:00     -106.460     -127.467        0.165       81.833       82.171       57.367     6696.721     6752.141     3291.012        2.216        0.837      166.077       49.554        0.089      342.256       17.536      862.168
06/13/2013  09:43:00     -267.296     -115.469        2.521      132.448      113.299       65.373    17542.525    12836.608     4273.577        5.971        1.733      291.170       64.406        0.049      342.327       17.654      862.185
06/13/2013  09:44:00     -387.782     -162.813       -6.098      160.972      109.817       59.456    25912.010    12059.848     3535.047       10.921        2.075      420.574       62.583        0.022      342.169       17.387      862.198
06/13/2013  09:45:00     -331.314     -247.423      -18.897      135.610      142.143       65.573    18390.128    20204.568     4299.805       10.711        2.145      413.505       75.315        0.033      342.080       17.237      862.201
06/13/2013  09:46:00     -291.225     -120.163       -0.244      200.244      127.310       75.917    40097.537    16207.821     5763.466        8.065        3.103      315.042       90.820        0.083      342.273       17.565      862.182
06/13/2013  09:47:00     -219.173     -170.679        0.520      183.131      149.683       65.565    33536.943    22405.117     4298.735        6.869        3.012      277.791       76.073        0.075      342.158       17.368      862.195
06/13/2013  09:48:00     -168.441     -136.115       -3.325      114.723       94.925       61.018    13161.344     9010.690     3723.147        3.640        1.295      216.564       45.721        0.045      342.365       17.722      862.174
06/13/2013  09:49:00      -89.955     -210.550        4.809      103.906      175.276       55.765    10796.368    30721.657     3109.754        4.853        2.231      228.962       46.369        0.041      342.484       17.922      862.170
06/13/2013  09:50:00     -183.064     -202.365       14.921      166.466      183.885       75.781    27710.802    33813.827     5742.826        7.096        3.363      272.881       81.571        0.089      342.386       17.756      862.161
06/13/2013  09:51:00     -303.896     -254.826       -6.829      152.695      145.581       69.294    23315.895    21193.694     4801.676       10.331        2.466      396.597       63.676        0.026      342.247       17.520      862.148
06/13/2013  09:52:00     -114.410      -97.787        5.433      119.418       90.378       55.056    14260.620     8168.258     3031.188        2.407        1.273      150.505       54.086        0.129      342.393       17.770      862.145
06/13/2013  09:53:00     -157.541      -36.561        5.263       92.467       64.890       43.364     8550.074     4210.662     1880.448        2.041        0.732      161.728       45.201        0.078      342.437       17.845      862.141
06/13/2013  09:54:00     -190.975     -142.401        0.043       93.701       69.032       49.087     8779.901     4765.399     2409.495        3.635        0.798      238.221       48.086        0.041      342.289       17.591      862.114
06/13/2013  09:55:00     -188.708     -137.391        1.308      163.837       92.086       46.946    26842.707     8479.896     2203.921        4.600        1.876      233.425       56.716        0.059      342.333       17.667      862.125
06/13/2013  09:56:00     -207.731     -211.902        5.468      138.542      134.642       64.329    19194.024    18128.434     4138.163        6.476        2.073      296.740       71.789        0.059      342.255       17.534      862.118
06/13/2013  09:57:00     -172.233     -320.452        4.432      129.884      170.755       60.863    16869.739    29157.389     3704.252        9.104        2.487      363.805       60.389        0.028      342.281       17.578      862.136
06/13/2013  09:58:00     -167.592     -210.339       -6.479      125.088      141.176       55.372    15647.011    19930.555     3066.065        5.550        1.932      268.942       57.395        0.046      342.391       17.766      862.152
06/13/2013  09:59:00     -215.688     -155.453       -0.902      137.579       83.550       53.857    18928.019     6980.658     2900.541        4.974        1.440      265.870       58.420        0.048      342.417       17.810      862.165
06/13/2013  10:00:00     -115.153     -122.620       27.965      152.313      140.976       65.286    23199.317    19874.217     4262.205        3.820        2.367      168.214       81.723        0.236      342.746       18.370      862.173
06/13/2013  10:01:00     -271.192     -236.418        8.624      154.573      176.872       75.848    23892.825    31283.538     5752.899        9.521        3.046      359.776       78.738        0.048      342.332       17.665      862.193
06/13/2013  10:02:00     -275.483     -189.347      -12.787      170.737      138.964       69.526    29151.186    19311.049     4833.813        8.259        2.665      334.280       93.425        0.078      342.286       17.587      862.191
06/13/2013  10:03:00     -250.802     -189.660        5.088      124.581       87.356       59.948    15520.476     7631.041     3593.810        6.282        1.337      314.440       63.993        0.041      342.422       17.818      862.167
06/13/2013  10:04:00     -156.445     -131.344        8.643      160.328       91.045       65.220    25704.908     8289.269     4253.688        4.002        1.912      204.270       84.286        0.170      342.736       18.353      862.168
06/13/2013  10:05:00     -252.965     -178.420       -2.930      136.104      129.016       66.182    18524.207    16645.219     4380.066        6.768        1.977      309.556       62.108        0.040      342.510       17.967      862.153
06/13/2013  10:06:00     -241.625     -151.239        9.031      108.102       97.702       64.657    11686.070     9545.636     4180.463        5.337        1.271      285.055       57.723        0.041      342.703       18.296      862.143
06/13/2013  10:07:00     -289.753     -170.395        8.915      133.432      145.529       75.367    17804.121    21178.745     5680.229        7.886        2.233      336.142       69.040        0.042      342.557       18.047      862.132
06/13/2013  10:08:00     -372.312     -227.952      -21.337      131.802       95.519       59.219    17371.896     9123.859     3506.897       11.051        1.500      436.553       63.405        0.021      342.352       17.700      862.139
06/13/2013  10:09:00     -121.111     -102.215       13.830      100.848      108.924       47.026    10170.270    11864.383     2211.477        2.477        1.212      158.480       54.399        0.118      342.754       18.382      862.142
06/13/2013  10:10:00      -81.962       14.664       16.714      118.576       68.083       48.210    14060.210     4635.246     2324.217        1.411        1.051       83.263       62.058        0.556      343.234       19.202      862.147
06/13/2013  10:11:00     -239.092       51.847      -24.493       56.431       55.506       38.427     3184.506     3080.928     1476.624        3.410        0.387      244.649       29.137        0.014      342.515       17.973      862.155
06/13/2013  10:12:00     -132.641      -72.445       10.383      101.999      104.110       66.415    10403.794    10838.941     4410.925        2.430        1.283      151.136       67.021        0.197      343.024       18.843      862.163
06/13/2013  10:13:00     -138.658     -133.380       10.780      152.663       74.688       57.536    23305.957     5578.269     3310.386        3.466        1.610      192.396       70.765        0.135      342.611       18.139      862.184
06/13/2013  10:14:00     -247.199     -178.795        5.485      145.836      117.088       68.455    21268.112    13709.623     4686.043        6.638        1.983      305.082       64.230        0.044      342.796       18.452      862.166
06/13/2013  10:15:00     -144.516      -53.822        8.098      120.575       70.494       42.621    14538.251     4969.466     1816.514        2.258        1.066      154.213       53.280        0.119      342.780       18.427      862.194
06/13/2013  10:16:00     -120.986      -91.724        2.666      106.173      101.634       49.428    11272.747    10329.493     2443.166        2.355        1.202      151.825       43.077        0.081      342.871       18.582      862.207
06/13/2013  10:17:00      -48.690      -44.779        2.515       42.151       81.976       32.204     1776.686     6720.056     1037.103        0.696        0.477       66.150       15.584        0.056      342.773       18.419      862.179
06/13/2013  10:18:00      -86.598      -12.565       10.418       84.267       80.959       42.719     7100.994     6554.347     1824.886        1.162        0.774       87.504       43.948        0.252      343.042       18.875      862.151
06/13/2013  10:19:00     -206.071     -180.697      -13.862      125.116      133.869       61.132    15654.126    17920.892     3737.163        5.630        1.866      274.074       60.108        0.048      342.816       18.487      862.174
06/13/2013  10:20:00     -132.051     -175.794       28.928      141.259      162.506       81.414    19954.178    26408.147     6628.173        5.107        2.650      219.866       70.502        0.103      342.832       18.514      862.158
06/13/2013  10:21:00     -302.110     -244.162       -5.628      145.794      119.736       78.132    21255.971    14336.649     6104.617        9.630        2.085      388.440       83.687        0.046      342.599       18.119      862.152
06/13/2013  10:22:00     -326.722     -243.213      -13.719      178.533      152.567       85.487    31873.909    23276.594     7307.987       11.426        3.123      407.308       96.017        0.056      342.504       17.956      862.153
06/13/2013  10:23:00     -138.800     -184.908        3.382      107.193      101.739       46.968    11490.300    10350.904     2205.968        3.875        1.202      231.207       49.373        0.046      342.582       18.089      862.145
06/13/2013  10:24:00     -274.464     -202.645        2.409      180.686      114.806       81.058    32647.377    13180.520     6570.409        8.439        2.620      341.168       91.181        0.071      342.690       18.274      862.144
06/13/2013  10:25:00     -237.549      -96.716       -0.479      149.082       95.488       70.354    22225.552     9118.026     4949.726        5.103        1.815      256.483       82.380        0.103      342.789       18.442      862.160
06/13/2013  10:26:00     -355.982       -8.818      -25.839       97.570      107.063       49.354     9520.002    11462.561     2435.857        7.544        1.171      356.091       49.556        0.019      342.665       18.229      862.146
06/13/2013  10:27:00     -307.093      123.850      -36.734       86.376       83.303       53.760     7460.782     6939.418     2890.100        6.414        0.865      331.126       48.475        0.021      342.531       18.003      862.134
06/13/2013  10:28:00     -204.557       18.252       -8.365       74.462       53.369       28.929     5544.552     2848.259      836.866        2.574        0.461      205.370       19.042        0.009      342.647       18.202      862.131
06/13/2013  10:29:00     -411.767       10.575      -30.961      117.938      119.427       65.918    13909.256    14262.911     4345.175       10.156        1.626      411.903       62.743        0.023      342.762       18.395      862.113
06/13/2013  10:30:00     -362.275      -79.326      -34.694      114.062      103.280       57.671    13010.123    10666.697     3325.991        8.287        1.350      370.859       55.276        0.022      342.520       17.985      862.122
06/13/2013  10:31:00     -274.247       -5.481      -22.007       98.852       48.387       36.370     9771.807     2341.255     1322.792        4.458        0.672      274.302       44.542        0.026      342.445       17.855      862.128
06/13/2013  10:32:00     -205.341       34.409      -21.828       87.073       45.053       34.581     7581.698     2029.744     1195.819        2.731        0.540      208.204       42.256        0.041      342.720       18.325      862.103
06/13/2013  10:33:00      -96.753     -107.935        8.460       90.507       98.263       33.159     8191.515     9655.644     1099.496        2.001        0.947      144.953       31.529        0.047      342.907       18.645      862.096
06/13/2013  10:34:00     -247.646     -129.228        0.229      127.222      107.609       60.005    16185.391    11579.798     3600.620        5.469        1.568      279.336       61.423        0.048      343.001       18.801      862.100
06/13/2013  10:35:00     -312.410     -170.530        6.187      170.991      126.004       77.449    29237.981    15876.921     5998.406        8.891        2.556      355.922       78.519        0.049      342.881       18.598      862.089
06/13/2013  10:36:00     -192.543     -155.317       10.520      153.598      123.447       77.324    23592.236    15239.255     5979.068        5.305        2.241      247.379       79.774        0.104      342.993       18.788      862.108
06/13/2013  10:37:00     -184.734     -246.788       15.557      172.007      140.473       79.211    29586.454    19732.710     6274.440        7.542        2.780      308.271      100.756        0.107      342.907       18.643      862.105
06/13/2013  10:38:00     -200.825     -186.939       -7.143      111.948      117.259       68.547    12532.312    13749.690     4698.740        5.315        1.549      274.366       65.588        0.057      342.922       18.667      862.132
06/13/2013  10:39:00     -223.954     -140.716        0.128      154.247       82.334       50.081    23792.103     6778.931     2508.060        5.151        1.654      264.493       61.350        0.054      343.050       18.885      862.106
06/13/2013  10:40:00     -296.804     -200.249      -12.784      176.997      127.184       71.083    31327.836    16175.750     5052.738        9.045        2.628      358.040       88.131        0.061      343.002       18.805      862.114
06/13/2013  10:41:00     -221.625     -208.774        1.018      130.495      140.792       68.924    17029.053    19822.398     4750.494        6.715        2.080      304.474       78.600        0.067      343.003       18.806      862.123
06/13/2013  10:42:00     -278.375     -192.654       11.341      149.585      112.615       62.328    22375.758    12682.069     3884.719        7.683        1.947      338.539       69.473        0.042      342.951       18.716      862.134
06/13/2013  10:43:00     -153.263     -134.430        9.647      113.960       98.589       60.449    12986.926     9719.843     3654.037        3.400        1.318      203.865       68.102        0.112      343.146       19.049      862.115
06/13/2013  10:44:00     -179.154     -180.683        3.053      138.093      128.977       81.392    19069.565    16634.944     6624.715        5.353        2.116      254.446       83.621        0.108      343.053       18.892      862.148
06/13/2013  10:45:00     -204.546     -254.202       10.341      147.761      132.061       61.740    21833.400    17440.040     3811.824        7.482        2.154      326.279       72.864        0.050      342.988       18.780      862.141
06/13/2013  10:46:00     -240.002     -104.633       14.696      164.682      160.703       80.784    27120.248    25825.583     6526.007        6.411        2.974      261.819      100.079        0.146      343.463       19.590      862.126
06/13/2013  10:47:00      -73.434      -93.639       22.943      108.451       91.438       51.070    11761.610     8360.920     2608.142        1.870        1.137      118.999       42.546        0.128      343.444       19.558      862.147
06/13/2013  10:48:00     -166.236       34.357        0.568      184.743      138.617       79.126    34129.993    19214.742     6260.903        4.420        2.980      169.750       94.478        0.310      343.718       20.025      862.159
06/13/2013  10:49:00     -527.677       40.973      -54.727      164.723      152.678       68.427    27133.815    23310.498     4682.203       16.911        2.756      529.265       72.787        0.019      343.056       18.895      862.168
06/13/2013  10:50:00     -468.446      -62.123      -36.377      158.617      179.467       76.958    25159.230    32208.398     5922.592       14.394        3.165      472.547       77.748        0.027      343.076       18.929      862.153
06/13/2013  10:51:00     -315.606     -108.626       -2.493      194.982      103.919       74.059    38017.788    10799.096     5484.760        8.285        2.715      333.776       89.824        0.072      343.146       19.048      862.177
06/13/2013  10:52:00     -228.540      -57.827       -6.576      114.076       87.021       56.076    13013.422     7572.606     3144.573        3.967        1.187      235.743       49.905        0.045      343.377       19.443      862.179
06/13/2013  10:53:00     -197.699      -68.301       -0.119      240.579      141.071       69.855    57878.336    19901.086     4879.734        6.319        4.133      209.165       62.526        0.089      343.735       20.056      862.173
06/13/2013  10:54:00     -383.932       34.671      -37.008      160.880      197.734       89.342    25882.272    39098.734     7981.973       11.145        3.648      385.495       78.775        0.042      343.391       19.466      862.188
06/13/2013  10:55:00     -379.860       34.970      -28.081      183.857      112.474       59.207    33803.423    12650.440     3505.480        9.812        2.498      381.466       67.808        0.032      343.310       19.329      862.202
06/13/2013  10:56:00     -378.530      -58.742      -13.911      181.421      137.040       80.847    32913.525    18779.939     6536.235       10.257        2.911      383.061       91.365        0.057      343.416       19.510      862.208
06/13/2013  10:57:00     -523.303     -177.037      -15.506      211.363      174.881       84.752    44674.233    30583.473     7182.948       19.392        4.122      552.438       87.594        0.025      343.171       19.091      862.196
06/13/2013  10:58:00     -474.317     -155.965      -21.076      159.637      162.721       69.313    25483.818    26478.215     4804.340       15.324        2.838      499.301       68.194        0.019      343.022       18.838      862.205
06/13/2013  10:59:00     -173.031      -54.754        6.664      128.613      111.445       56.158    16541.389    12420.052     3153.748        3.254        1.606      181.488       45.119        0.062      343.365       19.423      862.215
06/13/2013  11:00:00     -240.841      -13.881      -14.918      172.464      108.110       70.791    29743.815    11687.750     5011.434        5.242        2.322      241.241       77.426        0.103      343.561       19.757      862.199
06/13/2013  11:01:00     -315.064      -19.901      -34.272      128.895       80.766       54.702    16614.041     6523.166     2992.272        6.348        1.306      315.691       30.481        0.009      343.237       19.202      862.172
06/13/2013  11:02:00     -338.480     -111.558      -23.972      135.386      140.442       51.962    18329.384    19723.946     2700.074        8.416        2.038      356.390       49.736        0.019      343.294       19.302      862.205
06/13/2013  11:03:00     -242.897     -208.790      -15.507      147.755      146.823       66.892    21831.522    21557.047     4474.486        7.534        2.393      320.300       79.953        0.062      343.417       19.510      862.239
06/13/2013  11:04:00     -300.208     -245.022      -22.385      138.896      122.639       68.602    19291.974    15040.324     4706.295        9.484        1.952      387.505       77.086        0.040      343.241       19.209      862.190
06/13/2013  11:05:00     -189.902     -169.210       10.551      121.185      117.064       58.346    14685.773    13704.015     3404.218        4.829        1.590      254.352       67.820        0.071      343.452       19.571      862.164
06/13/2013  11:06:00     -214.398     -135.787        6.262      211.400      135.989       80.370    44689.984    18493.018     6459.297        6.703        3.482      253.781      100.549        0.157      343.506       19.664      862.134
06/13/2013  11:07:00     -365.054     -192.919        3.920      192.164      150.303       83.153    36927.024    22590.912     6914.374       11.845        3.322      412.895       78.414        0.036      343.349       19.394      862.115
06/13/2013  11:08:00     -243.005     -142.959      -11.546      191.436      128.269       68.097    36647.552    16452.913     4637.246        6.867        2.887      281.937       68.873        0.060      343.368       19.429      862.113
06/13/2013  11:09:00      -87.117     -106.613       19.638      100.062      112.787       58.881    10012.431    12721.002     3466.981        2.277        1.310      137.680       62.470        0.206      343.683       19.965      862.102
06/13/2013  11:10:00      -98.144     -122.357       -3.202      118.373       88.987       39.685    14012.276     7918.751     1574.910        2.406        1.175      156.855       50.234        0.103      343.520       19.688      862.087
06/13/2013  11:11:00     -134.917      -76.030        9.136       85.905       67.413       42.658     7379.601     4544.502     1819.699        1.890        0.687      154.865       44.149        0.081      343.783       20.135      862.110
06/13/2013  11:12:00     -116.259     -263.147       -9.444      164.232      177.755       79.340    26972.027    31596.732     6294.843        7.384        3.243      287.685       66.984        0.054      343.482       19.622      862.080
06/13/2013  11:13:00     -471.456     -303.456       -5.837      202.067      151.020       88.870    40830.947    22806.989     7897.902       19.295        3.577      560.675       82.302        0.022      343.371       19.430      862.058
06/13/2013  11:14:00     -262.574     -235.240        3.198      158.738      151.329       85.347    25197.908    22900.355     7284.041        8.983        2.769      352.538       78.619        0.050      343.495       19.645      862.044
06/13/2013  11:15:00     -248.839     -332.607      -10.772      180.551      136.569       92.798    32598.500    18651.196     8611.537       11.625        2.993      415.390       91.540        0.049      343.550       19.738      862.077
06/13/2013  11:16:00     -286.727     -114.739        9.530      176.625       96.457       65.430    31196.413     9303.942     4281.040        7.012        2.239      308.833       49.253        0.025      343.501       19.655      862.094
06/13/2013  11:17:00     -110.386     -133.435        7.989      129.593      126.055       71.342    16794.425    15889.748     5089.650        3.391        1.889      173.176       56.480        0.106      343.678       19.957      862.075
06/13/2013  11:18:00     -385.723     -285.837       -6.959      221.563      137.456      113.612    49090.166    18894.178    12907.617       15.570        4.045      480.089      118.696        0.061      343.683       19.964      862.094
06/13/2013  11:19:00     -310.485     -270.914      -11.069      176.045      152.765       87.714    30991.844    23337.143     7693.686       11.596        3.101      412.063       90.559        0.048      343.308       19.324      862.123
06/13/2013  11:20:00      -87.308      -83.772       10.302       95.321       87.604       42.635     9086.149     7674.481     1817.735        1.666        0.929      120.998       43.455        0.129      343.461       19.586      862.133
06/13/2013  11:21:00     -147.885       25.006        4.857       57.563       57.466       30.546     3313.546     3302.391      933.033        1.503        0.377      149.985       30.446        0.041      343.381       19.452      862.076
06/13/2013  11:22:00     -150.520       47.843       -5.958       95.627       50.362       26.942     9144.582     2536.346      725.862        1.869        0.620      157.940       31.750        0.040      343.390       19.465      862.056
06/13/2013  11:23:00     -106.888      -79.615       10.008       83.325       54.714       36.922     6943.101     2993.577     1363.246        1.458        0.565      133.280       35.326        0.070      343.734       20.052      862.049
06/13/2013  11:24:00       19.935      -64.684       20.607       34.933       77.577       35.187     1220.290     6018.164     1238.124        0.674        0.424       67.686       42.611        0.396      344.125       20.723      862.046
06/13/2013  11:25:00      -46.823     -100.635       -3.874      169.448       89.581       52.814    28712.712     8024.834     2789.300        2.592        1.976      110.994       69.597        0.393      343.944       20.410      862.037
06/13/2013  11:26:00     -165.989     -209.696        5.850       97.722      165.494       62.855     9549.661    27388.290     3950.753        5.622        2.044      267.441       54.878        0.042      343.828       20.212      862.050
06/13/2013  11:27:00      -46.464      -71.872       32.042      107.242       93.250       58.525    11500.745     8695.577     3425.186        1.598        1.181       85.584       22.291        0.068      344.239       20.916      862.011
06/13/2013  11:28:00     -102.081      -68.750       -6.359      102.096       74.685       44.304    10423.577     5577.894     1962.809        1.657        0.898      123.074       32.858        0.071      344.345       21.096      862.005
06/13/2013  11:29:00     -266.807     -200.761       -6.999      136.300      115.411       66.868    18577.746    13319.725     4471.289        7.395        1.818      333.903       66.551        0.040      343.598       19.821      862.014
06/13/2013  11:30:00     -155.170     -113.643       -5.344       80.621       89.365       36.487     6499.683     7986.140     1331.306        2.642        0.791      192.335       29.741        0.024      343.467       19.595      862.009
06/13/2013  11:31:00     -103.945     -108.073        1.300       68.880       93.324       33.440     4744.415     8709.444     1118.227        1.853        0.729      149.948       31.181        0.043      343.464       19.592      861.998
06/13/2013  11:32:00     -147.038     -112.689       -7.541       66.006       65.604       25.023     4356.782     4303.842      626.159        2.183        0.464      185.254       18.889        0.010      343.384       19.456      861.980
06/13/2013  11:33:00     -112.641      -42.046       10.074       82.175       56.010       34.983     6752.740     3137.148     1223.805        1.283        0.556      120.232       35.746        0.088      343.766       20.108      861.953
06/13/2013  11:34:00     -191.688     -136.208      -14.976       71.640       52.758       36.421     5132.290     2783.414     1326.473        3.238        0.462      235.153       30.933        0.017      343.502       19.655      861.964
06/13/2013  11:35:00      -69.318     -117.003        1.805       35.776       54.063       22.315     1279.915     2922.805      497.968        1.160        0.235      135.995       16.296        0.014      343.596       19.819      861.939
06/13/2013  11:36:00      -49.547       -2.867       17.661       86.553       36.973       39.226     7491.471     1366.988     1538.659        0.658        0.520       49.630       43.498        0.768      343.892       20.323      861.879
06/13/2013  11:37:00      125.795     -239.435       -0.988       77.765      156.097       65.261     6047.458    24366.415     4258.955        5.391        1.734      270.469       65.163        0.058      343.807       20.176      861.870
06/13/2013  11:38:00      -11.374     -291.865       19.426      246.014      153.528      103.230    60522.792    23570.766    10656.520        9.020        4.738      292.087      103.148        0.125      343.909       20.349      861.774
06/13/2013  11:39:00     -308.877     -376.515      -11.658      235.863      163.149       93.294    55631.309    26617.662     8703.696       16.411        4.548      487.000       87.676        0.032      344.061       20.610      861.770
06/13/2013  11:40:00     -351.897     -140.705       -7.696      233.295      109.307       70.121    54426.469    11947.966     4917.006       10.748        3.565      378.985       92.189        0.059      343.851       20.252      861.811
06/13/2013  11:41:00     -174.137     -136.307       22.817      206.530      107.910       74.333    42654.806    11644.502     5525.321        5.461        2.991      221.141      102.068        0.213      344.292       21.006      861.832
06/13/2013  11:42:00     -399.460      -10.508      -20.941      291.975      190.257       90.438    85249.295    36197.695     8179.044       14.485        6.481      399.599      118.151        0.087      344.104       20.683      861.828
06/13/2013  11:43:00     -349.531      -76.524      -17.712      180.466      154.041       72.993    32567.834    23728.495     5327.923        9.497        3.081      357.810       92.005        0.066      344.059       20.607      861.830
06/13/2013  11:44:00     -309.856     -260.521        2.107      160.067      149.848       82.512    25621.481    22454.335     6808.260       10.937        2.744      404.823       87.704        0.047      344.027       20.552      861.830
06/13/2013  11:45:00     -302.591     -278.721       -4.087      181.125      171.903       87.436    32806.250    29550.613     7644.974       11.962        3.500      411.396       97.080        0.056      343.898       20.331      861.831
06/13/2013  11:46:00     -310.146     -203.786        2.794      171.463      110.496       72.064    29399.610    12209.267     5193.184        9.226        2.340      371.106       79.421        0.046      343.743       20.066      861.830
06/13/2013  11:47:00     -216.189     -185.610        6.090      144.271      141.391       71.961    20814.161    19991.459     5178.354        6.360        2.299      284.937       72.970        0.066      344.064       20.615      861.808
06/13/2013  11:48:00     -248.034     -207.912       -5.823      133.607      149.169       70.963    17850.792    22251.276     5035.684        7.495        2.257      323.649       68.311        0.045      344.254       20.940      861.782
06/13/2013  11:49:00     -198.367      -22.217       19.839      125.836      112.199       63.406    15834.656    12588.609     4020.352        3.633        1.622      199.607       65.996        0.109      344.499       21.360      861.787
06/13/2013  11:50:00      -37.391     -165.238        5.827       76.971       89.143       37.485     5924.490     7946.399     1405.096        2.200        0.764      169.415       28.387        0.028      344.092       20.662      861.773
06/13/2013  11:51:00     -165.895      -76.155       -2.623      108.859       89.080       46.068    11850.265     7935.285     2122.306        2.761        1.095      182.540       42.140        0.053      344.206       20.857      861.775
06/13/2013  11:52:00     -285.281      -63.246        0.842      133.968      130.812       68.081    17947.548    17111.888     4634.990        6.253        1.985      292.208       66.607        0.052      344.169       20.795      861.775
06/13/2013  11:53:00     -172.326      -74.581       -3.352       87.556       73.744       34.251     7665.976     5438.220     1173.131        2.477        0.714      187.773       32.499        0.030      343.701       19.996      861.765
06/13/2013  11:54:00      -38.236      -61.976       17.246       58.446       88.429       32.912     3415.894     7819.649     1083.208        0.896        0.616       72.822       31.577        0.188      344.094       20.668      861.744
06/13/2013  11:55:00     -136.046     -121.347        9.052       96.465       87.002       41.910     9305.476     7569.266     1756.463        2.597        0.932      182.301       48.197        0.070      343.843       20.238      861.721
06/13/2013  11:56:00     -157.571        7.154        8.876      136.144      104.388       53.910    18535.229    10896.935     2906.273        2.864        1.617      157.733       57.041        0.131      344.342       21.091      861.738
06/13/2013  11:57:00      -60.549       14.297      -15.659       50.378       73.658       37.461     2537.899     5425.505     1403.316        0.674        0.468       62.214       26.907        0.187      344.238       20.914      861.732
06/13/2013  11:58:00      -78.896       72.297        2.035       80.780       91.005       40.087     6525.382     8281.943     1606.995        1.393        0.821      107.012       56.029        0.274      344.494       21.353      861.680
06/13/2013  11:59:00     -153.679      -17.551        9.595      127.468      112.718       57.016    16248.036    12705.301     3250.852        2.810        1.610      154.678       54.448        0.124      344.555       21.455      861.712
06/13/2013  12:00:00     -378.012     -306.331        5.131      250.988      192.379       99.528    62995.187    37009.505     9905.878       17.331        5.496      486.551      111.494        0.053      344.178       20.808      861.708
06/13/2013  12:01:00     -208.835     -177.454       -4.113      187.898      144.799       91.081    35305.472    20966.860     8295.688        6.983        3.228      274.047       96.672        0.124      344.403       21.194      861.748
06/13/2013  12:02:00     -269.740      -39.540       -1.587      115.767      135.508       62.508    13402.013    18362.405     3907.265        5.499        1.784      272.622       64.877        0.057      344.162       20.782      861.742
06/13/2013  12:03:00     -385.742      -62.813       -4.602      172.091      140.013       98.813    29615.248    19603.581     9764.042       10.586        2.949      390.822      108.268        0.077      344.218       20.879      861.733
06/13/2013  12:04:00     -373.968     -120.328      -18.920      179.575      112.189       71.064    32247.082    12586.460     5050.102       10.228        2.494      392.850       76.820        0.038      344.142       20.747      861.730
06/13/2013  12:05:00     -243.101      -34.868      -19.175       70.263       92.082       40.715     4936.879     8479.064     1657.687        3.787        0.754      245.589       29.067        0.014      344.251       20.933      861.692
06/13/2013  12:06:00     -301.473      -48.913      -33.261      128.512       99.394       51.783    16515.448     9879.222     2681.442        6.172        1.454      305.415       56.071        0.034      344.085       20.651      861.624
06/13/2013  12:07:00     -248.814       75.541      -29.626       90.595       78.519       40.111     8207.468     6165.191     1608.897        4.223        0.799      260.028       40.217        0.024      343.874       20.291      861.610
06/13/2013  12:08:00     -207.509      -30.780      -26.723       55.086       82.316       39.112     3034.500     6775.872     1529.714        2.803        0.567      209.779       18.178        0.008      343.966       20.446      861.585
06/13/2013  12:09:00     -144.681      -77.735        1.101       94.323       76.935       43.985     8896.904     5919.035     1934.644        2.186        0.838      164.242       47.234        0.083      344.564       21.471      861.649
06/13/2013  12:10:00     -231.587     -141.897       -4.329      156.470      146.324       70.228    24482.968    21410.625     4931.961        6.230        2.541      271.602       67.787        0.062      344.405       21.196      861.649
06/13/2013  12:11:00     -456.227     -205.043      -23.239      199.644      181.788       87.009    39857.692    33046.909     7570.609       16.558        4.024      500.186      104.547        0.044      344.078       20.639      861.639
06/13/2013  12:12:00     -326.274     -265.338      -21.583      234.884      169.289       92.253    55170.375    28658.811     8510.640       13.481        4.617      420.546       94.707        0.051      344.430       21.240      861.621
06/13/2013  12:13:00     -366.876     -199.910        1.267      200.760      169.485       81.183    40304.669    28725.236     6590.716       12.508        3.781      417.807       73.683        0.031      344.408       21.203      861.627
06/13/2013  12:14:00     -395.753     -239.589        0.939      202.607      179.808       94.285    41049.671    32330.765     8889.692       14.813        4.114      462.626      100.816        0.047      344.311       21.037      861.610
06/13/2013  12:15:00     -184.712     -324.391       -5.689      162.077      184.226       88.215    26269.112    33939.170     7781.903       10.367        3.400      373.293       50.559        0.018      344.258       20.946      861.613
06/13/2013  12:16:00      -75.636     -222.686        2.468       98.263      146.266       61.578     9655.542    21393.765     3791.812        4.507        1.742      235.180       57.577        0.060      344.271       20.970      861.634
06/13/2013  12:17:00     -273.042     -147.011      -11.218      121.001       97.491       64.133    14641.314     9504.432     4113.016        6.227        1.413      310.104       67.923        0.048      344.137       20.741      861.591
06/13/2013  12:18:00     -196.106     -123.130       -0.710      135.455       98.123       59.171    18347.988     9628.095     3501.162        4.254        1.574      231.557       64.954        0.079      344.293       21.005      861.584
06/13/2013  12:19:00     -104.313     -143.244      -30.296      169.646      127.060       52.533    28779.667    16144.269     2759.732        3.999        2.384      177.201       32.118        0.033      344.410       21.206      861.581
06/13/2013  12:20:00      -49.853      -98.976       -3.294      133.498       99.035       55.580    17821.734     9808.005     3089.124        2.150        1.536      110.822       33.304        0.090      344.504       21.369      861.583
06/13/2013  12:21:00       -0.599      -40.664       23.482      154.643      110.635       71.377    23914.608    12240.159     5094.729        2.172        2.062       40.669       66.684        2.689      344.536       21.424      861.558
06/13/2013  12:22:00     -224.023     -125.833      -13.393      116.167      113.954       66.777    13494.721    12985.561     4459.144        4.856        1.547      256.944       63.164        0.060      344.454       21.282      861.597
06/13/2013  12:23:00     -333.547     -142.329        0.086      158.287      109.981       69.429    25054.775    12095.850     4820.388        8.673        2.099      362.645       73.947        0.042      344.429       21.240      861.612
06/13/2013  12:24:00     -202.906     -105.080       34.089      182.602      164.279       89.835    33343.627    26987.453     8070.326        6.087        3.420      228.501       91.507        0.160      344.696       21.694      861.552
06/13/2013  12:25:00     -191.603     -267.217        1.477      148.777      137.998       73.912    22134.637    19043.449     5462.994        7.737        2.332      328.811       79.029        0.058      344.530       21.411      861.620
06/13/2013  12:26:00     -180.491      -84.578       19.352      157.324       91.160       60.433    24750.689     8310.061     3652.124        3.840        1.836      199.325       64.040        0.103      344.703       21.707      861.593
06/13/2013  12:27:00     -109.211     -169.751       -3.456      104.553      108.035       57.137    10931.424    11671.525     3264.668        3.331        1.293      201.848       52.892        0.069      344.699       21.701      861.588
06/13/2013  12:28:00      -94.068     -181.326       -4.590      106.318      130.351       52.736    11303.559    16991.473     2781.093        3.641        1.554      204.274       18.213        0.008      344.913       22.067      861.562
06/13/2013  12:29:00     -161.396     -104.313      -12.944      126.935       90.856       53.890    16112.460     8254.795     2904.085        3.218        1.364      192.171       50.922        0.070      345.105       22.397      861.540
06/13/2013  12:30:00      -78.585     -175.010       24.514      102.043      184.393       52.504    10412.710    34000.749     2756.692        4.228        2.359      191.845       42.055        0.048      345.239       22.625      861.551
06/13/2013  12:31:00     -248.257     -157.996       17.869      145.159      123.881       86.561    21071.133    15346.479     7492.875        6.540        2.196      294.269       80.298        0.074      345.282       22.697      861.563
06/13/2013  12:32:00     -220.328      -35.225       14.775      206.817      148.790       97.638    42773.084    22138.348     9533.184        6.221        3.722      223.126      109.878        0.243      345.100       22.387      861.596
06/13/2013  12:33:00     -326.065      -89.557        0.108      228.196      136.913       78.386    52073.498    18745.083     6144.346        9.564        3.848      338.141       84.031        0.062      344.676       21.660      861.593
06/13/2013  12:34:00     -274.896     -118.221       -2.147      188.686      146.681       84.612    35602.543    21515.349     7159.129        7.690        3.214      299.239       95.124        0.101      344.665       21.642      861.571
06/13/2013  12:35:00     -360.541     -132.528       -2.695      162.165      113.006       66.536    26297.560    12770.370     4427.105        9.552        2.175      384.127       68.815        0.032      344.346       21.095      861.574
06/13/2013  12:36:00     -263.134     -245.712       -8.676      152.583      103.175       65.345    23281.424    10645.115     4269.921        8.394        1.910      360.020       71.375        0.039      344.312       21.039      861.564
06/13/2013  12:37:00     -130.962     -113.294       -6.258      138.537      110.622       45.260    19192.423    12237.261     2048.473        3.175        1.674      173.166       61.809        0.127      344.295       21.012      861.542
06/13/2013  12:38:00     -216.992     -170.906       -1.070      222.635      151.456       55.648    49566.383    22939.069     3096.667        7.593        3.780      276.214       72.586        0.069      344.150       20.761      861.548
06/13/2013  12:39:00     -278.154     -180.591      -13.651      239.065      189.509       69.070    57152.291    35913.736     4770.624       10.398        4.892      331.637       91.142        0.076      344.523       21.398      861.470
06/13/2013  12:40:00     -110.815     -122.219       26.404      149.207      139.737       56.303    22262.738    19526.388     3170.078        3.643        2.248      164.977       69.031        0.175      344.919       22.078      861.502
06/13/2013  12:41:00     -152.352     -151.325        9.934      135.031      127.047       63.120    18233.359    16140.980     3984.151        4.228        1.918      214.733       71.935        0.112      344.642       21.602      861.524
06/13/2013  12:42:00     -119.826      -85.713      -11.534       92.428       82.590       50.179     8543.027     6821.047     2517.936        1.986        0.894      147.327       31.468        0.046      344.820       21.909      861.486
06/13/2013  12:43:00       39.860     -105.024       21.928       95.577      137.713       69.760     9134.979    18964.958     4866.466        2.303        1.648      112.333       84.591        0.567      344.982       22.187      861.452
06/13/2013  12:44:00       46.959     -116.617       15.844       87.598      147.148       71.972     7673.364    21652.659     5180.023        2.527        1.725      125.716       82.582        0.432      344.892       22.031      861.401
06/13/2013  12:45:00      -10.414     -199.290      -43.067      107.880      119.255       87.289    11638.107    14221.770     7619.423        3.757        1.674      199.562       65.896        0.109      344.904       22.052      861.362
06/13/2013  12:46:00     -238.617     -109.514        4.972      128.096      108.241       60.824    16408.617    11716.068     3699.528        5.038        1.591      262.548       64.119        0.060      345.174       22.512      861.376
06/13/2013  12:47:00     -189.421      -23.501       13.884      132.372      129.789       71.901    17522.227    16845.062     5169.708        3.807        1.977      190.873       72.072        0.143      345.233       22.615      861.445
06/13/2013  12:48:00     -368.208     -170.673       -7.731      239.233      155.685       90.951    57232.543    24237.719     8272.047       12.724        4.487      405.841      110.677        0.074      344.945       22.121      861.449
06/13/2013  12:49:00     -380.221     -144.460      -21.400      182.944      179.811       86.700    33468.345    32331.863     7516.854       11.959        3.666      406.739       87.086        0.046      344.628       21.579      861.428
06/13/2013  12:50:00     -175.743       40.202       32.748      192.883       99.635       83.424    37203.991     9927.196     6959.615        4.382        2.705      180.283       87.470        0.235      344.960       22.148      861.413
06/13/2013  12:51:00     -261.088      -78.467       -3.721      170.585      180.574       63.599    29099.256    32607.012     4044.797        7.003        3.288      272.624       78.951        0.084      344.984       22.188      861.403
06/13/2013  12:52:00     -385.269     -188.577      -19.850      125.892      121.125       71.467    15848.847    14671.356     5107.555       11.000        1.781      428.944       67.887        0.025      344.770       21.821      861.379
06/13/2013  12:53:00     -532.354     -233.298      -10.031      219.007      193.291       97.600    47964.116    37361.455     9525.747       21.637        4.743      581.230      100.022        0.030      344.748       21.784      861.364
06/13/2013  12:54:00     -424.527     -181.784      -17.947      176.992      210.291       90.474    31326.128    44222.399     8185.511       14.865        4.187      461.810       85.632        0.034      344.973       22.168      861.313
06/13/2013  12:55:00     -498.149     -341.874      -17.772      267.155      224.280      106.368    71371.742    50301.398    11314.241       24.914        6.649      604.177      123.384        0.042      344.542       21.432      861.410
06/13/2013  12:56:00     -127.258      -90.080        1.466      101.788       81.528       48.857    10360.873     6646.880     2387.028        2.185        0.970      155.913       49.544        0.101      344.722       21.740      861.442
06/13/2013  12:57:00     -239.859     -135.008        5.206      153.270      140.499       63.708    23491.694    19740.108     4058.735        6.153        2.365      275.244       69.679        0.064      344.842       21.945      861.432
06/13/2013  12:58:00     -163.146     -167.652        9.535      114.747      107.163       62.545    13166.976    11483.867     3911.903        4.168        1.428      233.931       66.984        0.082      345.044       22.292      861.431
06/13/2013  12:59:00     -187.847     -337.331       -4.936      154.670      175.362       88.503    23922.763    30752.001     7832.707       10.579        3.125      386.107       96.064        0.062      344.957       22.141      861.457
06/13/2013  13:00:00     -247.868     -251.500      -13.327      105.352      207.046       67.979    11098.951    42867.987     4621.086        9.172        2.929      353.116       51.085        0.021      344.888       22.022      861.461
06/13/2013  13:01:00     -375.737     -250.771      -16.061      202.227      149.869       75.983    40895.957    22460.761     5773.443       13.671        3.457      451.735       71.817        0.025      344.757       21.799      861.423
06/13/2013  13:02:00     -183.889      -58.125       25.333      138.296      102.482       67.636    19125.765    10502.599     4574.629        3.601        1.710      192.857       68.160        0.125      345.102       22.390      861.407
06/13/2013  13:03:00      -94.351     -106.856        9.412       97.008      117.032       55.230     9410.586    13696.516     3050.301        2.328        1.308      142.549       55.215        0.150      345.066       22.330      861.427
06/13/2013  13:04:00      -96.469      -82.045      -13.081       76.204      102.350       55.257     5806.974    10475.426     3053.324        1.777        0.967      126.640       50.193        0.157      345.147       22.469      861.399
06/13/2013  13:05:00     -232.470     -112.787       -5.640      184.244      142.511       71.047    33945.761    20309.427     5047.661        6.304        2.965      258.386       67.945        0.069      345.054       22.310      861.371
06/13/2013  13:06:00     -375.353     -183.921       -6.439      172.004      187.970       93.390    29585.402    35332.695     8721.763       12.418        3.682      417.991       96.225        0.053      344.649       21.614      861.388
06/13/2013  13:07:00     -263.242      -74.281       12.990      219.884      113.627       78.689    48349.091    12911.120     6191.943        7.120        3.373      273.521       97.192        0.126      344.902       22.048      861.360
06/13/2013  13:08:00     -114.251     -345.483       11.006       81.291      155.576       66.551     6608.202    24203.970     4429.060        8.388        1.762      363.884       70.408        0.037      344.676       21.662      861.368
06/13/2013  13:09:00     -131.188     -123.281        3.784      107.494      154.549       54.104    11555.046    23885.285     2927.240        3.539        1.918      180.023       50.601        0.079      344.751       21.792      861.294
06/13/2013  13:10:00      -57.383      -88.795        8.283      162.503       92.865       58.267    26407.244     8623.917     3395.046        2.483        1.921      105.723       53.490        0.256      345.067       22.332      861.284
06/13/2013  13:11:00     -308.501      -95.401        5.141      171.014      114.049       74.554    29245.708    13007.257     5558.359        7.605        2.391      322.915       72.680        0.051      345.193       22.545      861.340
06/13/2013  13:12:00     -254.423     -147.948        2.583      254.961      178.353       88.636    65005.358    31809.853     7856.359        9.563        5.234      294.312      111.060        0.142      345.425       22.944      861.335
06/13/2013  13:13:00     -474.059     -174.723       -9.144      253.848      161.272      102.548    64438.621    26008.571    10516.189       17.813        5.048      505.233      129.256        0.065      345.057       22.313      861.363
06/13/2013  13:14:00     -441.968     -169.670      -33.137      225.224      171.430       84.813    50725.934    29388.203     7193.188       15.625        4.365      473.417       83.999        0.031      344.969       22.163      861.353
06/13/2013  13:15:00     -332.265      -79.017       -6.259      197.997      161.789       96.801    39202.662    26175.805     9370.387        9.570        3.737      341.531      103.597        0.092      345.206       22.567      861.380
06/13/2013  13:16:00     -551.184      -98.352      -37.352      322.292      175.253      114.420   103872.037    30713.515    13091.834       23.125        7.384      559.890      129.729        0.054      344.926       22.090      861.356
06/13/2013  13:17:00     -534.084     -329.690      -31.252      221.922      202.626      112.085    49249.453    41057.096    12563.058       24.887        5.143      627.647      114.827        0.033      344.822       21.909      861.374
06/13/2013  13:18:00     -336.624     -337.565        1.442      233.805      195.011      108.749    54664.716    38029.179    11826.405       16.587        5.226      476.725      120.889        0.064      344.687       21.679      861.426
06/13/2013  13:19:00     -295.269     -230.527        3.157      178.015      141.889       83.554    31689.308    20132.449     6981.237        9.956        2.940      374.602       88.853        0.056      344.501       21.361      861.438
06/13/2013  13:20:00      -82.644     -162.400        1.445       84.423       69.585       43.710     7127.243     4842.081     1910.569        2.354        0.694      182.219       33.809        0.034      344.602       21.536      861.414
06/13/2013  13:21:00     -189.624     -158.617       -6.153       93.225       84.691       50.140     8690.963     7172.567     2513.996        3.976        0.919      247.218       47.254        0.037      344.583       21.503      861.346
06/13/2013  13:22:00     -169.080     -115.225       21.974      107.217       92.230       57.883    11495.590     8506.322     3350.459        3.285        1.168      204.609       65.820        0.103      344.732       21.757      861.320
06/13/2013  13:23:00     -259.453      -38.604       -8.194      167.038      188.887       87.645    27901.646    35678.201     7681.569        7.005        3.563      262.310       93.199        0.126      345.039       22.283      861.267
06/13/2013  13:24:00     -283.774     -184.562        5.674      176.648      200.613       98.123    31204.364    40245.458     9628.099        9.783        4.054      338.513      101.936        0.091      345.013       22.239      861.258
06/13/2013  13:25:00     -345.633     -203.737      -11.868      164.011       97.581       65.440    26899.644     9522.134     4282.342       10.090        2.035      401.212       56.382        0.020      345.046       22.293      861.286
06/13/2013  13:26:00     -171.898     -126.711       -3.596      123.763       80.416       54.948    15317.312     6466.686     3019.303        3.521        1.240      213.552       47.513        0.050      345.413       22.923      861.290
06/13/2013  13:27:00     -398.533     -109.267        6.409      222.469      142.089       81.240    49492.350    20189.316     6599.940       12.353        3.814      413.241       85.178        0.042      345.305       22.735      861.241
06/13/2013  13:28:00     -429.615     -289.321       -3.841      175.228      175.343       86.809    30704.936    30745.187     7535.856       16.862        3.449      517.953       78.050        0.023      345.384       22.873      861.258
06/13/2013  13:29:00     -316.706     -236.775        9.738      211.137      140.079       94.474    44578.757    19622.138     8925.250       11.478        3.656      395.430      103.739        0.069      345.163       22.495      861.349
06/13/2013  13:30:00     -257.914     -201.848       11.929      158.291      125.019       79.113    25056.005    15629.748     6258.936        7.717        2.347      327.509       92.830        0.080      344.736       21.763      861.345
06/13/2013  13:31:00     -218.474     -154.041      -21.387      104.929      101.105       57.983    11010.028    10222.217     3362.057        4.825        1.230      267.319       41.076        0.024      344.685       21.675      861.347
06/13/2013  13:32:00     -239.576     -221.437       -3.294      167.722      139.615       71.190    28130.651    19492.395     5068.014        7.956        2.635      326.238       75.877        0.054      344.830       21.923      861.373
06/13/2013  13:33:00     -161.391     -160.998        4.773      123.328       81.425       62.898    15209.843     6629.976     3956.195        3.889        1.290      227.964       62.032        0.074      345.272       22.681      861.338
06/13/2013  13:34:00     -228.514     -119.378       -4.150      191.325      187.998       64.470    36605.114    35343.233     4156.401        7.128        3.805      257.817       71.585        0.077      345.068       22.332      861.364
06/13/2013  13:35:00     -246.006      -96.968       -6.118      180.670      102.640       56.634    32641.629    10534.936     3207.461        5.816        2.319      264.427       63.080        0.057      344.831       21.926      861.333
06/13/2013  13:36:00     -387.257      -43.655      -26.175      162.588      141.328       64.527    26434.761    19973.463     4163.726       10.156        2.529      389.710       66.886        0.029      344.973       22.169      861.302
06/13/2013  13:37:00     -545.795     -169.512      -22.379      255.708      167.066      100.468    65386.700    27911.212    10093.909       21.524        5.170      571.512      107.995        0.036      344.947       22.124      861.310
06/13/2013  13:38:00     -202.203     -106.440      -13.805      169.020      122.095       73.034    28567.704    14907.180     5334.020        5.060        2.440      228.507       82.242        0.130      345.019       22.248      861.305
06/13/2013  13:39:00     -352.711     -118.952      -19.382       90.319       76.345       50.261     8157.586     5828.534     2526.120        7.772        0.826      372.229       33.683        0.008      344.606       21.540      861.288
06/13/2013  13:40:00     -357.623      -92.293      -25.868      128.030      104.783       55.468    16391.808    10979.462     3076.719        8.376        1.522      369.340       51.794        0.020      344.694       21.690      861.280
06/13/2013  13:41:00     -336.164      -68.461       -8.390      209.665      153.679       88.559    43959.603    23617.301     7842.637        9.658        3.771      343.064       90.793        0.070      345.268       22.673      861.297
06/13/2013  13:42:00     -166.746      -75.877        3.312      156.955      110.179       68.545    24634.753    12139.517     4698.369        3.751        2.074      183.198       81.834        0.200      345.154       22.479      861.326
06/13/2013  13:43:00     -202.826     -152.589        3.146      121.163      105.632       56.477    14680.435    11158.146     3189.599        4.672        1.451      253.814       50.929        0.040      345.065       22.327      861.289
06/13/2013  13:44:00     -219.186     -197.835        5.703      145.810      122.617       73.571    21260.661    15034.891     5412.761        6.445        2.085      295.264       76.422        0.067      345.148       22.469      861.286
06/13/2013  13:45:00     -249.402     -142.565       13.607      163.180      127.679       73.008    26627.674    16301.818     5330.151        6.548        2.413      287.273       82.833        0.083      345.414       22.924      861.335
06/13/2013  13:46:00     -379.359      -75.553      -13.238      211.162      126.372      106.680    44589.279    15969.851    11380.584       11.085        3.597      386.810      104.157        0.073      345.416       22.930      861.295
06/13/2013  13:47:00     -534.346     -128.066      -29.421      202.027      204.699       90.423    40814.798    41901.476     8176.357       19.682        4.545      549.478       97.045        0.031      345.032       22.270      861.248
06/13/2013  13:48:00     -203.271     -130.869       -3.356      219.509      127.872       74.256    48184.319    16351.172     5513.947        6.424        3.502      241.756       89.190        0.136      345.275       22.685      861.309
06/13/2013  13:49:00     -272.637      -23.441       -8.657      141.404      140.004       69.074    19995.069    19601.182     4771.254        5.965        2.218      273.643       72.900        0.071      345.300       22.729      861.324
06/13/2013  13:50:00     -338.014     -125.522      -13.498      205.457      170.484       89.484    42212.561    29064.964     8007.407       10.472        3.964      360.568      103.451        0.082      345.187       22.535      861.305
06/13/2013  13:51:00     -449.472     -185.165      -23.559      188.211      151.817       76.339    35423.528    23048.463     5827.589       15.057        3.215      486.118       82.192        0.029      345.021       22.250      861.305
06/13/2013  13:52:00     -248.193     -128.321      -18.544      155.819       93.249       65.623    24279.553     8695.388     4306.322        5.784        1.864      279.403       67.561        0.058      345.222       22.595      861.302
06/13/2013  13:53:00     -189.366      -38.838       -9.824      139.904      136.770       71.950    19573.106    18705.942     5176.848        4.045        2.173      193.307       74.140        0.147      345.415       22.925      861.273
06/13/2013  13:54:00     -313.558     -162.780       -7.068      203.336      128.228       79.848    41345.347    16442.453     6375.681        9.450        3.208      353.293      102.051        0.083      345.472       23.024      861.256
06/13/2013  13:55:00     -239.253       -5.543      -21.421      211.193      124.076       76.862    44602.340    15394.866     5907.713        6.180        3.295      239.317       84.443        0.125      345.320       22.762      861.238
06/13/2013  13:56:00     -398.269     -228.694      -10.162      262.972      182.967       98.083    69154.291    33477.085     9620.200       16.161        5.613      459.259      109.677        0.057      345.250       22.643      861.291
06/13/2013  13:57:00     -632.434     -473.479      -19.923      260.105      213.110      123.616    67654.761    45415.999    15280.907       37.643        6.418      790.035      119.082        0.023      344.949       22.127      861.266
06/13/2013  13:58:00     -349.145     -334.221        1.690      251.542      209.943      106.801    63273.274    44076.210    11406.425       17.616        5.938      483.328      109.550        0.051      345.114       22.410      861.268
06/13/2013  13:59:00     -498.368     -276.611      -27.011      203.674      211.576       91.379    41483.115    44764.534     8350.178       21.009        4.730      569.986      106.778        0.035      344.978       22.176      861.280
06/13/2013  14:00:00     -350.547     -146.704      -13.726      158.219      144.343       78.677    25033.186    20834.926     6190.089        9.832        2.603      380.007       73.575        0.037      345.131       22.438      861.260
06/13/2013  14:01:00     -194.769     -129.159      -19.283      197.254       99.667       68.407    38909.077     9933.515     4679.535        5.424        2.676      233.702       84.721        0.131      345.361       22.834      861.228
06/13/2013  14:02:00     -184.546     -236.490       15.469      177.081      179.445       82.060    31357.843    32200.482     6733.783        8.024        3.515      299.974       79.063        0.069      345.683       23.385      861.237
06/13/2013  14:03:00     -191.376     -140.980        6.030      199.903      180.266      108.163    39961.350    32495.748    11699.216        7.033        4.208      237.698       94.859        0.159      345.558       23.171      861.243
06/13/2013  14:04:00     -303.299     -138.085       -3.100      236.564      195.520       88.175    55962.682    38227.944     7774.900       10.650        5.098      333.253       74.437        0.050      345.469       23.017      861.275
06/13/2013  14:05:00     -352.869     -208.479       18.990      274.893      181.322       92.647    75566.068    32877.841     8583.488       14.266        5.851      409.854      113.642        0.077      345.179       22.521      861.278
06/13/2013  14:06:00     -433.313     -283.583        1.566      207.813      187.931       81.156    43186.449    35317.951     6586.288       17.662        4.255      517.861       82.201        0.025      345.205       22.566      861.273
06/13/2013  14:07:00     -487.477     -149.039      -25.346      226.375      200.330       87.086    51245.550    40132.012     7583.996       17.971        4.948      509.751       96.855        0.036      345.004       22.222      861.259
06/13/2013  14:08:00     -385.693     -116.260      -28.116      169.290      110.305       67.466    28659.146    12167.256     4551.632       10.421        2.269      402.834       75.744        0.035      345.165       22.497      861.283
06/13/2013  14:09:00     -309.698       20.074       10.456      206.107      129.016       78.991    42479.964    16645.091     6239.542        8.088        3.268      310.348       92.636        0.089      345.499       23.071      861.268
06/13/2013  14:10:00     -392.923     -119.490       -1.842      212.506      127.308       82.983    45158.822    16207.238     6886.160       11.845        3.413      410.691       92.143        0.050      345.428       22.948      861.266
06/13/2013  14:11:00     -572.872     -207.012      -32.527      222.208      182.681      101.371    49376.259    33372.322    10275.998       23.254        4.651      609.128       83.145        0.019      345.212       22.578      861.252
06/13/2013  14:12:00     -521.809     -286.103      -12.254      213.851      254.808       96.083    45732.114    64927.202     9231.853       23.707        5.995      595.096      110.546        0.035      345.368       22.845      861.271
06/13/2013  14:13:00     -395.993     -210.984      -12.981      231.263      201.262      102.324    53482.487    40506.308    10470.158       15.296        5.223      448.692      107.670        0.058      345.381       22.867      861.306
06/13/2013  14:14:00     -281.790      -76.453       -5.479      168.288      133.981       75.588    28320.743    17950.988     5713.539        6.862        2.599      291.978       60.005        0.042      345.258       22.658      861.275
06/13/2013  14:15:00     -268.027     -107.261       -4.747      176.852      183.157       67.394    31276.726    33546.652     4542.003        7.635        3.468      288.693       55.407        0.037      345.430       22.951      861.249
06/13/2013  14:16:00     -222.351     -232.574       14.355      171.368      149.862       81.884    29366.867    22458.556     6705.043        8.112        2.927      321.762       77.682        0.058      345.326       22.772      861.214
06/13/2013  14:17:00     -373.040     -243.957       -6.970      173.311      169.019       96.878    30036.556    28567.345     9385.288       13.334        3.399      445.728      102.844        0.053      345.292       22.713      861.189
06/13/2013  14:18:00     -441.394     -310.567      -14.171      244.744      227.646      101.313    59899.661    51822.482    10264.381       20.671        6.099      539.704      122.197        0.051      345.061       22.319      861.167
06/13/2013  14:19:00     -396.071     -268.273      -25.686      290.576      200.231      103.073    84434.389    40092.561    10624.010       18.230        6.758      478.376      129.345        0.073      345.262       22.663      861.168
06/13/2013  14:20:00     -681.073     -464.170      -19.377      258.190      247.070      119.931    66662.178    61043.360    14383.445       41.086        7.104      824.205      124.741        0.023      345.070       22.333      861.248
06/13/2013  14:21:00     -400.928     -119.348        3.703      234.040      170.920       90.270    54774.952    29213.795     8148.757       13.355        4.607      418.315      104.012        0.062      345.324       22.770      861.300
06/13/2013  14:22:00     -434.489     -178.804        0.349      257.121      221.855      108.354    66111.298    49219.728    11740.639       17.389        6.354      469.842      112.678        0.058      345.299       22.726      861.350
06/13/2013  14:23:00     -243.138      -77.585       18.826      180.292      169.007       92.276    32505.280    28563.310     8514.948        6.752        3.479      255.216       82.111        0.104      345.291       22.715      861.337
06/13/2013  14:24:00     -506.355     -387.615      -34.823      221.762      216.124      102.828    49178.425    46709.473    10573.545       25.714        5.323      637.684      102.185        0.026      345.014       22.238      861.247
06/13/2013  14:25:00     -359.010     -281.467       10.234      256.322      174.014      107.327    65700.735    30280.918    11519.088       15.784        5.375      456.193      121.024        0.070      345.296       22.722      861.223
06/13/2013  14:26:00     -291.266     -242.489       -8.638      215.173      159.656       84.824    46299.282    25490.029     7195.087       11.133        3.949      378.994       92.416        0.059      345.287       22.706      861.272
06/13/2013  14:27:00     -490.336     -188.399      -13.835      209.273      149.357       91.942    43795.396    22307.568     8453.373       17.532        3.728      525.284       96.686        0.034      345.146       22.465      861.291
06/13/2013  14:28:00     -486.951     -101.879       -7.948      260.396      194.971       98.543    67805.839    38013.596     9710.643       18.152        5.777      497.494      114.729        0.053      345.380       22.866      861.310
06/13/2013  14:29:00     -142.560        6.020       25.659      185.289       99.795       71.460    34331.917     9959.065     5106.581        3.520        2.470      142.687       89.625        0.395      345.973       23.885      861.321
06/13/2013  14:30:00     -350.584     -106.234        5.973      212.367      179.536       89.418    45099.555    32233.186     7995.664       10.976        4.266      366.326      100.329        0.075      345.578       23.206      861.345
06/13/2013  14:31:00     -477.973      -65.833      -34.740      156.398      185.346       73.910    24460.487    34353.079     5462.630       14.912        3.214      482.486       78.761        0.027      345.294       22.717      861.315
06/13/2013  14:32:00     -362.938      -64.392      -14.685      161.484      122.799       70.193    26076.922    15079.568     4927.032        9.108        2.304      368.606       81.597        0.049      345.630       23.295      861.324
06/13/2013  14:33:00     -304.624      -94.398      -14.062      142.001       95.151       58.613    20164.293     9053.652     3435.463        6.727        1.633      318.915       72.822        0.052      345.672       23.366      861.319
06/13/2013  14:34:00     -239.744     -190.261        4.903      191.266      155.499       93.715    36582.601    24179.902     8782.593        8.161        3.477      306.066       86.657        0.080      345.571       23.191      861.306
06/13/2013  14:35:00     -326.233     -271.869      -18.442      188.992      180.319       89.894    35718.150    32515.062     8080.946       12.848        3.816      424.666      102.521        0.058      345.448       22.984      861.300
06/13/2013  14:36:00     -309.851     -172.891        2.946      214.469      201.110       95.946    45997.159    40445.420     9205.635       11.076        4.782      354.822       99.326        0.078      345.547       23.152      861.295
06/13/2013  14:37:00     -405.256     -323.695       -0.294      273.210      227.697      107.631    74643.507    51846.080    11584.472       20.351        6.904      518.663      112.451        0.047      345.265       22.668      861.276
06/13/2013  14:38:00     -334.413     -219.346      -10.729      217.085      147.121       91.167    47125.991    21644.729     8311.459       11.856        3.854      399.931      101.549        0.064      345.178       22.519      861.267
06/13/2013  14:39:00     -464.091     -327.352       -8.484      258.720      191.109      104.331    66935.937    36522.699    10884.992       21.845        5.717      567.926      135.045        0.057      345.218       22.589      861.256
06/13/2013  14:40:00     -382.139     -278.598       -8.075      189.004      155.141       97.074    35722.386    24068.715     9423.345       14.645        3.461      472.913       91.109        0.037      345.191       22.543      861.268
06/13/2013  14:41:00     -335.482     -271.274       -4.776      179.528      170.568       91.738    32230.323    29093.290     8415.851       12.794        3.487      431.437       86.602        0.040      345.334       22.786      861.294
06/13/2013  14:42:00     -485.316     -321.365       -3.602      323.953      214.549       96.545   104945.816    46031.206     9320.887       24.953        8.015      582.071      112.523        0.037      345.343       22.802      861.288
06/13/2013  14:43:00     -563.420     -402.775      -13.358      238.777      181.521      113.093    57014.405    32949.969    12790.070       29.128        5.138      692.582      112.528        0.026      345.159       22.487      861.273
06/13/2013  14:44:00     -335.699     -221.227       -4.564      213.629      171.231       98.372    45637.396    29320.031     9677.106       12.313        4.232      402.039      110.450        0.075      345.372       22.853      861.313
06/13/2013  14:45:00     -191.292      -75.697       -3.255      127.550      129.437       62.235    16268.973    16753.827     3873.214        3.961        1.845      205.725       35.581        0.030      345.849       23.671      861.323
06/13/2013  14:46:00     -200.196     -149.023       27.057      183.397      131.748       85.275    33634.353    17357.469     7271.864        6.063        2.913      249.572       95.967        0.148      345.865       23.699      861.296
06/13/2013  14:47:00     -288.720     -175.295       -3.261      238.272      168.587       81.306    56773.779    28421.514     6610.585       10.293        4.590      337.768       91.075        0.073      345.830       23.638      861.288
06/13/2013  14:48:00     -347.386     -299.610       -2.776      264.042      192.897      105.175    69718.398    37209.159    11061.808       16.420        5.899      458.741      111.132        0.059      345.371       22.850      861.263
06/13/2013  14:49:00     -482.183     -125.448      -29.062      214.301      180.964       94.864    45924.869    32747.862     8999.164       16.836        4.384      498.235       98.930        0.039      345.697       23.409      861.262
06/13/2013  14:50:00     -592.920     -126.485      -32.124      298.616      205.568      105.257    89171.301    42258.196    11079.075       25.552        7.125      606.261      122.480        0.041      345.382       22.870      861.309
06/13/2013  14:51:00     -367.897      -30.407       -9.903      228.308      239.464      100.461    52124.317    57343.084    10092.463       12.794        5.978      369.151      113.536        0.095      345.448       22.982      861.329
06/13/2013  14:52:00     -423.067      -59.387      -41.892      170.492      121.257       77.076    29067.508    14703.272     5940.701       11.698        2.486      427.214       76.563        0.032      345.177       22.519      861.278
06/13/2013  14:53:00     -220.101      -84.686        6.635      185.069      108.348       84.132    34250.399    11739.283     7078.227        5.435        2.653      235.831       85.649        0.132      345.604       23.252      861.292
06/13/2013  14:54:00     -373.103     -163.144      -10.434      198.852      150.041       83.330    39542.137    22512.205     6943.826       11.745        3.450      407.212       89.420        0.048      345.343       22.803      861.296
06/13/2013  14:55:00     -373.893     -271.215      -21.901      194.001      173.581       88.523    37636.415    30130.525     7836.259       14.470        3.780      461.903       85.311        0.034      345.198       22.553      861.281
06/13/2013  14:56:00     -249.864     -257.332        5.165      196.911      166.798       80.264    38773.879    27821.582     6442.236       10.084        3.652      358.681       93.412        0.068      345.368       22.845      861.256
06/13/2013  14:57:00     -315.386     -248.061       -9.690      178.614      152.457       82.934    31903.009    23243.050     6878.060       11.155        3.101      401.251       77.953        0.038      345.164       22.496      861.173
06/13/2013  14:58:00     -502.511     -315.466       -0.170      273.884      225.837      103.354    75012.305    51002.356    10682.104       24.434        6.835      593.326      116.299        0.038      345.228       22.606      861.258
06/13/2013  14:59:00     -400.079     -196.472      -21.638      223.769      235.312      111.099    50072.738    55371.809    12343.013       15.844        5.889      445.718      105.428        0.056      345.438       22.965      861.336
06/13/2013  15:00:00     -477.396      -81.213      -29.732      247.482      203.352       92.380    61247.127    41352.043     8534.135       17.324        5.557      484.254      111.680        0.053      345.494       23.059      861.344
06/13/2013  15:01:00     -479.814      -49.622      -10.117      268.961      278.095      127.409    72339.992    77337.068    16232.946       19.931        8.296      482.373      131.104        0.074      345.395       22.893      861.315
06/13/2013  15:02:00     -521.665     -342.353      -17.734      320.392      220.469      125.939   102651.226    48606.786    15860.653       27.835        8.356      623.971      157.947        0.064      345.326       22.773      861.352
06/13/2013  15:03:00     -480.624     -141.597       -9.865      262.171      180.917      105.994    68733.781    32730.842    11234.714       18.190        5.635      501.048      121.584        0.059      345.312       22.749      861.359
06/13/2013  15:04:00     -346.808      -32.528       -7.714      246.792      158.777      104.110    60906.081    25210.151    10838.942       10.915        4.848      348.330      106.552        0.094      345.506       23.082      861.400
06/13/2013  15:05:00     -571.360     -179.044      -42.140      264.715      233.711      106.839    70073.811    54620.745    11414.655       24.817        6.805      598.757      130.639        0.048      345.117       22.415      861.452
06/13/2013  15:06:00     -301.629      -81.162        4.106      168.223      110.529       66.701    28298.998    12216.632     4449.055        7.127        2.248      312.357       76.918        0.061      345.023       22.254      861.451
06/13/2013  15:07:00     -287.995       23.349      -10.874      143.509       96.723       61.901    20594.914     9355.407     3831.716        5.869        1.689      288.940       68.648        0.056      345.141       22.456      861.421
06/13/2013  15:08:00     -256.513       70.051      -13.022      111.757       88.811       58.350    12489.517     7887.479     3404.742        4.732        1.189      265.906       63.995        0.058      345.381       22.866      861.378
06/13/2013  15:09:00     -422.636       87.715      -34.372      200.919       78.833       61.230    40368.528     6214.598     3749.063       11.890        2.517      431.643       71.510        0.027      345.096       22.380      861.351
06/13/2013  15:10:00     -282.754      -17.492       -5.376      121.154      118.008       62.544    14678.311    13925.992     3911.755        5.639        1.626      283.294       58.864        0.043      345.418       22.931      861.319
06/13/2013  15:11:00     -378.633     -106.412      -35.760      140.596      129.077       56.551    19767.167    16660.930     3198.041        9.779        1.981      393.302       55.246        0.020      345.066       22.329      861.271
06/13/2013  15:12:00     -671.963      -91.634      -53.787      261.699      213.824       87.063    68486.183    45720.694     7579.894       29.228        6.089      678.183      109.247        0.026      345.345       22.806      861.239
06/13/2013  15:13:00     -347.482     -208.365       -7.057      232.782      187.134       98.051    54187.506    35019.275     9614.044       13.150        4.941      405.167       89.955        0.049      345.438       22.965      861.294
06/13/2013  15:14:00     -339.701       -5.505       17.593      273.977      184.630       98.433    75063.259    34088.375     9688.985       11.726        5.942      339.746      118.745        0.122      345.742       23.486      861.337
06/13/2013  15:15:00     -673.548      -57.366      -35.164      268.611      182.496       98.939    72151.646    33304.759     9788.835       28.670        5.762      675.987      104.466        0.024      345.523       23.111      861.368
06/13/2013  15:16:00     -554.094     -172.280       -1.999      260.870      219.445      120.753    68053.070    48156.245    14581.297       23.372        6.540      580.259      118.874        0.042      345.392       22.886      861.373
06/13/2013  15:17:00     -468.904     -166.634        2.261      293.107      147.002      101.101    85911.795    21609.724    10221.382       18.267        5.887      497.633      132.789        0.071      345.113       22.407      861.319
06/13/2013  15:18:00     -210.647      -68.710      -29.621      143.721      134.387       81.794    20655.747    18059.800     6690.279        4.768        2.270      221.570       64.555        0.085      345.706       23.426      861.348
06/13/2013  15:19:00     -367.544     -105.741      -39.060      163.294      130.365       62.626    26665.031    16994.997     3921.960        9.768        2.379      382.453       50.927        0.018      345.593       23.231      861.377
06/13/2013  15:20:00     -279.072      -73.450      -10.015      180.345       87.572       67.177    32524.477     7668.902     4512.700        6.403        2.235      288.576       80.335        0.077      345.193       22.544      861.377
06/13/2013  15:21:00      -49.581      -42.755       24.126      125.917       94.730       64.704    15855.083     8973.807     4186.557        1.694        1.451       65.469       75.646        1.335      345.527       23.119      861.351
06/13/2013  15:22:00     -123.258     -118.899       12.975      143.329      115.543       70.716    20543.115    13350.299     5000.762        3.419        1.945      171.258       74.083        0.187      345.634       23.303      861.398
06/13/2013  15:23:00     -231.429     -169.029        8.067      203.496      126.864       88.367    41410.712    16094.430     7808.780        7.374        3.266      286.583      115.497        0.162      345.394       22.889      861.421
06/13/2013  15:24:00     -578.729      -95.825      -26.336      220.454      197.132       79.534    48600.107    38860.829     6325.596       21.928        4.689      586.609       84.147        0.021      345.430       22.951      861.416
06/13/2013  15:25:00     -442.802      -59.933      -35.279      265.169      219.144       94.997    70314.532    48023.900     9024.366       16.411        6.368      446.840      121.005        0.073      345.532       23.127      861.403
06/13/2013  15:26:00     -719.771        9.401      -59.936      257.841      193.469       85.359    66482.220    37430.177     7286.117       31.645        5.560      719.832      111.031        0.024      345.296       22.721      861.406
06/13/2013  15:27:00     -402.722     -153.730      -23.531      173.645      149.012       90.832    30152.559    22204.551     8250.413       12.348        3.030      431.066       66.730        0.024      345.600       23.244      861.425
06/13/2013  15:28:00     -498.406     -164.091      -25.474      230.604      167.475       91.218    53178.340    28047.839     8320.726       18.275        4.477      524.723       96.166        0.034      345.433       22.957      861.436
06/13/2013  15:29:00     -616.512     -146.328      -26.989      300.981      208.810      117.617    90589.434    43601.637    13833.874       27.510        7.401      633.639      137.116        0.047      345.313       22.750      861.407
06/13/2013  15:30:00     -551.605     -108.639      -18.772      257.291      189.476      104.485    66198.416    35901.037    10917.175       21.470        5.651      562.201      121.601        0.047      345.364       22.838      861.459
06/13/2013  15:31:00     -240.744      -46.972       21.151      193.816      169.151       93.554    37564.771    28612.202     8752.265        6.776        3.746      245.284      109.204        0.198      345.580       23.210      861.459
06/13/2013  15:32:00     -578.032     -170.186      -14.282      290.078      170.920      105.402    84145.425    29213.498    11109.510       24.385        6.223      602.565      117.036        0.038      345.247       22.638      861.454
06/13/2013  15:33:00     -464.199      -76.956      -21.886      193.964      177.127       89.151    37622.027    31373.827     7947.848       14.940        3.847      470.535       88.757        0.036      345.297       22.723      861.408
06/13/2013  15:34:00     -406.608     -167.146        5.982      253.825      202.456       98.506    64426.941    40988.611     9703.464       15.419        5.756      439.622      129.464        0.087      345.446       22.979      861.395
06/13/2013  15:35:00     -394.332     -140.396       -5.727      226.049      150.017       72.749    51098.034    22505.223     5292.470       12.705        3.945      418.579       82.733        0.039      345.274       22.683      861.416
06/13/2013  15:36:00     -123.702      -58.877       16.184      147.361       95.261       73.407    21715.171     9074.731     5388.542        2.760        1.809      136.999       78.554        0.329      345.454       22.993      861.391
06/13/2013  15:37:00     -173.911     -135.481       14.361      176.357      159.208       95.814    31101.817    25347.300     9180.340        5.720        3.281      220.454      100.407        0.207      345.321       22.764      861.422
06/13/2013  15:38:00     -406.660     -287.189      -15.198      211.299      195.761      104.948    44647.312    38322.260    11014.117       17.101        4.699      497.846      113.057        0.052      345.045       22.292      861.359
06/13/2013  15:39:00     -360.374     -259.049       -1.884      254.967      187.263      108.449    65008.381    35067.618    11761.244       15.439        5.592      443.819      136.109        0.094      345.177       22.518      861.331
06/13/2013  15:40:00     -337.358     -164.429      -19.954      161.078      155.387       86.748    25946.068    24145.156     7525.164        9.942        2.881      375.297       87.130        0.054      345.212       22.578      861.372
06/13/2013  15:41:00     -153.480        3.603        0.352       97.913      121.570       53.416     9587.032    14779.210     2853.313        2.539        1.361      153.522       43.520        0.080      345.580       23.211      861.378
06/13/2013  15:42:00     -390.079       39.607      -33.965      239.862      152.628       90.130    57533.748    23295.279     8123.408       12.190        4.448      392.084      115.170        0.086      345.562       23.179      861.351
06/13/2013  15:43:00     -359.610      -48.001      -11.610      254.377      204.035       95.836    64707.568    41630.311     9184.527       12.362        5.776      362.800      101.682        0.079      345.503       23.077      861.310
06/13/2013  15:44:00     -250.889      -46.697       -1.365      217.887      150.461       78.702    47474.566    22638.389     6193.936        7.070        3.815      255.198       86.377        0.115      345.658       23.342      861.361
06/13/2013  15:45:00     -332.096     -136.756       -7.851      178.941      139.871       80.273    32019.790    19563.833     6443.686        9.353        2.901      359.152       84.832        0.056      345.677       23.376      861.392
06/13/2013  15:46:00     -475.730      -86.219      -30.541      282.023      177.975       98.400    79537.223    31675.271     9682.520       17.777        6.045      483.480      135.276        0.078      345.706       23.425      861.400
06/13/2013  15:47:00     -248.644      -47.218      -16.002      124.076      141.334       57.810    15394.939    19975.425     3341.975        5.150        1.936      253.087       46.567        0.034      345.876       23.717      861.442
06/13/2013  15:48:00     -383.030      -72.274       -7.846      249.176      181.183       99.750    62088.760    32827.205     9950.138       12.841        5.243      389.789      126.406        0.105      345.361       22.835      861.456
06/13/2013  15:49:00     -299.728      -48.575       -6.774      177.486      149.479       72.010    31501.142    22344.011     5185.389        7.562        2.952      303.639       77.485        0.065      345.549       23.155      861.450
06/13/2013  15:50:00     -660.956     -185.664      -35.997      204.209      183.144      102.671    41701.214    33541.856    10541.309       27.919        4.289      686.537      105.304        0.024      345.325       22.771      861.426
06/13/2013  15:51:00     -465.750     -209.902      -23.212      245.759      186.625       89.584    60397.524    34828.806     8025.278       18.237        5.163      510.864      104.868        0.042      345.456       22.996      861.429
06/13/2013  15:52:00     -355.120        8.963       -8.832      219.854      158.726       90.887    48335.595    25193.981     8260.511       10.401        4.090      355.233       94.208        0.070      345.554       23.165      861.438
06/13/2013  15:53:00     -243.300      -25.184       -4.803      164.131      167.295       90.457    26939.028    27987.613     8182.479        6.147        3.155      244.600       70.198        0.082      345.542       23.144      861.444
06/13/2013  15:54:00     -514.181     -118.647      -47.926      247.639      172.606       92.528    61324.838    29792.871     8561.492       19.020        4.984      527.692      109.439        0.043      345.271       22.680      861.417
06/13/2013  15:55:00     -554.129     -106.473      -33.487      213.748      210.530       99.726    45688.304    44323.080     9945.299       20.972        4.998      564.265      105.925        0.035      345.364       22.837      861.416
06/13/2013  15:56:00     -236.123     -108.650       12.129      161.305      160.314       67.621    26019.266    25700.513     4572.594        6.199        2.815      259.921       61.445        0.056      345.437       22.965      861.459
06/13/2013  15:57:00     -445.678     -129.184      -35.706      223.003      162.886       97.340    49730.278    26531.903     9475.064       15.115        4.287      464.023      115.225        0.062      345.588       23.222      861.448
06/13/2013  15:58:00     -618.099      -13.555      -53.392      253.474      198.368       97.088    64249.078    39349.743     9426.088       24.903        5.651      618.247      102.873        0.028      345.299       22.727      861.473
06/13/2013  15:59:00     -327.134     -151.214        8.064      193.075      165.747       87.895    37277.764    27472.123     7725.518       10.120        3.624      360.392       99.653        0.076      345.351       22.816      861.474
06/13/2013  16:00:00     -411.039      -57.720      -12.180      218.841      154.929       86.285    47891.597    24003.147     7445.027       12.587        3.967      415.072       78.370        0.036      345.526       23.116      861.539
06/13/2013  16:01:00     -388.394     -185.462       11.467      321.105      238.497      136.012   103108.336    56880.617    18499.167       18.190        8.924      430.402      133.814        0.097      345.317       22.760      861.538
06/13/2013  16:02:00     -419.286     -209.453       -4.516      225.841      153.243      103.561    51004.061    23483.375    10724.831       15.244        4.261      468.691      113.373        0.059      345.200       22.556      861.564
06/13/2013  16:03:00     -344.417      -70.104      -19.901      231.759      153.500       85.427    53712.225    23562.386     7297.827       10.424        4.229      351.480       82.374        0.055      345.431       22.953      861.571
06/13/2013  16:04:00     -428.089     -102.601      -16.073      262.740      180.773      101.952    69032.339    32678.971    10394.250       15.305        5.605      440.212      112.943        0.066      345.173       22.511      861.581
06/13/2013  16:05:00     -351.996     -111.360       -4.738      201.380      195.666       97.369    40553.841    38285.064     9480.653       11.230        4.416      369.191      108.607        0.087      345.275       22.687      861.601
06/13/2013  16:06:00     -272.477       -2.889        5.423      134.899      188.182       70.272    18197.831    35412.630     4938.129        6.640        2.927      272.492       70.537        0.067      345.198       22.555      861.606
06/13/2013  16:07:00     -192.534      -78.095        7.892      172.477       97.009       71.602    29748.412     9410.818     5126.864        4.375        2.214      207.770       84.621        0.166      345.000       22.216      861.541
06/13/2013  16:08:00     -219.783     -123.158       -6.806      158.978      159.094       65.962    25274.011    25311.001     4350.920        5.922        2.747      251.938       64.979        0.067      345.162       22.493      861.523
06/13/2013  16:09:00     -445.976     -154.620      -17.655      301.607      198.356       91.979    90966.686    39345.049     8460.072       18.091        6.939      472.019      106.708        0.051      345.171       22.508      861.545
06/13/2013  16:10:00     -305.163     -153.964       21.296      306.574      240.717      133.989    93987.801    57944.555    17953.022       14.355        8.494      341.803      171.133        0.251      345.271       22.680      861.537
06/13/2013  16:11:00     -281.464      -95.413      -12.824      210.512      127.468       72.398    44315.418    16248.125     5241.417        7.713        3.290      297.196       78.051        0.069      345.332       22.785      861.552
06/13/2013  16:12:00     -270.857      -72.849       -8.959      173.799      115.667       61.775    30206.008    13378.869     3816.183        6.307        2.370      280.483       60.475        0.046      345.539       23.137      861.566
06/13/2013  16:13:00     -317.361     -224.144       -2.955      237.348      166.614       94.705    56333.954    27760.170     8968.976       12.200        4.653      388.534      108.260        0.078      345.196       22.550      861.547
06/13/2013  16:14:00     -286.704     -101.321        3.803      176.625      138.533       74.403    31196.372    19191.495     5535.751        7.419        2.796      304.081       86.417        0.081      345.402       22.904      861.558
06/13/2013  16:15:00     -395.383     -211.762      -12.842      208.906      201.469      113.021    43641.855    40589.588    12773.747       14.915        4.850      448.520      116.026        0.067      345.175       22.515      861.527
06/13/2013  16:16:00     -456.552     -194.686       -4.105      186.254      178.789      102.015    34690.727    31965.443    10406.964       16.170        3.853      496.329      107.355        0.047      345.196       22.550      861.487
06/13/2013  16:17:00     -157.616     -101.731        8.495      137.900      170.130       76.311    19016.445    28944.304     5823.338        4.451        2.689      187.595       75.611        0.162      345.519       23.105      861.502
06/13/2013  16:18:00     -490.934     -168.879      -25.422      253.330      231.819      103.500    64176.152    53740.009    10712.205       19.938        6.431      519.169      124.739        0.058      345.552       23.160      861.511
06/13/2013  16:19:00     -469.201     -175.945       -6.710      221.457      162.136      105.245    49043.157    26288.116    11076.577       16.876        4.320      501.105      104.783        0.044      345.482       23.040      861.510
06/13/2013  16:20:00     -242.619      -94.531       25.807      186.234      174.613       89.848    34683.202    30489.664     8072.750        7.084        3.662      260.385       90.624        0.121      345.591       23.227      861.517
06/13/2013  16:21:00     -210.855      -85.414        7.875      203.485      134.081       80.903    41406.230    17977.683     6545.340        5.886        3.296      227.499      108.419        0.227      345.718       23.448      861.565
06/13/2013  16:22:00     -311.546     -118.287       13.358      345.712      147.429      109.770   119516.978    21735.344    12049.369       13.224        7.665      333.246      157.393        0.223      345.382       22.870      861.557
06/13/2013  16:23:00     -392.474      -28.781      -23.800      175.812      157.404       78.887    30909.975    24776.131     6223.086       10.866        3.095      393.527       79.204        0.041      345.367       22.844      861.577
06/13/2013  16:24:00     -507.153     -108.193      -11.381      231.011      158.003       93.411    53365.923    24965.102     8725.576       17.803        4.353      518.565       98.407        0.036      345.268       22.674      861.575
06/13/2013  16:25:00     -397.855        8.639        2.360      201.603      145.341       93.825    40643.729    21123.992     8803.126       11.446        3.529      397.949      103.354        0.067      345.349       22.813      861.591
06/13/2013  16:26:00     -280.437     -132.342        3.321      166.599      223.018       84.243    27755.256    49737.050     7096.839        9.036        4.229      310.096       95.888        0.096      345.434       22.957      861.596
06/13/2013  16:27:00     -435.130     -340.562        6.874      239.794      195.117      121.017    57501.210    38070.787    14645.141       20.777        5.511      552.558      139.668        0.064      345.073       22.339      861.537
06/13/2013  16:28:00     -310.889     -164.798       11.973      224.409      177.548       94.684    50359.318    31523.202     8965.090       10.738        4.542      351.867      111.442        0.100      345.323       22.767      861.553
06/13/2013  16:29:00     -530.882     -290.480      -44.498      196.663      209.685       91.457    38676.405    43967.997     8364.360       22.958        4.550      605.157       83.332        0.019      345.154       22.478      861.575
06/13/2013  16:30:00     -219.765       21.082       -7.024      192.014      107.916       73.430    36869.461    11645.956     5391.981        5.134        2.695      220.774       74.809        0.115      345.659       23.344      861.594
06/13/2013  16:31:00     -231.427     -160.429      -20.177      176.457      186.606       79.942    31137.041    34821.881     6390.764        7.601        3.617      281.595       62.652        0.050      345.483       23.044      861.587
06/13/2013  16:32:00     -245.595     -241.267       -4.822      172.992      166.908       78.319    29926.249    27858.150     6133.901        9.122        3.196      344.277       83.538        0.059      345.381       22.868      861.587
06/13/2013  16:33:00     -439.679       41.901      -16.606      195.264      130.375       86.166    38127.993    16997.688     7424.572       12.894        3.128      441.671       95.055        0.046      345.266       22.671      861.597
06/13/2013  16:34:00     -482.704      -46.645      -19.775      191.773      170.587       86.286    36776.940    29099.877     7445.190       15.443        3.666      484.952       91.181        0.035      345.383       22.871      861.566
06/13/2013  16:35:00     -563.946      -83.659      -13.715      240.813      179.479       91.621    57991.026    32212.566     8394.381       21.189        4.930      570.118      110.257        0.037      345.302       22.733      861.575
06/13/2013  16:36:00     -639.752      -75.358      -29.425      288.273      162.825      105.383    83101.264    26512.139    11105.551       26.825        6.036      644.175      130.729        0.041      345.172       22.510      861.599
06/13/2013  16:37:00     -416.816     -183.848       -7.370      231.991      145.149       92.444    53819.975    21068.306     8545.982       14.550        4.172      455.560       91.970        0.041      345.109       22.400      861.632
06/13/2013  16:38:00     -309.183     -206.828        8.462      223.004      154.570      100.689    49730.653    23892.024    10138.371       11.109        4.188      371.984      118.450        0.101      345.125       22.429      861.639
06/13/2013  16:39:00     -319.171     -180.518       -3.895      222.647      191.617       79.319    49571.889    36717.015     6291.515       11.351        4.629      366.684       91.771        0.063      345.094       22.376      861.607
06/13/2013  16:40:00     -236.242     -134.098       13.123      133.289      136.768       75.992    17765.971    18705.493     5774.798        5.810        2.112      271.648       71.978        0.070      345.251       22.643      861.614
06/13/2013  16:41:00     -235.060     -104.297       -2.010      252.363      114.166       68.586    63687.317    13033.912     4703.982        7.376        4.071      257.160      109.519        0.181      345.296       22.723      861.591
06/13/2013  16:42:00     -323.958      -91.890      -19.680      199.501      186.077       85.881    39800.515    34624.654     7375.510        9.777        4.090      336.738       95.262        0.080      345.316       22.756      861.584
06/13/2013  16:43:00     -367.619      -92.438      -19.140      186.051      144.771       75.501    34614.895    20958.746     5700.389       10.265        3.064      379.062       82.513        0.047      345.535       23.130      861.611
06/13/2013  16:44:00     -270.047      -30.005       -9.845      134.335      101.035       56.383    18045.758    10208.023     3179.003        5.267        1.572      271.708       56.979        0.044      345.569       23.190      861.621
06/13/2013  16:45:00     -458.109      -53.097      -34.637      203.940      130.729       86.201    41591.482    17090.115     7430.677       13.998        3.306      461.176      105.427        0.052      345.365       22.839      861.616
06/13/2013  16:46:00     -359.526      -21.039       -4.840      182.070      146.943       77.413    33149.428    21592.128     5992.743        9.522        3.037      360.141       88.893        0.061      345.505       23.080      861.600
06/13/2013  16:47:00     -302.012      -63.514       -0.382      155.085      148.613       74.380    24051.504    22085.749     5532.341        7.345        2.583      308.618       72.025        0.054      345.555       23.167      861.612
06/13/2013  16:48:00     -405.290      -88.280       -0.777      229.366      157.738       92.527    52608.581    24881.226     8561.286       12.903        4.303      414.793      100.456        0.059      345.553       23.162      861.635
06/13/2013  16:49:00     -468.319     -177.317       -1.831      328.676      223.765       89.156   108027.623    50070.697     7948.717       20.837        8.302      500.764      119.405        0.057      345.018       22.244      861.633
06/13/2013  16:50:00     -217.426        6.067      -11.960      127.883       85.574       61.970    16353.973     7322.919     3840.273        3.748        1.376      217.511       63.656        0.086      345.395       22.891      861.651
06/13/2013  16:51:00     -256.979      -45.244      -10.348      152.431      105.841       66.801    23235.281    11202.259     4462.366        5.354        1.945      260.931       73.283        0.079      345.264       22.667      861.621
06/13/2013  16:52:00     -137.115     -191.484        8.487      129.124      152.315       61.846    16673.117    23199.832     3824.951        4.961        2.185      235.514       57.128        0.059      345.346       22.809      861.631
06/13/2013  16:53:00     -414.570     -262.882       -8.216      246.040      161.282       91.084    60535.510    26011.920     8296.385       16.792        4.742      490.892       96.937        0.039      345.020       22.249      861.616
06/13/2013  16:54:00     -331.854     -114.076        0.593      237.989      179.184       98.394    56638.754    32106.877     9681.325       11.076        4.921      350.914      115.218        0.108      345.111       22.405      861.616
06/13/2013  16:55:00     -280.387      -61.964        0.702      177.214      114.801       61.234    31404.917    13179.369     3749.577        6.539        2.417      287.152       74.827        0.068      345.075       22.343      861.598
06/13/2013  16:56:00     -310.480       38.629      -16.734      150.222      109.964       65.509    22566.540    12092.117     4291.437        6.855        1.948      312.874       71.652        0.052      345.173       22.511      861.572
06/13/2013  16:57:00     -383.221     -228.113       -5.080      233.363      213.497      103.952    54458.499    45581.063    10805.994       15.486        5.542      445.976      111.803        0.063      345.304       22.735      861.548
06/13/2013  16:58:00     -498.957     -140.901      -27.219      202.165      178.482       89.781    40870.570    31855.996     8060.653       17.515        4.039      518.471      104.238        0.040      345.257       22.654      861.571
06/13/2013  16:59:00     -286.698     -116.507      -18.155      197.739      149.344       76.082    39100.600    22303.749     5788.452        8.163        3.360      309.467       86.429        0.078      345.391       22.884      861.598
06/13/2013  17:00:00     -412.184     -122.825       -0.534      227.084      135.276      106.972    51567.336    18299.596    11442.989       13.313        4.065      430.095      117.174        0.074      345.093       22.375      861.614
06/13/2013  17:01:00     -343.992     -117.713      -18.077      220.449      155.609       92.115    48597.759    24214.155     8485.246       10.689        4.065      363.575      108.021        0.088      345.243       22.631      861.607
06/13/2013  17:02:00     -430.150     -243.781      -28.003      259.822      185.701      120.131    67507.275    34484.719    14431.465       18.081        5.821      494.427      141.141        0.081      345.054       22.307      861.599
06/13/2013  17:03:00     -399.566      -75.367        1.487      218.447      163.317       90.375    47719.016    26672.521     8167.694       12.393        4.128      406.612      101.676        0.063      345.100       22.385      861.590
06/13/2013  17:04:00     -285.486     -217.480       15.327      218.900      146.703       91.118    47917.416    21521.662     8302.420       10.337        3.887      358.887      104.291        0.084      345.254       22.649      861.628
06/13/2013  17:05:00     -355.138     -176.716        0.598      198.761      180.059       94.591    39505.981    32421.228     8947.422       11.910        4.044      396.675      101.371        0.065      345.103       22.391      861.634
06/13/2013  17:06:00     -364.461     -279.187       -7.931      262.994      155.495      102.008    69165.860    24178.833    10405.689       15.727        5.188      459.104      135.443        0.087      345.045       22.293      861.590
06/13/2013  17:07:00     -226.224      -39.306       20.886      207.949      140.033       89.830    43242.943    19609.145     8069.514        6.203        3.546      229.613      106.623        0.216      345.112       22.407      861.560
06/13/2013  17:08:00     -387.844     -122.026       -6.527      193.790      142.069       70.338    37554.522    20183.729     4947.450       11.401        3.134      406.587       84.962        0.044      345.131       22.440      861.519
06/13/2013  17:09:00     -493.785      -28.708      -21.763      185.636      163.324       73.829    34460.707    26674.743     5450.778       15.584        3.329      494.619       64.867        0.017      345.256       22.652      861.544
06/13/2013  17:10:00     -354.401     -226.435      -12.026      189.555      156.724       74.016    35930.938    24562.309     5478.362       12.148        3.299      420.562       79.089        0.035      345.302       22.731      861.537
06/13/2013  17:11:00     -566.698     -313.749      -28.402      250.392      213.664       98.985    62696.040    45652.495     9797.993       26.924        5.907      647.754      113.574        0.031      344.994       22.204      861.561
06/13/2013  17:12:00     -425.010     -224.540       10.569      253.943      176.275      120.286    64486.938    31072.733    14468.750       17.057        5.501      480.678      135.754        0.080      345.097       22.379      861.542
06/13/2013  17:13:00     -276.236      -69.561       -1.127      202.036      158.213       82.182    40818.352    25031.441     6753.961        7.686        3.630      284.860       91.352        0.103      345.106       22.395      861.602
06/13/2013  17:14:00     -269.619     -238.903        2.122      221.593      150.357       91.227    49103.304    22607.308     8322.292       10.489        4.002      360.235      115.436        0.103      345.088       22.367      861.587
06/13/2013  17:15:00     -225.851      -84.648       22.708      180.373      142.968       86.601    32534.382    20439.812     7499.690        5.957        3.024      241.192       99.859        0.171      345.256       22.654      861.582
06/13/2013  17:16:00     -269.463     -330.404       -8.626      163.387      148.669       78.566    26695.195    22102.366     6172.624       11.840        2.749      426.353       74.045        0.030      344.975       22.172      861.569
06/13/2013  17:17:00     -236.375     -231.929        9.943      188.082      114.179       88.373    35374.767    13036.844     7809.754        8.298        2.811      331.156       84.839        0.066      345.090       22.369      861.564
06/13/2013  17:18:00     -427.899     -284.211       -3.503      283.410      177.024      110.816    80321.507    31337.329    12280.286       19.389        6.197      513.686      139.583        0.074      345.064       22.324      861.547
06/13/2013  17:19:00     -251.176     -124.749       14.747      216.044      188.832       97.156    46674.874    35657.350     9439.267        8.530        4.589      280.449       92.745        0.109      345.190       22.540      861.573
06/13/2013  17:20:00     -330.323     -284.578       -9.073      236.896      178.769      112.211    56119.761    31958.358    12591.404       14.540        5.033      436.002      130.261        0.089      345.013       22.236      861.538
06/13/2013  17:21:00     -473.943     -340.695       -7.405      276.048      216.921      119.445    76202.732    47054.812    14267.104       23.911        6.876      583.692      145.342        0.062      344.931       22.096      861.510
06/13/2013  17:22:00     -335.043      -78.019       -6.962      196.350      113.281       72.961    38553.362    12832.538     5323.282        8.754        2.835      344.007       83.186        0.058      345.240       22.626      861.513
06/13/2013  17:23:00     -298.644      -85.961        1.370      227.661      148.517       84.774    51829.397    22057.159     7186.626        8.881        4.054      310.769       96.001        0.095      345.305       22.736      861.527
06/13/2013  17:24:00     -293.824     -253.218        9.090      210.521      176.139       81.641    44319.044    31024.984     6665.285       11.626        4.100      387.882       85.458        0.049      345.277       22.688      861.526
06/13/2013  17:25:00     -386.024     -126.927       -1.465      200.916      165.573       97.777    40367.223    27414.393     9560.337       12.122        3.867      406.356      113.958        0.079      345.117       22.416      861.501
06/13/2013  17:26:00     -234.534     -246.590       10.618      196.197      217.053      101.812    38493.193    47111.944    10365.735       10.593        4.799      340.313      107.959        0.101      345.128       22.433      861.511
06/13/2013  17:27:00     -366.975     -165.620        2.958      233.850      183.437       94.134    54686.013    33648.967     8861.303       12.963        4.860      402.617       96.485        0.057      345.030       22.266      861.515
06/13/2013  17:28:00     -273.577      -66.400       -6.260      137.204      160.737       77.475    18825.056    25836.539     6002.401        6.497        2.533      281.520       68.361        0.059      345.217       22.583      861.506
06/13/2013  17:29:00     -157.906      -17.678        9.912      136.555      115.650       59.868    18647.370    13374.827     3584.144        3.047        1.780      158.892       68.873        0.188      345.374       22.856      861.515
06/13/2013  17:30:00     -394.252      -85.634       -6.960      161.602      180.791       83.353    26115.064    32685.286     6947.786       11.427        3.287      403.445       79.677        0.039      345.299       22.726      861.500
06/13/2013  17:31:00     -367.802     -160.530      -34.246      187.133      143.233       80.684    35018.926    20515.809     6509.890       11.212        3.102      401.308       95.576        0.057      345.141       22.455      861.488
06/13/2013  17:32:00     -403.814     -223.822      -12.357      198.504      154.119       88.446    39403.738    23752.515     7822.682       14.213        3.549      461.695      102.830        0.050      344.950       22.130      861.486
06/13/2013  17:33:00     -319.660      -90.617      -24.028      215.998       97.855       74.788    46655.004     9575.622     5593.276        8.639        3.091      332.256       92.840        0.078      345.046       22.295      861.507
06/13/2013  17:34:00     -284.509     -177.629        2.145      182.028      130.151       66.535    33134.174    16939.183     4426.923        8.349        2.725      335.407       77.544        0.053      345.143       22.460      861.498
06/13/2013  17:35:00     -381.435     -187.891       -1.345      276.980      153.569      108.449    76717.884    23583.574    11761.173       14.641        5.603      425.201      128.501        0.091      345.070       22.335      861.499
06/13/2013  17:36:00     -516.741     -299.923      -20.016      193.601      162.880      103.910    37481.373    26530.003    10797.313       21.608        3.740      597.473      103.899        0.030      344.807       21.883      861.513
06/13/2013  17:37:00     -352.321     -124.663      -16.739      203.017      192.363       93.190    41215.917    37003.628     8684.341       11.341        4.345      373.726       99.502        0.071      344.929       22.093      861.527
06/13/2013  17:38:00     -317.707     -136.307       -5.780      207.232      202.048       83.462    42944.974    40823.507     6965.971       10.512        4.537      345.713       94.572        0.075      345.024       22.256      861.527
06/13/2013  17:39:00     -249.045      -94.612        7.339      190.217      140.190       64.755    36182.563    19653.187     4193.204        6.552        3.001      266.411       78.275        0.086      345.172       22.510      861.501
06/13/2013  17:40:00     -247.024     -175.767        8.039      161.170      133.577       70.861    25975.661    17842.911     5021.350        7.040        2.442      303.174       71.747        0.056      345.097       22.382      861.486
06/13/2013  17:41:00     -315.634     -152.525        1.372      177.747      140.726       74.456    31594.126    19803.721     5543.709        8.990        2.847      350.554       83.476        0.057      345.020       22.250      861.480
06/13/2013  17:42:00     -319.888     -201.922       -1.347      155.842      104.779       67.042    24286.623    10978.607     4494.620        9.142        1.988      378.287       61.652        0.027      345.075       22.343      861.459
06/13/2013  17:43:00     -365.095      -91.138       -6.624      205.724      158.595       88.386    42322.207    25152.396     7812.029       10.845        3.764      376.298       98.684        0.069      345.202       22.561      861.431
06/13/2013  17:44:00     -324.832     -216.646       -4.887      201.007      181.825       95.689    40403.987    33060.268     9156.419       11.753        4.131      390.450       99.861        0.065      345.176       22.516      861.458
06/13/2013  17:45:00     -344.119     -163.845        8.004      223.800      169.847       81.491    50086.331    28848.080     6640.844       11.543        4.279      381.134      100.728        0.070      345.157       22.484      861.461
06/13/2013  17:46:00     -436.969     -230.964      -29.268      220.078      156.780       88.000    48434.335    24579.866     7744.078       16.293        4.038      494.253       99.794        0.041      344.900       22.043      861.441
06/13/2013  17:47:00     -321.001     -279.939       -2.274      188.258      188.256       97.465    35441.032    35440.189     9499.350       13.088        4.019      425.919      112.139        0.069      344.941       22.113      861.454
06/13/2013  17:48:00     -458.317     -357.214      -13.911      255.276      216.570      123.583    65165.965    46902.448    15272.859       23.257        6.367      581.082      131.635        0.051      344.837       21.935      861.403
06/13/2013  17:49:00     -507.471     -313.190       -5.541      235.649      230.643      113.326    55530.622    53196.376    12842.766       23.858        6.078      596.335      127.265        0.046      344.776       21.831      861.445
06/13/2013  17:50:00     -393.321     -134.543       -7.776      168.346      167.989       83.947    28340.279    28220.224     7047.100       11.822        3.180      415.696       83.741        0.041      344.859       21.974      861.446
06/13/2013  17:51:00     -197.214      -73.352        6.403      136.263      130.278       66.588    18567.510    16972.476     4433.985        4.214        1.999      210.413       72.388        0.118      345.017       22.244      861.456
06/13/2013  17:52:00     -260.430     -221.430        1.148      160.366      159.613       67.045    25717.151    25476.294     4495.077        8.626        2.784      341.841       77.057        0.051      344.951       22.130      861.483
06/13/2013  17:53:00     -272.066     -245.663        7.910      216.612      132.479       97.112    46920.888    17550.712     9430.787       10.415        3.695      366.566      105.339        0.083      345.060       22.318      861.437
06/13/2013  17:54:00     -248.549     -207.881        6.711      258.347      163.029       81.223    66742.993    26578.549     6597.135       10.246        4.996      324.023      109.538        0.114      345.125       22.430      861.491
06/13/2013  17:55:00     -308.141      -76.030        8.879      193.931      174.787       78.099    37609.248    30550.365     6099.526        8.752        3.713      317.382       90.696        0.082      345.109       22.402      861.496
06/13/2013  17:56:00     -341.057     -111.803      -15.288      215.634      191.189       79.937    46498.220    36553.261     6389.897       10.923        4.472      358.915       99.043        0.076      345.114       22.410      861.502
06/13/2013  17:57:00     -404.017     -265.387      -16.150      245.093      204.974       99.920    60070.788    42014.380     9984.042       17.297        5.603      483.384      118.786        0.060      344.940       22.112      861.498
06/13/2013  17:58:00     -388.372     -327.571      -11.810      230.587      200.946      109.490    53170.174    40379.405    11987.991       18.188        5.277      508.070      110.768        0.048      344.881       22.013      861.493
06/13/2013  17:59:00     -322.526      -83.623        6.107      178.927      121.525       73.230    32014.693    14768.279     5362.692        8.159        2.607      333.190       87.102        0.068      344.930       22.096      861.519
06/13/2013  18:00:00     -302.648      -40.316       -8.890      105.848      101.788       61.180    11203.732    10360.746     3743.030        5.930        1.265      305.322       61.329        0.040      345.057       22.313      861.508
06/13/2013  18:01:00     -381.233      -55.817      -17.593      187.509      161.751       75.763    35159.541    26163.276     5740.059       10.790        3.353      385.297       73.169        0.036      345.060       22.318      861.528
06/13/2013  18:02:00     -317.519     -218.882       10.468      216.887      207.564       99.408    47039.900    43082.777     9882.008       12.440        5.000      385.652      107.440        0.078      344.926       22.088      861.522
06/13/2013  18:03:00     -150.793     -166.893       30.837      186.616      130.072      103.550    34825.509    16918.844    10722.648        5.699        3.123      224.927      107.181        0.227      345.015       22.242      861.548
06/13/2013  18:04:00     -231.205     -152.620        5.761      131.410      102.290       67.959    17268.604    10463.336     4618.420        5.456        1.618      277.035       64.376        0.054      344.918       22.074      861.543
06/13/2013  18:05:00     -173.323     -143.503        7.355      151.049      116.302       61.123    22815.947    13526.066     3736.040        4.538        2.004      225.021       70.179        0.097      345.051       22.304      861.546
06/13/2013  18:06:00     -149.205      -77.640        1.225      177.605      117.616       64.060    31543.366    13833.438     4103.629        3.888        2.474      168.197       78.440        0.217      345.221       22.595      861.545
06/13/2013  18:07:00     -230.158     -155.414        2.267      133.313      118.485       61.855    17772.302    14038.682     3825.991        5.638        1.782      277.716       51.171        0.034      345.015       22.239      861.540
06/13/2013  18:08:00     -305.414     -212.297       22.272      212.805      182.897      108.103    45285.784    33451.476    11686.226       11.462        4.521      371.951      111.221        0.089      344.946       22.121      861.559
06/13/2013  18:09:00     -458.868     -185.753      -38.911      219.194      163.575      105.140    48045.969    26756.902    11054.393       16.620        4.293      495.039      118.938        0.058      344.807       21.886      861.546
06/13/2013  18:10:00     -255.010     -197.158       -4.359      136.107      135.706       77.710    18525.051    18416.230     6038.811        7.344        2.149      322.338       80.144        0.062      344.859       21.975      861.540
06/13/2013  18:11:00     -313.137     -186.859       -6.378      171.889      156.434       74.678    29545.901    24471.723     5576.740        9.629        2.980      364.653       90.991        0.062      344.843       21.947      861.537
06/13/2013  18:12:00     -387.816     -208.963      -17.991      152.989      127.865       81.473    23405.578    16349.498     6637.903       12.038        2.320      440.530       75.305        0.029      344.923       22.081      861.535
06/13/2013  18:13:00     -443.071     -177.097      -12.368      153.484      165.836       64.029    23557.263    27501.443     4099.735       14.148        2.758      477.153       76.681        0.026      344.877       22.005      861.570
06/13/2013  18:14:00     -353.532     -127.351       24.267      234.191      148.642       87.560    54845.587    22094.527     7666.743       11.318        4.230      375.770      108.298        0.083      344.849       21.956      861.580
06/13/2013  18:15:00     -252.729     -123.601        7.925      220.128      184.296      105.182    48456.450    33965.097    11063.223        8.633        4.674      281.335      118.647        0.178      344.858       21.972      861.572
06/13/2013  18:16:00     -466.143     -198.799       -2.412      222.213      139.797       86.557    49378.455    19543.268     7492.193       16.660        3.821      506.764       95.909        0.036      344.725       21.745      861.613
06/13/2013  18:17:00     -368.409     -133.251      -23.881      182.010      115.890       75.192    33127.601    13430.407     5653.840       10.312        2.611      391.766       80.782        0.043      344.857       21.969      861.627
06/13/2013  18:18:00     -242.092      -67.622       -1.013      191.011      162.610       70.212    36485.184    26441.982     4929.664        6.551        3.393      251.359       74.552        0.088      344.930       22.095      861.630
06/13/2013  18:19:00     -412.678      -41.461      -14.611      214.255      153.680       80.181    45905.069    23617.458     6428.949       12.408        3.798      414.756       99.396        0.057      344.890       22.026      861.614
06/13/2013  18:20:00     -371.594     -151.940      -19.394      239.899      135.489       90.890    57551.396    18357.350     8260.947       12.284        4.208      401.457      113.335        0.080      344.857       21.970      861.632
06/13/2013  18:21:00     -545.633     -314.859      -32.203      230.139      133.699       85.673    52964.010    17875.463     7339.839       23.802        3.909      629.962       68.862        0.012      344.714       21.725      861.641
06/13/2013  18:22:00     -299.725     -106.457       -9.496      119.617      119.859       60.451    14308.214    14366.267     3654.323        6.679        1.616      318.069       61.880        0.038      344.916       22.071      861.684
06/13/2013  18:23:00     -277.510      -84.410       -3.613      161.052      123.603       59.860    25937.716    15277.611     3583.259        6.447        2.240      290.063       70.990        0.060      344.927       22.091      861.705
06/13/2013  18:24:00     -327.370     -211.865       -4.934      253.701      176.851       82.525    64364.316    31276.252     6810.354       12.725        5.123      389.946      107.689        0.076      344.920       22.078      861.726
06/13/2013  18:25:00     -400.127     -188.411      -14.985      196.701      249.967       91.237    38691.322    62483.290     8324.210       15.264        5.475      442.267       91.629        0.043      344.676       21.661      861.727
06/13/2013  18:26:00     -329.526      -91.718       -8.555      150.621      127.509       76.883    22686.569    16258.443     5910.994        8.096        2.243      342.052       59.261        0.030      344.822       21.911      861.746
06/13/2013  18:27:00     -342.299     -153.162      -22.133      193.972      108.324       66.391    37625.029    11734.118     4407.730        9.743        2.688      375.003       77.776        0.043      344.768       21.818      861.756
06/13/2013  18:28:00     -171.099      -59.676        9.605      135.947      113.478       64.864    18481.567    12877.228     4207.379        3.424        1.778      181.207       65.444        0.130      344.857       21.971      861.775
06/13/2013  18:29:00     -313.464     -133.986       -3.414      194.021      139.244       80.250    37644.239    19388.768     6440.089        8.984        3.174      340.899       94.120        0.076      344.907       22.057      861.795
06/13/2013  18:30:00     -280.826     -187.920        6.532      205.386      171.067       86.386    42183.522    29264.080     7462.518        9.655        3.946      337.901      100.889        0.089      344.754       21.794      861.837
06/13/2013  18:31:00     -309.768     -135.872        0.078      197.086      166.132       83.643    38842.716    27599.875     6996.093        9.391        3.672      338.257       73.102        0.047      344.796       21.864      861.859
06/13/2013  18:32:00     -390.518      -94.558      -24.554      223.978      168.337       94.106    50166.338    28337.312     8855.878       12.469        4.368      401.803       95.604        0.057      344.671       21.649      861.894
06/13/2013  18:33:00     -394.172      -27.126      -25.703      160.939      163.162       69.879    25901.268    26621.693     4883.067       10.708        2.870      395.104       76.576        0.038      344.687       21.679      861.914
06/13/2013  18:34:00     -425.788      -70.102      -13.948      154.656      107.818       72.732    23918.331    11624.810     5289.903       11.361        2.042      431.520       78.900        0.033      344.568       21.474      861.906
06/13/2013  18:35:00     -338.044      -47.022      -22.676      111.539       70.927       45.538    12440.921     5030.627     2073.698        6.827        0.977      341.298       46.433        0.019      344.643       21.604      861.910
06/13/2013  18:36:00     -381.731     -192.622      -16.613      134.349      134.494       77.598    18049.633    18088.645     6021.420       11.262        2.108      427.577       78.556        0.034      344.595       21.523      861.945
06/13/2013  18:37:00     -277.237     -245.604      -33.735      222.139      115.091       81.674    49345.829    13245.932     6670.689       10.378        3.463      370.380       86.313        0.054      344.673       21.656      861.948
06/13/2013  18:38:00     -432.494     -339.312      -26.646      195.323      170.432       90.951    38150.975    29046.967     8272.148       18.917        3.774      549.713      103.052        0.035      344.593       21.517      861.953
06/13/2013  18:39:00     -360.324     -251.300      -28.490      193.597      151.262       84.612    37479.721    22880.176     7159.172       13.064        3.376      439.301       87.032        0.039      344.625       21.572      862.000
06/13/2013  18:40:00     -392.138     -179.988      -13.157      174.030      150.719       87.301    30286.488    22716.275     7621.428       12.347        3.031      431.472       77.240        0.032      344.532       21.414      862.025
06/13/2013  18:41:00     -263.668     -134.694      -10.041      113.042      102.704       58.514    12778.486    10548.114     3423.853        5.725        1.338      296.080       56.017        0.036      344.666       21.644      862.059
06/13/2013  18:42:00     -195.644      -40.190       -8.441       91.135       93.321       44.790     8305.661     8708.827     2006.161        2.949        0.951      199.730       51.507        0.067      344.643       21.604      862.066
06/13/2013  18:43:00     -181.822       16.352      -12.122      105.337       90.595       56.723    11095.812     8207.503     3217.520        2.799        1.126      182.556       56.735        0.097      344.691       21.687      862.060
06/13/2013  18:44:00     -213.438       -4.247       -6.058      104.707       89.941       46.563    10963.558     8089.352     2168.075        3.341        1.061      213.480       50.103        0.055      344.789       21.854      862.068
06/13/2013  18:45:00     -194.835      -88.500        2.381      101.045       84.698       47.087    10210.014     7173.824     2217.177        3.270        0.980      213.993       45.082        0.044      344.754       21.792      862.090
06/13/2013  18:46:00     -342.159     -101.372      -14.794      148.774      115.968       63.038    22133.826    13448.653     3973.766        8.355        1.978      356.860       59.754        0.028      344.768       21.817      862.108
06/13/2013  18:47:00     -313.821     -138.327      -22.056      135.361       93.240       57.411    18322.699     8693.730     3296.007        7.420        1.516      342.955       71.908        0.044      344.589       21.511      862.098
06/13/2013  18:48:00     -109.436       29.317       10.289       99.152       97.300       56.593     9831.130     9467.309     3202.818        1.772        1.125      113.295       58.243        0.264      344.724       21.746      862.119
06/13/2013  18:49:00     -420.009     -103.564      -22.879      152.255      111.451       67.920    23181.671    12421.418     4613.109       11.393        2.011      432.589       68.983        0.025      344.638       21.596      862.137
06/13/2013  18:50:00     -187.247      -31.230        4.549      130.787       73.856       50.268    17105.279     5454.730     2526.902        3.057        1.254      189.834       45.512        0.057      344.688       21.683      862.148
06/13/2013  18:51:00     -358.997      -21.187      -45.465      115.095      173.888       74.352    13246.836    30237.055     5528.203        9.019        2.451      359.622       57.882        0.026      344.687       21.679      862.176
06/13/2013  18:52:00     -327.098      -61.689      -20.236      137.695      106.711       60.790    18959.984    11387.142     3695.400        7.262        1.702      332.864       63.712        0.037      344.646       21.608      862.203
06/13/2013  18:53:00     -224.548      -96.856        6.088      151.652       87.641       62.878    22998.197     7680.877     3953.691        4.723        1.732      244.546       75.890        0.096      344.669       21.648      862.210
06/13/2013  18:54:00     -242.140      -51.185       -3.554      147.032      127.562       54.004    21618.371    16271.949     2916.387        5.103        2.040      247.491       59.852        0.058      344.643       21.604      862.213
06/13/2013  18:55:00     -136.266       -0.597        9.176      121.846       74.303       50.687    14846.458     5520.899     2569.219        2.079        1.147      136.268       59.853        0.193      344.668       21.650      862.204
06/13/2013  18:56:00     -193.182      -12.621      -10.930      114.449       91.674       55.758    13098.565     8404.121     3108.976        3.110        1.231      193.594       61.662        0.101      344.559       21.461      862.211
06/13/2013  18:57:00     -162.797       31.167      -21.282       68.537       77.313       46.302     4697.321     5977.284     2143.895        2.037        0.641      165.754       25.340        0.023      344.676       21.661      862.192
06/13/2013  18:58:00     -156.733      -23.486       -3.704       82.898       88.743       51.285     6872.105     7875.392     2630.102        2.125        0.869      158.483       38.019        0.058      344.664       21.641      862.198
06/13/2013  18:59:00     -271.140      -62.850      -12.712      102.370       61.033       37.453    10479.585     3725.088     1402.750        4.661        0.780      278.329       37.835        0.018      344.598       21.527      862.217
06/13/2013  19:00:00     -263.405     -125.941       -2.490       94.396       69.552       43.926     8910.528     4837.476     1929.478        5.046        0.784      291.964       45.189        0.024      344.541       21.427      862.211
06/13/2013  19:01:00     -312.688      -28.145      -30.411      145.659       75.153       52.767    21216.644     5647.904     2784.408        6.456        1.482      313.952       59.723        0.036      344.563       21.467      862.214
06/13/2013  19:02:00     -255.263      -94.700      -29.450      143.870       82.331       65.377    20698.474     6778.405     4274.214        5.337        1.588      272.263       64.560        0.056      344.601       21.532      862.227
06/13/2013  19:03:00     -338.292      -55.268      -30.209      133.473      144.220       60.032    17814.973    20799.435     3603.889        8.031        2.111      342.777       68.937        0.040      344.516       21.387      862.244
06/13/2013  19:04:00     -242.032      -83.558        5.560      191.711      136.827       69.544    36753.167    18721.596     4836.314        6.294        3.016      256.049       90.338        0.124      344.522       21.398      862.247
06/13/2013  19:05:00     -324.440      -72.480      -30.883      132.619       67.438       54.934    17587.899     4547.942     3017.763        6.831        1.258      332.438       60.099        0.033      344.556       21.456      862.289
06/13/2013  19:06:00     -393.020      -69.899      -40.554      136.258      123.065       67.392    18566.123    15144.951     4541.638        9.962        1.913      399.188       76.262        0.036      344.433       21.246      862.293
06/13/2013  19:07:00     -405.837      -80.379      -29.641      135.083      122.223       76.284    18247.313    14938.408     5819.234       10.552        1.950      413.720       57.085        0.019      344.428       21.235      862.281
06/13/2013  19:08:00     -447.752      -18.761      -51.467      163.249      139.587       71.105    26650.114    19484.409     5055.896       12.733        2.560      448.145       73.956        0.027      344.371       21.139      862.301
06/13/2013  19:09:00     -357.379      -12.704      -30.706      167.491      124.758       68.605    28053.078    15564.528     4706.609        8.856        2.416      357.605       61.752        0.030      344.434       21.246      862.311
06/13/2013  19:10:00     -266.651      -65.619       -8.810      149.835      115.581       63.788    22450.590    13358.924     4068.860        5.767        1.994      274.606       53.427        0.038      344.388       21.167      862.333
06/13/2013  19:11:00     -273.621       23.454      -21.611      173.616      100.897       54.584    30142.390    10180.168     2979.370        5.959        2.165      274.624       62.013        0.051      344.454       21.283      862.315
06/13/2013  19:12:00     -213.807      -52.291       -5.846      139.387       97.085       66.578    19428.652     9425.491     4432.620        4.088        1.664      220.109       67.353        0.094      344.385       21.163      862.329
06/13/2013  19:13:00     -228.012      -66.253       -8.544      107.738      120.229       64.188    11607.375    14454.910     4120.142        4.331        1.509      237.443       63.414        0.071      344.472       21.313      862.315
06/13/2013  19:14:00     -312.556      -75.706      -23.478      136.079      106.545       66.093    18517.521    11351.825     4368.337        6.910        1.712      321.594       59.477        0.034      344.414       21.214      862.318
06/13/2013  19:15:00     -387.124     -134.541      -20.847      145.516      110.252       77.042    21174.837    12155.429     5935.448       10.383        1.963      409.837       81.484        0.040      344.426       21.232      862.330
06/13/2013  19:16:00     -491.170      -66.838      -39.977      158.216      138.375       66.424    25032.269    19147.575     4412.169       14.794        2.430      495.697       74.552        0.023      344.325       21.061      862.358
06/13/2013  19:17:00     -477.177       -6.894      -27.150      181.985      112.810       75.388    33118.632    12726.048     5683.324       14.000        2.576      477.227       88.819        0.035      344.297       21.013      862.369
06/13/2013  19:18:00     -437.128      -16.660      -17.953      160.705      121.436       76.474    25826.125    14746.746     5848.197       11.904        2.321      437.446       84.524        0.037      344.296       21.010      862.385
06/13/2013  19:19:00     -319.891      -73.526       -1.784      205.481      135.811       74.900    42222.638    18444.627     5610.036        8.700        3.314      328.232       92.591        0.080      344.321       21.055      862.381
06/13/2013  19:20:00     -381.556      -40.569      -15.548      154.083      150.486       70.956    23741.518    22646.150     5034.738        9.944        2.571      383.706       65.863        0.029      344.277       20.979      862.385
06/13/2013  19:21:00     -268.644      -89.375       -0.070      157.877      118.687       69.392    24925.221    14086.655     4815.195        6.198        2.191      283.121       71.789        0.064      344.291       21.004      862.380
06/13/2013  19:22:00     -254.365     -104.121        7.922      169.663      120.925       73.153    28785.647    14622.963     5351.335        6.217        2.438      274.850       76.117        0.077      344.293       21.006      862.383
06/13/2013  19:23:00     -305.850      -80.519       11.773      193.043      134.445       75.526    37265.675    18075.363     5704.179        8.059        3.052      316.271       93.286        0.087      344.290       21.000      862.387
06/13/2013  19:24:00     -406.339     -124.992        4.136      229.028      148.276       75.294    52453.734    21985.720     5669.129       13.041        4.005      425.128       97.179        0.052      344.225       20.889      862.394
06/13/2013  19:25:00     -381.121      -48.293       -3.120      215.048      135.951       79.461    46245.434    18482.638     6313.986       10.930        3.552      384.168       78.114        0.041      344.193       20.835      862.391
06/13/2013  19:26:00     -372.828      -20.148      -13.210      126.905      132.589       59.021    16104.853    17579.800     3483.437        8.837        1.858      373.372       54.597        0.021      344.227       20.891      862.402
06/13/2013  19:27:00     -281.775     -101.157        2.326      147.787      112.953       62.113    21840.928    12758.488     3858.056        6.404        1.923      299.382       71.253        0.057      344.250       20.933      862.414
06/13/2013  19:28:00     -369.574     -146.099      -14.433      130.858      105.643       64.175    17123.831    11160.424     4118.430        9.526        1.620      397.404       53.537        0.018      344.261       20.951      862.423
06/13/2013  19:29:00     -308.889      -80.372      -19.219      133.544      107.283       67.614    17833.993    11509.614     4571.601        6.807        1.696      319.175       66.546        0.043      344.307       21.029      862.435
06/13/2013  19:30:00     -270.688     -136.893      -10.574      127.620      105.934       70.532    16286.849    11221.921     4974.805        6.230        1.624      303.334       68.059        0.050      344.310       21.034      862.438
06/13/2013  19:31:00     -374.129     -104.195      -19.383      184.563      136.243       76.724    34063.321    18562.194     5886.533       10.485        2.926      388.367       72.435        0.035      344.248       20.929      862.448
06/13/2013  19:32:00     -391.459     -101.572       -8.751      179.877      137.915       63.873    32355.893    19020.547     4079.760       10.953        2.773      404.422       69.782        0.030      344.120       20.710      862.463
06/13/2013  19:33:00     -319.655        0.813      -20.075      140.059      120.425       60.038    19616.647    14502.135     3604.585        7.015        1.886      319.656       64.457        0.041      344.102       20.680      862.500
06/13/2013  19:34:00     -539.501       52.017      -58.505      140.916      167.667       76.356    19857.251    28112.078     5830.224       17.548        2.690      542.003       57.465        0.011      344.016       20.533      862.484
06/13/2013  19:35:00     -386.226      -24.522      -20.846      181.875      129.155       75.267    33078.650    16681.031     5665.129       10.280        2.771      387.004       81.958        0.045      344.007       20.515      862.500
06/13/2013  19:36:00     -266.901     -106.178        3.181      144.711      129.314       75.074    20941.155    16722.179     5636.092        6.290        2.165      287.245       76.165        0.070      344.032       20.560      862.495
06/13/2013  19:37:00     -444.832     -108.292      -32.605      110.303      101.721       77.848    12166.665    10347.174     6060.357       11.961        1.429      457.824       65.398        0.020      343.937       20.397      862.504
06/13/2013  19:38:00     -408.063      -53.303      -21.964      140.791      121.202       87.651    19822.036    14690.033     7682.655       10.601        2.110      411.529       77.510        0.035      343.903       20.340      862.521
06/13/2013  19:39:00     -395.717      -41.416      -40.205      156.893      123.442       75.255    24615.402    15238.025     5663.350       10.271        2.276      397.879       84.796        0.045      343.894       20.324      862.514
06/13/2013  19:40:00     -332.508     -125.024      -25.686      129.440      152.383       67.894    16754.788    23220.692     4609.577        8.571        2.229      355.236       44.531        0.016      343.967       20.448      862.505
06/13/2013  19:41:00     -423.684      -31.062      -32.035      219.017      115.183       80.937    47968.570    13267.130     6550.831       12.463        3.389      424.821       86.951        0.042      343.951       20.421      862.546
06/13/2013  19:42:00     -333.998     -121.368      -12.930      186.859      144.027       69.888    34916.406    20743.679     4884.344        9.349        3.027      355.366       62.311        0.031      343.923       20.374      862.530
06/13/2013  19:43:00     -317.681      -58.140      -16.402      148.025      122.834       73.967    21911.483    15088.173     5471.058        7.351        2.124      322.957       83.957        0.068      343.943       20.406      862.555
06/13/2013  19:44:00     -264.798      -53.349      -21.291      150.097      146.937       68.935    22529.092    21590.540     4752.027        6.113        2.444      270.118       60.395        0.050      343.913       20.357      862.566
06/13/2013  19:45:00     -319.993      -23.927      -44.653      138.110      145.467       61.434    19074.489    21160.726     3774.187        7.448        2.200      320.886       30.110        0.009      343.923       20.375      862.575
06/13/2013  19:46:00     -364.341     -102.273      -22.834      193.033      132.309       63.035    37261.793    17505.681     3973.355       10.122        2.937      378.423       85.881        0.052      343.891       20.318      862.591
06/13/2013  19:47:00     -309.995      -72.987      -24.151       85.353      112.644       59.083     7285.100    12688.576     3490.835        6.273        1.173      318.471       23.957        0.006      343.910       20.350      862.608
06/13/2013  19:48:00     -261.276       28.339       -5.576      146.462      137.510       64.732    21451.215    18909.090     4190.254        5.682        2.228      262.808       60.440        0.053      343.884       20.309      862.628
06/13/2013  19:49:00     -295.780      -55.919      -12.425      133.592      118.564       61.983    17846.929    14057.433     3841.910        6.325        1.787      301.019       62.803        0.044      343.856       20.260      862.633
06/13/2013  19:50:00     -302.206     -117.317      -24.996      151.674      115.635       63.320    23004.916    13371.380     4009.459        7.304        2.019      324.179       61.727        0.036      343.829       20.213      862.650
06/13/2013  19:51:00     -214.974      -76.286       -1.829      114.642      103.106       57.470    13142.902    10630.811     3302.786        3.955        1.354      228.109       59.117        0.067      343.819       20.198      862.666
06/13/2013  19:52:00     -329.635       10.493      -27.825      123.173      121.896       71.253    15171.549    14858.658     5076.995        7.232        1.755      329.802       54.187        0.027      343.777       20.123      862.686
06/13/2013  19:53:00     -284.217      -22.144      -39.273       73.785       88.145       49.741     5444.297     7769.540     2474.162        4.925        0.784      285.078       39.631        0.019      343.811       20.182      862.715
06/13/2013  19:54:00     -100.899       49.034       -7.361       90.362       72.009       50.841     8165.212     5185.299     2584.772        1.428        0.797      112.183       51.762        0.213      343.697       19.990      862.748
06/13/2013  19:55:00     -152.390       -1.869      -15.145       65.299       77.883       37.436     4263.930     6065.796     1401.468        1.759        0.587      152.402       22.082        0.021      343.686       19.970      862.782
06/13/2013  19:56:00     -204.051      -38.476      -24.742      100.085       84.147       56.703    10017.048     7080.776     3215.284        3.202        1.016      207.647       48.768        0.055      343.683       19.963      862.816
06/13/2013  19:57:00     -128.689       -3.505       -3.879      110.640       62.987       46.668    12241.112     3967.420     2177.870        1.748        0.919      128.736       47.009        0.133      343.677       19.955      862.850
06/13/2013  19:58:00     -307.283      -88.758      -26.503      124.257       94.475       56.156    15439.700     8925.522     3153.485        6.526        1.376      319.845       58.143        0.033      343.595       19.813      862.869
06/13/2013  19:59:00     -252.979       27.871      -26.221      132.218       86.017       54.667    17481.539     7398.839     2988.439        4.666        1.393      254.510       56.022        0.048      343.565       19.764      862.906
06/13/2013  20:00:00     -194.327      -25.303      -29.559       71.133       76.370       46.148     5059.922     5832.348     2129.597        2.615        0.651      195.967       36.104        0.034      343.579       19.788      862.923
06/13/2013  20:01:00     -153.530      -12.063       -8.077       58.411       67.135       39.343     3411.804     4507.127     1547.852        1.662        0.473      154.003       33.051        0.046      343.551       19.740      862.953
06/13/2013  20:02:00      -71.631       65.285      -15.166       86.045      112.693       61.370     7403.793    12699.777     3766.234        1.674        1.193       96.918       46.651        0.232      343.508       19.668      862.973
06/13/2013  20:03:00     -149.765      114.605      -31.181       84.702      114.142       51.878     7174.453    13028.381     2691.280        2.971        1.145      188.584       55.624        0.087      343.470       19.602      862.991
06/13/2013  20:04:00     -135.230      109.021      -18.935       98.311       80.333       49.671     9665.089     6453.334     2467.186        2.455        0.929      173.703       53.059        0.093      343.454       19.574      863.018
06/13/2013  20:05:00     -115.347       42.442      -12.850       78.322       69.290       50.472     6134.270     4801.149     2547.469        1.437        0.674      122.908       35.081        0.081      343.496       19.648      863.033
06/13/2013  20:06:00     -161.665       66.809      -19.462       86.126       62.639       33.415     7417.764     3923.689     1116.541        2.172        0.623      174.926       41.684        0.057      343.482       19.624      863.049
06/13/2013  20:07:00     -181.046       88.329      -17.722       73.420       80.379       51.529     5390.540     6460.738     2655.206        2.770        0.725      201.444       37.468        0.035      343.499       19.652      863.060
06/13/2013  20:08:00     -146.024       76.621        1.613       98.518       63.930       57.174     9705.864     4087.083     3268.886        2.213        0.853      164.905       52.104        0.100      343.443       19.556      863.070
06/13/2013  20:09:00     -101.192      110.105      -21.700       57.109       71.477       35.526     3261.404     5108.987     1262.078        1.623        0.482      149.542       24.340        0.026      343.462       19.588      863.079
06/13/2013  20:10:00     -120.188       68.008       -7.344      108.519       65.904       51.106    11776.415     4343.318     2611.865        1.892        0.937      138.095       62.963        0.208      343.438       19.547      863.094
06/13/2013  20:11:00     -130.442       18.061      -26.069       77.231       93.426       36.656     5964.652     8728.392     1343.637        1.703        0.802      131.687       29.269        0.049      343.455       19.578      863.106
06/13/2013  20:12:00     -103.528       58.698      -20.242       60.038       79.431       42.349     3604.571     6309.274     1793.469        1.314        0.585      119.011       30.234        0.065      343.447       19.565      863.119
06/13/2013  20:13:00      -84.527      101.790       -5.381       37.545       71.247       29.045     1409.622     5076.199      843.601        1.243        0.366      132.311       28.467        0.046      343.407       19.498      863.140
06/13/2013  20:14:00      -50.381       99.941        6.496       71.601       74.112       44.490     5126.642     5492.535     1979.388        1.258        0.630      111.921       53.743        0.231      343.291       19.298      863.128
06/13/2013  20:15:00     -143.315        2.714      -12.448       88.474       73.429       37.131     7827.711     5391.833     1378.702        1.765        0.730      143.341       38.378        0.072      343.415       19.508      863.130
06/13/2013  20:16:00     -218.683      147.346      -16.331       91.129       99.410       60.617     8304.440     9882.253     3674.410        4.583        1.093      263.691       50.595        0.037      343.288       19.292      863.130
06/13/2013  20:17:00     -185.741      173.330      -28.793      101.498       90.355       56.576    10301.934     8163.981     3200.792        4.352        1.083      254.053       40.579        0.026      343.262       19.247      863.130
06/13/2013  20:18:00     -197.165      168.262      -44.332      134.404       96.832       58.171    18064.333     9376.504     3383.867        4.998        1.541      259.203       62.011        0.057      343.284       19.284      863.132
06/13/2013  20:19:00     -121.430       27.143       -7.479      131.748      107.192       64.992    17357.631    11490.061     4223.985        2.430        1.654      124.426       68.725        0.305      343.332       19.367      863.105
06/13/2013  20:20:00     -258.376       91.122      -22.457      121.681       99.440       64.480    14806.220     9888.283     4157.634        5.220        1.443      273.974       39.371        0.021      343.267       19.255      863.115
06/13/2013  20:21:00     -132.343       82.988      -11.967       83.168       69.718       38.758     6916.928     4860.665     1502.151        1.891        0.664      156.210       26.416        0.029      343.233       19.200      863.118
06/13/2013  20:22:00     -176.894       -5.520      -22.177      102.868       79.323       44.540    10581.891     6292.081     1983.845        2.533        0.943      176.980       41.655        0.055      343.268       19.259      863.115
06/13/2013  20:23:00     -125.002       59.819      -45.050       94.298       92.844       54.747     8892.116     8620.002     2997.273        2.087        1.025      138.578       29.354        0.045      343.198       19.140      863.107
06/13/2013  20:24:00     -205.532       23.384      -15.416      114.292      121.996       67.671    13062.708    14883.068     4579.323        3.777        1.626      206.858       60.216        0.085      343.206       19.153      863.099
06/13/2013  20:25:00      -96.147       51.312        5.553       93.853       81.108       49.242     8808.316     6578.525     2424.738        1.486        0.891      108.983       42.984        0.156      343.150       19.059      863.103
06/13/2013  20:26:00     -129.630       64.727      -16.017       81.832       84.226       52.265     6696.432     7094.074     2731.620        1.888        0.826      144.891       51.089        0.124      343.149       19.056      863.110
06/13/2013  20:27:00     -112.710       95.044      -10.880      102.278       99.836       52.421    10460.741     9967.134     2747.928        2.251        1.159      147.434       48.453        0.108      343.057       18.900      863.112
06/13/2013  20:28:00     -175.719       98.624      -43.665       84.347       74.280       60.939     7114.417     5517.580     3713.517        2.942        0.817      201.504       49.894        0.061      343.124       19.011      863.099
06/13/2013  20:29:00     -192.286       72.355      -17.870       86.978       63.124       50.180     7565.128     3984.580     2518.000        2.830        0.703      205.448       44.891        0.048      343.099       18.970      863.108
06/13/2013  20:30:00     -258.961      111.799      -33.425      109.537      118.904       65.017    11998.393    14138.180     4227.237        5.551        1.518      282.064       60.856        0.047      343.082       18.938      863.105
06/13/2013  20:31:00     -252.753       89.147      -45.663      131.765      152.150       65.282    17361.983    23149.658     4261.701        5.934        2.239      268.014       73.528        0.075      343.093       18.958      863.106
06/13/2013  20:32:00     -196.714       64.656      -33.769       94.890      118.491       61.515     9004.147    14040.043     3784.041        3.542        1.341      207.068       47.849        0.053      343.071       18.921      863.096
06/13/2013  20:33:00     -211.859       33.248      -35.806      120.985      119.628       62.666    14637.380    14310.953     3927.054        4.007        1.644      214.452       86.033        0.161      343.034       18.859      863.107
06/13/2013  20:34:00     -210.024       25.997      -41.859      102.757       80.096       40.961    10559.026     6415.448     1677.786        3.259        0.933      211.627       27.655        0.017      343.011       18.818      863.109
06/13/2013  20:35:00     -246.431      130.522      -30.920      116.011      137.113       75.770    13458.549    18800.014     5741.026        5.835        1.900      278.862       81.564        0.086      342.963       18.736      863.108
06/13/2013  20:36:00     -268.049      122.110      -40.949       93.793       89.651       71.658     8797.068     8037.305     5134.838        5.520        1.098      294.552       59.540        0.041      342.943       18.701      863.117
06/13/2013  20:37:00     -182.529       52.745      -23.367      100.935      128.167       60.132    10187.879    16426.783     3615.885        3.343        1.512      189.997       61.297        0.104      342.930       18.681      863.112
06/13/2013  20:38:00     -162.302       -8.063      -40.855       76.814       76.896       40.055     5900.341     5912.934     1604.383        2.074        0.671      162.502       30.258        0.035      342.934       18.689      863.117
06/13/2013  20:39:00     -118.177      -22.178      -17.689       64.707       52.728       53.745     4186.989     2780.211     2888.556        1.231        0.493      120.240       41.658        0.120      342.879       18.598      863.123
06/13/2013  20:40:00     -135.027      -62.094      -11.532       97.919       91.407       51.563     9588.070     8355.269     2658.700        2.141        1.030      148.621       44.490        0.090      342.870       18.581      863.122
06/13/2013  20:41:00     -186.458      -20.663      -25.374      100.560      106.110       48.834    10112.250    11259.235     2384.763        2.979        1.188      187.600       40.032        0.046      342.860       18.564      863.124
06/13/2013  20:42:00     -239.290       69.793      -23.834       92.860      133.195       63.299     8622.895    17740.816     4006.823        4.653        1.519      249.261       42.139        0.029      342.845       18.536      863.116
06/13/2013  20:43:00     -278.843       56.259      -27.046       89.208       78.208       53.781     7958.013     6116.519     2892.423        4.931        0.848      284.462       46.769        0.027      342.857       18.557      863.127
06/13/2013  20:44:00     -263.502       83.455      -42.349      108.135      111.351       56.289    11693.189    12398.969     3168.414        5.272        1.363      276.402       54.144        0.038      342.850       18.544      863.110
06/13/2013  20:45:00     -254.784      104.044      -25.008      124.932      136.398       83.963    15607.953    18604.299     7049.714        5.881        2.063      275.209       74.142        0.073      342.886       18.607      863.107
06/13/2013  20:46:00     -232.328      111.275      -43.298      108.827      131.033       68.470    11843.296    17169.686     4688.154        5.096        1.685      257.602       44.519        0.030      342.898       18.627      863.115
06/13/2013  20:47:00     -269.616       45.345      -33.026       92.529      138.187       60.966     8561.655    19095.681     3716.803        5.360        1.569      273.402       52.283        0.037      342.894       18.619      863.118
06/13/2013  20:48:00     -197.890       51.793      -10.724       97.766       99.579       50.810     9558.113     9915.959     2581.620        3.200        1.103      204.555       28.834        0.020      342.864       18.568      863.122
06/13/2013  20:49:00     -160.819      -23.840      -16.384      115.617      104.379       47.879    13367.384    10894.934     2292.439        2.662        1.328      162.576       39.756        0.060      342.816       18.489      863.133
06/13/2013  20:50:00     -199.184      -31.165      -13.364      132.368       91.664       57.296    17521.282     8402.200     3282.876        3.501        1.460      201.608       62.769        0.097      342.770       18.407      863.142
06/13/2013  20:51:00     -174.773       37.897      -20.318       96.491      125.546       59.584     9310.478    15761.830     3550.240        3.050        1.431      178.835       43.472        0.059      342.739       18.355      863.162
06/13/2013  20:52:00     -270.514     -103.324      -17.825      139.031       89.542       57.185    19329.748     8017.791     3270.133        5.739        1.531      289.575       55.707        0.037      342.728       18.338      863.174
06/13/2013  20:53:00     -243.188      -68.505      -18.928      105.074      101.790       59.720    11040.508    10361.168     3566.439        4.457        1.248      252.653       39.516        0.024      342.717       18.318      863.183
06/13/2013  20:54:00     -164.686        9.443       -2.463      110.650       77.203       50.935    12243.521     5960.242     2594.357        2.400        1.040      164.957       48.122        0.085      342.693       18.278      863.187
06/13/2013  20:55:00     -264.738       18.722      -28.597      101.320       96.928       72.196    10265.772     9395.068     5212.279        4.806        1.244      265.399       57.334        0.047      342.731       18.343      863.202
06/13/2013  20:56:00     -131.514       -0.252        4.173      121.030      104.986       52.123    14648.351    11022.005     2716.785        2.284        1.419      131.514       63.169        0.231      342.649       18.204      863.214
06/13/2013  20:57:00     -229.871      -53.817      -20.319       96.332       91.056       59.279     9279.838     8291.209     3514.053        3.861        1.054      236.087       48.658        0.042      342.681       18.257      863.229
06/13/2013  20:58:00     -113.608      -32.188      -13.029       96.817      100.397       60.753     9373.550    10079.500     3690.927        1.862        1.157      118.080       63.070        0.285      342.636       18.183      863.254
06/13/2013  20:59:00     -131.622        7.256      -20.393      113.358      110.774       53.808    12849.961    12270.927     2895.299        2.290        1.401      131.822       60.888        0.213      342.685       18.265      863.287
06/13/2013  21:00:00     -190.434       23.495      -10.818       81.514       65.312       50.788     6644.535     4265.620     2579.385        2.521        0.674      191.878       45.538        0.056      342.717       18.319      863.307
06/13/2013  21:01:00     -132.194       24.774      -23.028       82.060      105.526       57.724     6733.879    11135.841     3332.103        1.991        1.060      134.496       57.552        0.183      342.695       18.283      863.332
06/13/2013  21:02:00     -151.977       40.279      -32.305       65.013       53.789       29.274     4226.654     2893.207      856.969        1.687        0.399      157.224       30.793        0.038      342.712       18.312      863.355
06/13/2013  21:03:00     -151.150       -5.691      -18.206       94.330       87.512       42.072     8898.214     7658.339     1770.022        2.076        0.916      151.257       53.537        0.125      342.704       18.298      863.375
06/13/2013  21:04:00     -146.715      -55.398      -15.759       71.030       68.076       42.329     5045.294     4634.343     1791.729        1.815        0.574      156.826       38.302        0.060      342.692       18.276      863.394
06/13/2013  21:05:00     -184.115       41.088      -18.630      138.582       96.006       68.826    19205.022     9217.244     4737.053        3.454        1.658      188.644       74.571        0.156      342.658       18.219      863.417
06/13/2013  21:06:00     -168.110       67.906       -2.546      151.647       79.974       73.192    22996.741     6395.905     5357.130        3.381        1.737      181.307       78.495        0.187      342.664       18.229      863.423
06/13/2013  21:07:00     -252.532       71.966      -30.215      116.231       88.223       48.701    13509.688     7783.248     2371.831        4.676        1.183      262.586       38.362        0.021      342.697       18.284      863.441
06/13/2013  21:08:00     -191.983       93.650      -22.590       99.257      148.606       74.815     9851.871    22083.718     5597.278        4.183        1.877      213.607       71.168        0.111      342.704       18.298      863.456
06/13/2013  21:09:00     -203.902       86.094      -34.235      109.955      129.446       63.833    12090.139    16756.243     4074.651        4.153        1.646      221.333       59.200        0.072      342.674       18.247      863.466
06/13/2013  21:10:00     -229.626       99.713      -31.313       74.267       84.963       60.243     5515.584     7218.727     3629.197        4.000        0.818      250.341       24.977        0.010      342.714       18.314      863.492
06/13/2013  21:11:00     -225.641      155.081      -40.627       75.580      109.822       57.417     5712.263    12060.941     3296.659        4.884        1.053      273.796       52.644        0.037      342.704       18.297      863.499
06/13/2013  21:12:00     -215.003        9.242      -13.889       97.245       95.544       64.577     9456.571     9128.670     4170.235        3.463        1.138      215.201       46.941        0.048      342.722       18.328      863.500
06/13/2013  21:13:00     -225.496       52.723      -21.016      145.840       91.413       61.255    21269.375     8356.424     3752.204        4.372        1.669      231.578       59.336        0.066      342.695       18.283      863.511
06/13/2013  21:14:00     -133.225        0.966       -0.800      111.279      107.220       50.454    12382.973    11496.229     2545.631        2.208        1.321      133.229       50.255        0.142      342.639       18.189      863.508
06/13/2013  21:15:00     -174.593      100.048      -25.209       79.823       68.565       44.120     6371.730     4701.123     1946.568        2.707        0.651      201.227       35.290        0.031      342.632       18.177      863.519
06/13/2013  21:16:00     -221.886        0.810      -13.403       86.057      125.544       48.508     7405.751    15761.398     2353.017        3.746        1.276      221.887       36.599        0.027      342.555       18.044      863.515
06/13/2013  21:17:00     -126.035       27.857      -17.568       87.887       93.834       46.144     7724.196     8804.907     2129.232        1.781        0.933      129.077       33.303        0.067      342.563       18.059      863.528
06/13/2013  21:18:00     -168.140       18.493      -21.348      115.016       77.313       61.237    13228.672     5977.301     3749.953        2.601        1.148      169.154       62.391        0.136      342.588       18.099      863.539
06/13/2013  21:19:00     -180.923       53.275      -15.976       88.463       63.920       49.439     7825.621     4085.795     2444.196        2.509        0.718      188.604       38.696        0.042      342.596       18.114      863.551
06/13/2013  21:20:00      -83.708      -16.565      -10.203      104.772       60.397       51.123    10977.220     3647.851     2613.515        1.231        0.862       85.332       31.403        0.135      342.553       18.042      863.560
06/13/2013  21:21:00     -145.592       50.136      -18.247      109.415       72.373       57.240    11971.603     5237.821     3276.391        2.226        1.024      153.982       52.345        0.116      342.558       18.051      863.575
06/13/2013  21:22:00      -76.041       38.993       -4.394       67.966       47.100       52.160     4619.388     2218.429     2720.632        0.844        0.478       85.456       41.295        0.234      342.552       18.041      863.579
06/13/2013  21:23:00     -196.352        6.071      -26.070       56.525      120.893       38.603     3195.082    14615.036     1490.159        2.928        0.965      196.446       42.355        0.046      342.499       17.948      863.592
06/13/2013  21:24:00     -107.357      -14.572      -17.302       89.128       92.629       48.609     7943.813     8580.159     2362.877        1.546        0.944      108.342       39.346        0.132      342.473       17.905      863.609
06/13/2013  21:25:00     -194.806      -60.599       -4.786      125.651       78.347       49.631    15788.276     6138.259     2463.268        3.301        1.219      204.014       41.428        0.041      342.451       17.868      863.625
06/13/2013  21:26:00     -229.920      -47.640       10.206      150.964      101.931       55.336    22790.231    10389.985     3062.122        4.573        1.812      234.803       68.787        0.086      342.399       17.779      863.643
06/13/2013  21:27:00     -172.121      -17.060       -7.157       93.921       81.755       45.159     8821.169     6683.898     2039.356        2.375        0.877      172.964       24.457        0.020      342.423       17.820      863.665
06/13/2013  21:28:00     -179.964      -85.656       -6.609      130.883       78.586       50.517    17130.443     6175.789     2551.917        3.281        1.293      199.309       53.201        0.071      342.421       17.815      863.678
06/13/2013  21:29:00     -207.781      -84.759       -6.820       71.472       72.112       38.443     5108.242     5200.108     1477.879        3.109        0.589      224.404       27.522        0.015      342.392       17.767      863.691
06/13/2013  21:30:00     -217.307      -28.128       -8.370      120.143      103.880       64.015    14434.246    10791.106     4097.930        3.870        1.466      219.120       58.931        0.072      342.407       17.792      863.711
06/13/2013  21:31:00     -191.898      -54.350        0.448      103.097       86.328       48.236    10629.062     7452.446     2326.702        3.009        1.020      199.446       50.794        0.065      342.428       17.828      863.709
06/13/2013  21:32:00     -252.675      -18.531      -29.698       81.034       62.936       47.218     6566.527     3960.985     2229.522        3.891        0.638      253.354       46.853        0.034      342.453       17.868      863.732
06/13/2013  21:33:00     -195.914      -55.983       -4.909      121.707      115.648       74.720    14812.682    13374.439     5583.125        3.765        1.689      203.756       77.302        0.144      342.456       17.875      863.745
06/13/2013  21:34:00     -230.124      -65.261      -12.465      163.761       95.452       69.628    26817.766     9111.088     4848.114        4.907        2.039      239.199       79.932        0.112      342.535       18.011      863.755
06/13/2013  21:35:00     -300.105     -119.309      -20.639      105.898       81.027       55.773    11214.438     6565.332     3110.577        6.280        1.045      322.951       45.209        0.020      342.511       17.968      863.773
06/13/2013  21:36:00     -333.353      -40.719      -31.346      129.955      129.896       68.485    16888.268    16872.849     4690.215        7.610        1.923      335.831       77.335        0.053      342.604       18.127      863.783
06/13/2013  21:37:00     -254.265     -121.393      -22.750      141.769      124.596       71.594    20098.586    15524.110     5125.729        6.032        2.037      281.757       48.320        0.029      342.555       18.043      863.781
06/13/2013  21:38:00     -424.477      -12.643      -45.254      116.694      102.966       68.779    13617.580    10601.962     4730.507       10.566        1.448      424.665       63.437        0.022      342.495       17.940      863.800
06/13/2013  21:39:00     -278.808      -78.524      -17.497      100.203       85.469       51.266    10040.591     7304.953     2628.240        5.209        0.999      289.655       48.671        0.028      342.449       17.862      863.814
06/13/2013  21:40:00     -265.194      -71.661      -27.099       61.562       85.890       42.845     3789.824     7377.169     1835.668        4.460        0.650      274.705       17.616        0.004      342.463       17.885      863.821
06/13/2013  21:41:00     -325.778     -103.478      -29.227       82.965       80.805       42.332     6883.215     6529.370     1792.033        6.645        0.760      341.818       35.669        0.011      342.424       17.822      863.844
06/13/2013  21:42:00     -249.821      -77.039        1.670      112.255       80.663       47.003    12601.143     6506.535     2209.294        4.483        1.066      261.430       58.415        0.050      342.351       17.698      863.857
06/13/2013  21:43:00     -335.160      -75.745      -10.727       99.196       60.696       50.241     9839.915     3684.034     2524.136        6.711        0.802      343.612       50.172        0.021      342.364       17.719      863.884
06/13/2013  21:44:00     -249.562      -80.691       -6.597      117.920       72.125       39.873    13905.030     5201.948     1589.878        4.476        1.035      262.283       47.704        0.033      342.304       17.619      863.889
06/13/2013  21:45:00     -250.570      -30.930       -3.313       87.699       69.852       49.333     7691.038     4879.306     2433.697        3.938        0.750      252.472       44.415        0.031      342.276       17.569      863.911
06/13/2013  21:46:00     -185.060      -51.134        4.972       94.758       54.423       36.676     8979.013     2961.888     1345.094        2.508        0.664      191.995       45.663        0.057      342.266       17.552      863.930
06/13/2013  21:47:00     -249.259      -54.088      -11.866       81.044       76.934       42.152     6568.055     5918.856     1776.773        3.973        0.713      255.060       41.186        0.026      342.275       17.567      863.929
06/13/2013  21:48:00     -290.277      -99.653       -8.648      109.544       90.009       56.324    11999.897     8101.662     3172.424        5.877        1.164      306.906       55.209        0.032      342.297       17.606      863.928
06/13/2013  21:49:00     -189.837      -39.886        6.101      147.661       79.047       72.079    21803.834     6248.376     5195.439        3.545        1.662      193.982       90.462        0.217      342.335       17.670      863.931
06/13/2013  21:50:00     -250.106      -36.597      -21.271      112.839       71.858       51.208    12732.597     5163.540     2622.298        4.243        1.026      252.770       59.507        0.055      342.257       17.537      863.954
06/13/2013  21:51:00     -230.191      -31.349       -5.025       97.456       73.504       49.872     9497.658     5402.848     2487.173        3.569        0.869      232.316       52.428        0.051      342.252       17.529      863.956
06/13/2013  21:52:00     -191.197      -57.973        1.566      117.102       68.457       46.058    13712.934     4686.346     2121.294        3.022        1.026      199.793       55.886        0.078      342.239       17.507      863.967
06/13/2013  21:53:00     -309.889      -98.381       -6.983      126.325       90.307       54.492    15958.020     8155.321     2969.378        6.642        1.354      325.131       54.081        0.028      342.298       17.607      863.962
06/13/2013  21:54:00     -208.228      -61.644        3.052      120.970       78.729       50.056    14633.809     6198.288     2505.580        3.525        1.167      217.161       59.352        0.075      342.238       17.505      863.979
06/13/2013  21:55:00     -175.039      -52.198        9.311       70.556       75.663       34.153     4978.152     5724.919     1166.432        2.266        0.593      182.657       36.250        0.039      342.219       17.474      863.991
06/13/2013  21:56:00     -212.851      -45.118        0.054       97.014       71.011       39.369     9411.619     5042.609     1549.934        3.167        0.800      217.580       41.700        0.037      342.238       17.504      864.003
06/13/2013  21:57:00     -246.124      -79.215       -6.693       87.075       71.115       46.218     7582.135     5057.345     2136.115        4.083        0.739      258.558       49.710        0.037      342.238       17.504      864.019
06/13/2013  21:58:00     -198.165      -68.258        5.217       85.899       77.352       47.363     7378.589     5983.363     2243.286        2.978        0.780      209.591       44.801        0.046      342.240       17.509      864.023
06/13/2013  21:59:00     -200.458     -132.285      -11.229       66.056       72.682       42.418     4363.461     5282.637     1799.245        3.462        0.572      240.173       36.756        0.023      342.253       17.529      864.024
06/13/2013  22:00:00     -196.872      -98.732        2.864      125.536       77.893       50.428    15759.374     6067.313     2542.937        3.644        1.218      220.243       61.490        0.078      342.186       17.418      864.019
06/13/2013  22:01:00     -224.022     -104.956       -2.883      120.254      101.876       60.569    14460.914    10378.801     3668.572        4.485        1.425      247.390       59.062        0.057      342.155       17.364      864.002
06/13/2013  22:02:00     -132.629      -94.799       -7.158       88.456       81.377       44.882     7824.532     6622.296     2014.401        2.154        0.823      163.025       47.528        0.085      342.130       17.322      864.000
06/13/2013  22:03:00     -177.572      -79.312        3.701      107.404       98.595       53.430    11535.601     9720.962     2854.734        3.097        1.206      194.479       48.787        0.063      342.102       17.274      863.998
06/13/2013  22:04:00     -253.717     -108.805      -15.854      116.975       93.281       48.954    13683.060     8701.326     2396.541        5.062        1.239      276.063       53.518        0.038      342.086       17.246      864.009
06/13/2013  22:05:00     -215.272      -49.886       -8.335       97.289       87.820       46.135     9465.232     7712.330     2128.452        3.410        0.965      220.977       40.419        0.033      342.068       17.214      863.990
06/13/2013  22:06:00     -264.769      -77.362      -22.499       88.785       72.707       41.427     7882.790     5286.338     1716.172        4.574        0.744      275.840       42.725        0.024      342.046       17.177      863.990
06/13/2013  22:07:00     -223.534      -78.549      -17.198       78.788       72.497       39.128     6207.520     5255.759     1531.012        3.471        0.650      236.933       38.579        0.027      342.027       17.147      863.996
06/13/2013  22:08:00     -200.593      -30.182        5.658       96.654       73.420       47.444     9342.000     5390.523     2250.968        2.908        0.849      202.851       46.909        0.053      341.976       17.061      864.000
06/13/2013  22:09:00     -181.480      -12.835       -8.131       69.331       65.795       39.262     4806.848     4329.027     1541.504        2.192        0.534      181.933       40.461        0.049      341.934       16.990      864.019
06/13/2013  22:10:00     -137.985      -90.506        3.209       80.182       66.967       36.854     6429.215     4484.585     1358.242        1.975        0.614      165.019       41.501        0.063      341.987       17.079      864.026
06/13/2013  22:11:00     -139.135      -66.312        1.344       82.931       49.353       32.951     6877.495     2435.747     1085.758        1.708        0.520      154.129       35.477        0.053      341.981       17.069      864.046
06/13/2013  22:12:00     -163.622     -105.144       -8.907       84.069       63.714       45.556     7067.645     4059.494     2075.348        2.555        0.660      194.493       35.839        0.034      341.964       17.039      864.048
06/13/2013  22:13:00     -143.271      -90.535        8.841      112.554       70.432       43.977    12668.480     4960.700     1933.997        2.418        0.978      169.479       53.997        0.102      341.933       16.987      864.058
06/13/2013  22:14:00     -192.952     -143.280       -7.530      112.111       79.988       51.794    12568.980     6398.128     2682.636        3.973        1.082      240.332       56.189        0.055      341.970       17.048      864.063
06/13/2013  22:15:00     -241.455      -92.300      -18.049       82.831       90.363       44.803     6861.031     8165.496     2007.266        4.209        0.852      258.496       43.482        0.028      341.976       17.057      864.074
06/13/2013  22:16:00     -209.768      -26.476      -18.117       99.351       96.505       55.947     9870.622     9313.255     3130.121        3.367        1.116      211.433       56.633        0.072      341.911       16.950      864.107
06/13/2013  22:17:00     -154.226       -6.350      -18.536       47.526       64.022       26.706     2258.727     4098.876      713.201        1.562        0.354      154.357       11.522        0.006      341.867       16.877      864.139
06/13/2013  22:18:00     -284.870       24.645      -26.193       77.006       67.542       46.759     5929.875     4561.971     2186.430        4.756        0.634      285.934       39.907        0.019      341.881       16.897      864.151
06/13/2013  22:19:00     -236.214      -11.708      -15.536       48.963       69.050       29.234     2397.340     4767.909      854.599        3.210        0.401      236.504       21.037        0.008      341.825       16.803      864.166
06/13/2013  22:20:00     -227.355      -76.469       -3.025       92.295       57.259       34.537     8518.403     3278.544     1192.816        3.527        0.649      239.870       35.487        0.022      341.801       16.762      864.176
06/13/2013  22:21:00     -207.218      -98.037      -10.676      122.557       71.035       55.938    15020.111     5046.030     3129.006        3.793        1.160      229.239       64.625        0.079      341.833       16.817      864.161
06/13/2013  22:22:00     -153.890     -102.040       15.101      125.486       80.923       58.375    15746.631     6548.578     3407.682        3.001        1.285      184.646       59.712        0.105      341.820       16.795      864.150
06/13/2013  22:23:00     -214.531     -224.261       -6.052      174.758      115.818       90.102    30540.511    13413.698     8118.406        7.420        2.604      310.349       99.938        0.104      341.886       16.906      864.125
06/13/2013  22:24:00     -265.934     -216.754       -9.515      127.101      113.401       70.976    16154.688    12859.759     5037.604        7.592        1.703      343.079       65.933        0.037      341.908       16.944      864.111
06/13/2013  22:25:00     -139.143     -120.835       -2.672      111.383      103.888       51.945    12406.197    10792.663     2698.305        2.993        1.295      184.287       59.609        0.105      341.881       16.899      864.122
06/13/2013  22:26:00     -182.346       -0.607      -12.715       99.676       64.863       37.550     9935.312     4207.199     1410.034        2.448        0.778      182.347       44.168        0.059      341.847       16.840      864.156
06/13/2013  22:27:00     -156.555       -0.015      -13.774       64.343       46.593       28.464     4140.042     2170.866      810.220        1.591        0.356      156.555       27.646        0.031      341.773       16.717      864.181
06/13/2013  22:28:00     -119.123       53.546       -6.905       80.454       54.330       36.861     6472.795     2951.778     1358.756        1.394        0.539      130.604       37.355        0.082      341.705       16.602      864.198
06/13/2013  22:29:00     -133.707        2.946      -14.193       85.343       69.203       50.193     7283.365     4789.054     2519.319        1.634        0.730      133.740       50.909        0.145      341.684       16.569      864.202
06/13/2013  22:30:00     -136.267       34.236      -11.133       52.381       68.461       43.098     2743.764     4686.851     1857.469        1.457        0.464      140.502       35.250        0.063      341.648       16.507      864.191
06/13/2013  22:31:00     -122.284      -27.719        3.769       98.994       77.140       57.146     9799.755     5950.602     3265.697        1.737        0.951      125.386       55.435        0.195      341.664       16.534      864.192
06/13/2013  22:32:00     -230.844      -61.680      -32.956      101.369      128.000       55.860    10275.593    16383.925     3120.297        4.397        1.489      238.942       43.419        0.033      341.660       16.523      864.193
06/13/2013  22:33:00     -278.914      -32.597      -34.688       81.388       75.229       45.106     6624.074     5659.341     2034.525        4.719        0.716      280.813       34.558        0.015      341.703       16.596      864.163
06/13/2013  22:34:00     -320.326      -12.120      -35.829       86.799       74.835       38.717     7534.139     5600.342     1499.040        5.933        0.732      320.556       33.775        0.011      341.657       16.521      864.170
06/13/2013  22:35:00     -216.999      -49.047        1.762       92.696       71.657       44.664     8592.531     5134.705     1994.856        3.261        0.786      222.473       47.581        0.046      341.609       16.438      864.202
06/13/2013  22:36:00     -127.952      -53.577       -4.204       92.888       63.660       39.371     8628.097     4052.545     1550.045        1.674        0.712      138.716       29.590        0.046      341.642       16.495      864.219
06/13/2013  22:37:00     -130.514       33.650      -12.342       69.996       55.701       33.615     4899.441     3102.577     1129.943        1.372        0.457      134.782       34.155        0.064      341.669       16.540      864.244
06/13/2013  22:38:00     -127.594      101.204      -21.819       74.434       58.698       33.284     5540.388     3445.417     1107.798        1.854        0.505      162.858       28.089        0.030      341.699       16.592      864.275
06/13/2013  22:39:00     -188.975      116.533      -18.229       86.235      112.932       60.065     7436.452    12753.608     3607.849        3.671        1.190      222.017       57.296        0.067      341.785       16.736      864.325
06/13/2013  22:40:00      -95.395       77.805      -22.050       45.215       67.564       35.892     2044.425     4564.886     1288.202        1.177        0.395      123.101       34.232        0.077      341.789       16.745      864.363
06/13/2013  22:41:00      -73.736      254.881      -30.642       86.243       87.609       49.533     7437.923     7675.381     2453.473        4.445        0.878      265.332       36.476        0.019      341.817       16.788      864.395
06/13/2013  22:42:00      -23.289      318.692      -36.761       96.171      199.052       65.371     9248.852    39621.686     4273.428        7.829        2.657      319.542       91.554        0.082      341.738       16.656      864.437
06/13/2013  22:43:00      -58.967      386.889      -49.340       66.659      107.467       44.320     4443.465    11549.161     1964.293        8.677        0.898      391.357       36.654        0.009      341.697       16.585      864.487
06/13/2013  22:44:00      -59.947      347.307      -40.622       81.665       84.851       47.512     6669.136     7199.694     2257.420        7.099        0.806      352.442       42.669        0.015      341.642       16.494      864.522
06/13/2013  22:45:00     -142.043      213.451      -26.969       76.930       83.168       53.805     5918.209     6916.932     2895.014        4.109        0.787      256.393       37.227        0.021      341.585       16.396      864.566
06/13/2013  22:46:00      -26.578      139.659      -17.935       47.008       53.689       35.031     2209.771     2882.531     1227.154        1.342        0.316      142.166       30.324        0.045      341.594       16.415      864.590
06/13/2013  22:47:00      -28.649      198.177      -27.738       44.225       47.999       21.051     1955.817     2303.939      443.138        2.278        0.235      200.237        9.788        0.002      341.577       16.383      864.592
06/13/2013  22:48:00      -13.005      152.955       -5.836       36.422       53.135       32.871     1326.544     2823.376     1080.535        1.441        0.262      153.507       31.042        0.041      341.495       16.246      864.626
06/13/2013  22:49:00       18.363      151.785      -14.007       37.332       55.475       30.461     1393.649     3077.426      927.886        1.448        0.270      152.892       30.634        0.040      341.479       16.218      864.671
06/13/2013  22:50:00      -15.297      198.529      -26.085       43.742       42.683       31.396     1913.401     1821.806      985.704        2.252        0.236      199.117       24.385        0.015      341.446       16.161      864.697
06/13/2013  22:51:00        9.617       72.615        0.341       27.587       61.971       27.294      761.016     3840.346      744.965        0.535        0.267       73.249       32.431        0.196      341.407       16.097      864.719
06/13/2013  22:52:00      -26.182       88.795      -10.372       32.276       48.831       21.047     1041.767     2384.507      442.959        0.627        0.193       92.575       22.344        0.058      341.436       16.147      864.742
06/13/2013  22:53:00        4.097      122.083       -9.746       51.989       41.572       19.442     2702.832     1728.244      377.995        0.991        0.240      122.151       17.266        0.020      341.474       16.210      864.766
06/13/2013  22:54:00       98.956       59.119        5.642       33.256       23.999       33.892     1105.984      575.970     1148.660        0.807        0.142      115.271       10.444        0.008      341.426       16.130      864.767
06/13/2013  22:55:00      114.481       58.371       14.735       46.650       33.460       29.614     2176.190     1119.577      877.003        1.045        0.209      128.503       15.962        0.015      341.451       16.173      864.784
06/13/2013  22:56:00      112.571       84.354       24.183       36.474       33.030       27.262     1330.317     1090.976      743.202        1.177        0.158      140.669       22.823        0.026      341.479       16.220      864.791
06/13/2013  22:57:00       66.667       22.193       35.375       39.089       29.002       26.434     1527.927      841.096      698.752        0.463        0.153       70.264       11.803        0.028      341.517       16.282      864.797
06/13/2013  22:58:00        4.345       24.342       37.527       16.888       17.538       17.509      285.220      307.574      306.554        0.146        0.045       24.727       14.217        0.331      341.468       16.200      864.800
06/13/2013  22:59:00        0.174        5.798       38.392       11.984       12.188       11.240      143.606      148.542      126.348        0.096        0.021        5.801        9.895        2.910      341.433       16.142      864.807
06/13/2013  23:00:00       -0.485        6.271       27.161       11.589       24.506       13.682      134.315      600.541      187.207        0.085        0.046        6.290       14.994        5.683      341.508       16.268      864.797
06/13/2013  23:01:00       -0.954       13.410        8.200        9.078       16.357        7.274       82.403      267.556       52.914        0.033        0.020       13.444        8.700        0.419      341.566       16.368      864.809
06/13/2013  23:02:00      -10.714       12.074       -0.041       10.720       10.129        8.022      114.914      102.600       64.351        0.027        0.014       16.142        7.148        0.196      341.533       16.314      864.823
06/13/2013  23:03:00      -25.059       19.493       -4.043       21.152       11.715       12.195      447.410      137.245      148.727        0.088        0.037       31.748       14.524        0.209      341.481       16.222      864.839
06/13/2013  23:04:00      -50.160        9.673       -3.836       21.277       11.703       11.241      452.699      136.951      126.366        0.167        0.036       51.085        7.747        0.023      341.424       16.126      864.846
06/13/2013  23:05:00      -43.253       24.175      -11.248       18.423       14.203       10.036      339.389      201.717      100.723        0.161        0.032       49.551        2.908        0.003      341.476       16.215      864.845
06/13/2013  23:06:00        9.472       40.524       -0.585       48.574       31.200       21.804     2359.417      973.429      475.432        0.277        0.190       41.616       16.265        0.153      341.503       16.261      864.854
06/13/2013  23:07:00       -7.127       72.264      -11.720       19.799       31.602       12.271      392.013      998.714      150.570        0.348        0.077       72.614       10.361        0.020      341.479       16.219      864.830
06/13/2013  23:08:00      -71.592       17.324       -7.611       42.454       45.140       19.035     1802.359     2037.663      362.341        0.484        0.210       73.658       21.128        0.082      341.244       15.821      864.839
06/13/2013  23:09:00     -173.773       48.451      -22.004       58.689       36.697       24.563     3444.345     1346.703      603.322        1.921        0.270      180.402       21.280        0.014      341.252       15.834      864.845
06/13/2013  23:10:00     -106.156      140.195      -30.369       61.844      117.958       36.017     3824.705    13914.054     1297.189        2.544        0.952      175.852       46.769        0.071      341.485       16.227      864.836
06/13/2013  23:11:00      -97.485      157.653      -34.073      106.370       91.021       51.079    11314.678     8284.901     2609.095        2.886        1.110      185.358       50.234        0.073      341.442       16.155      864.854
06/13/2013  23:12:00     -132.239      110.164      -26.041       86.842      131.253       38.735     7541.502    17227.426     1500.395        2.828        1.313      172.114       53.017        0.095      341.347       15.993      864.865
06/13/2013  23:13:00     -128.849       86.000      -13.317       77.100       51.815       27.024     5944.416     2684.748      730.292        1.677        0.468      154.913       20.790        0.018      341.206       15.759      864.882
06/13/2013  23:14:00     -200.073      191.607      -48.498       89.674       84.324       57.784     8041.405     7110.542     3338.936        4.879        0.925      277.025       68.973        0.062      341.303       15.919      864.887
06/13/2013  23:15:00      -98.067      175.937      -24.685       68.813       83.776       41.136     4735.283     7018.362     1692.206        2.731        0.672      201.423       38.762        0.037      341.232       15.799      864.884
06/13/2013  23:16:00     -108.816      124.695      -32.197       68.556       72.444       36.241     4699.927     5248.088     1313.438        1.984        0.563      165.499       35.609        0.046      341.245       15.823      864.886
06/13/2013  23:17:00     -142.189      137.333      -24.586       71.111       78.424       40.384     5056.780     6150.285     1630.877        2.626        0.642      197.682       40.189        0.041      341.238       15.810      864.873
06/13/2013  23:18:00     -170.013      100.848      -28.917       98.161      110.535       56.531     9635.662    12218.042     3195.754        3.247        1.252      197.673       63.519        0.103      341.270       15.865      864.879
06/13/2013  23:19:00     -149.790      218.966      -23.013       84.576      106.770       48.698     7153.022    11399.810     2371.447        4.591        1.046      265.298       40.831        0.024      341.186       15.720      864.874
06/13/2013  23:20:00     -176.023      204.992      -33.527      137.759      107.614       67.278    18977.514    11580.757     4526.327        5.460        1.754      270.196       57.508        0.045      341.252       15.833      864.892
06/13/2013  23:21:00     -136.787      128.530      -21.678      133.436      106.224       52.376    17805.180    11283.552     2743.272        3.376        1.592      187.698       50.918        0.074      341.236       15.808      864.914
06/13/2013  23:22:00     -120.886      226.820      -24.460      124.196      148.737       64.924    15424.549    22122.572     4215.106        5.420        2.088      257.023       65.397        0.065      341.222       15.783      864.929
06/13/2013  23:23:00     -196.790      298.213      -45.705      105.619      137.736       68.333    11155.338    18971.213     4669.369        8.226        1.740      357.291       71.499        0.040      341.246       15.823      864.963
06/13/2013  23:24:00      -96.399      366.363      -53.123       89.520      137.588       62.623     8013.753    18930.377     3921.692        8.859        1.543      378.833       71.019        0.035      341.221       15.781      865.005
06/13/2013  23:25:00      -45.777      306.931      -18.246       63.120      121.817       61.457     3984.095    14839.493     3776.987        5.961        1.130      310.326       66.276        0.046      341.169       15.691      865.021
06/13/2013  23:26:00       -6.904      270.806      -25.551       70.993      116.368       52.753     5039.997    13541.498     2782.850        4.770        1.068      270.894       60.778        0.050      341.158       15.673      865.052
06/13/2013  23:27:00      -36.510      379.512      -45.438       77.696      109.134       51.652     6036.666    11910.132     2667.879        8.402        1.031      381.264       49.711        0.017      341.154       15.665      865.052
06/13/2013  23:28:00      -42.558      282.276      -36.527       55.478       72.318       41.822     3077.837     5229.860     1749.063        4.644        0.503      285.466       35.542        0.016      341.126       15.618      865.051
06/13/2013  23:29:00      -54.039      297.752      -42.178       49.981       77.094       39.378     2498.111     5943.551     1550.605        5.167        0.500      302.616       33.360        0.012      341.100       15.573      865.040
06/13/2013  23:30:00      -40.753      315.318      -45.101       65.644       89.477       37.731     4309.087     8006.097     1423.646        5.843        0.687      317.940       37.913        0.014      341.098       15.570      865.015
06/13/2013  23:31:00      -64.949      256.460      -26.750       66.574       73.915       50.110     4432.157     5463.390     2511.058        4.155        0.620      264.556       45.505        0.030      341.052       15.492      864.998
06/13/2013  23:32:00      -73.873      338.842      -28.237       73.657       84.828       45.940     5425.343     7195.856     2110.462        6.790        0.737      346.801       45.645        0.017      341.075       15.532      864.980
06/13/2013  23:33:00      -96.643      361.978      -45.043       64.857       97.126       45.586     4206.377     9433.490     2078.129        7.905        0.786      374.657       42.843        0.013      341.086       15.550      864.973
06/13/2013  23:34:00      -88.028      241.217      -34.137       73.754      114.231       42.745     5439.724    13048.784     1827.108        4.370        1.016      256.777       37.728        0.022      341.059       15.506      864.948
06/13/2013  23:35:00     -127.086      139.144      -21.513       75.711       72.884       46.211     5732.150     5312.112     2135.499        2.457        0.659      188.446       51.881        0.076      340.996       15.401      864.928
06/13/2013  23:36:00     -153.979      157.156      -39.742       68.100       74.345       32.429     4637.558     5527.200     1051.657        3.060        0.561      220.017       30.186        0.019      341.000       15.406      864.911
06/13/2013  23:37:00     -229.538      225.759      -51.183       74.806       84.476       52.776     5595.908     7136.147     2785.288        6.089        0.776      321.954       47.126        0.021      340.972       15.358      864.883
06/13/2013  23:38:00     -172.080      301.503      -51.448      105.725       96.642       53.043    11177.731     9339.637     2813.557        7.324        1.167      347.154       57.012        0.027      340.955       15.329      864.877
06/13/2013  23:39:00     -214.184      261.630      -46.869      103.681      100.353       55.757    10749.816    10070.633     3108.834        7.022        1.196      338.120       48.795        0.021      340.910       15.255      864.861
06/13/2013  23:40:00     -171.487      251.466      -38.136       67.562       83.882       51.116     4564.631     7036.151     2612.839        5.415        0.711      304.373       48.685        0.026      340.857       15.163      864.854
06/13/2013  23:41:00     -176.139      218.719      -52.531       87.097      104.917       47.127     7585.845    11007.627     2220.970        5.121        1.041      280.826       57.068        0.041      340.900       15.236      864.858
06/13/2013  23:42:00     -214.395      199.967      -45.053       96.643      124.192       55.817     9339.869    15423.556     3115.519        5.792        1.394      293.176       68.446        0.055      340.861       15.171      864.869
06/13/2013  23:43:00     -108.748      206.067      -36.864      103.682      117.675       54.349    10750.043    13847.387     2953.771        4.159        1.378      233.001       75.424        0.105      340.809       15.083      864.877
06/13/2013  23:44:00     -133.713      159.466      -28.459      100.509      117.525       48.697    10101.987    13812.152     2371.433        3.520        1.314      208.108       56.368        0.073      340.811       15.087      864.893
06/13/2013  23:45:00     -171.130      274.257      -49.536       99.714       99.077       56.947     9942.951     9816.231     3242.997        6.497        1.150      323.268       56.730        0.031      340.801       15.070      864.897
06/13/2013  23:46:00     -121.975      148.345      -20.032       58.712       65.600       41.334     3447.127     4303.360     1708.475        2.337        0.473      192.052       29.995        0.024      340.760       15.003      864.913
06/13/2013  23:47:00     -135.554      204.266      -36.197       56.931       80.211       43.405     3241.193     6433.835     1883.961        3.648        0.578      245.152       32.774        0.018      340.810       15.085      864.915
06/13/2013  23:48:00     -131.121      200.366      -25.906       72.430       74.547       51.126     5246.175     5557.326     2613.903        3.571        0.671      239.456       45.598        0.036      340.786       15.044      864.924
06/13/2013  23:49:00     -121.602      123.685      -30.348       66.977       63.004       38.126     4485.895     3969.500     1453.628        2.046        0.495      173.450       42.612        0.060      340.797       15.064      864.921
06/13/2013  23:50:00     -156.469      200.189      -43.134       81.941      112.751       46.879     6714.273    12712.837     2197.624        4.402        1.081      254.083       51.956        0.042      340.740       14.967      864.925
06/13/2013  23:51:00     -191.837      201.492      -29.255      134.334      108.284       71.689    18045.725    11725.509     5139.259        5.658        1.746      278.209       70.114        0.064      340.695       14.891      864.918
06/13/2013  23:52:00     -144.758      213.637      -30.176      109.067       99.100       49.331    11895.558     9820.746     2433.531        4.582        1.207      258.061       39.008        0.023      340.659       14.828      864.919
06/13/2013  23:53:00     -191.764      204.842      -46.346       61.284       67.179       42.765     3755.740     4513.025     1828.841        4.549        0.505      280.595       32.483        0.013      340.653       14.817      864.915
06/13/2013  23:54:00     -175.273      222.892      -39.520       84.270      115.890       57.477     7101.484    13430.517     3303.601        5.289        1.192      283.552       55.573        0.038      340.681       14.865      864.917
06/13/2013  23:55:00     -132.524      169.042      -38.066       59.293      100.740       46.090     3515.611    10148.512     2124.295        3.168        0.789      214.797       42.960        0.040      340.705       14.909      864.905
06/13/2013  23:56:00     -121.158      146.119      -16.175       74.456       85.892       58.368     5543.720     7377.411     3406.840        2.631        0.816      189.816       47.267        0.062      340.654       14.822      864.893
06/13/2013  23:57:00     -216.087      205.397      -52.083       98.537      113.155       64.093     9709.576    12804.089     4107.887        5.910        1.331      298.130       68.616        0.053      340.690       14.881      864.885
06/13/2013  23:58:00     -119.163      227.032      -16.514       71.887      115.067       49.976     5167.733    13240.528     2497.641        4.346        1.045      256.404       48.892        0.036      340.648       14.811      864.867
06/13/2013  23:59:00     -137.336      180.122      -34.448       82.477       92.193       47.679     6802.387     8499.555     2273.240        3.503        0.879      226.506       41.799        0.034      340.664       14.839      864.856
